[[{"header":{"parameterUnit":"m.s-1","parameterCategory":1,"la1":30.6,"la2":29.2853,"lo1":-89.7004,"lo2":-87.6739,"dx":0.0162,"dy":0.0183,"nx":112,"ny":82,"refTime":"2022-12-31T18:00:00:Z","depth":0,"parameterNumber":2,"parameterNumberName":"U-component_of_WINDS"},"data":[0.0,0.0,0.0,0.0,0.0,0.0,0.0,0.0,0.0,0.0,0.0,0.0,0.0,0.0,0.0,0.0,0.0,0.0,0.0,0.0,0.0,0.0,0.0,0.0,0.0,0.0,0.0,0.0,0.0,0.0,0.0,0.0,0.0,0.0,0.0,0.0,0.0,0.0,0.0,0.0,0.0,0.0,0.0,0.0,0.0,0.0,0.0,0.0,0.0,0.0,0.0,0.0,0.0,0.0,0.0,0.0,0.0,0.0,0.0,0.0,0.0,0.0,0.0,0.0,0.0,0.0,0.0,0.0,0.0,0.0,0.0,0.0,0.0,0.0,0.0,0.0,0.0,0.0,0.0,0.0,0.0,0.0,0.0,0.0,0.0,0.0,0.0,0.0,0.0,0.0,-2.072,-2.3969,-2.8846,-3.2427,-3.387,-3.2723,-2.9029,-2.2243,0.0,0.0,0.0,0.0,0.0,0.0,0.0,0.0,0.0,0.0,0.0,0.0,0.0,0.0,0.0,0.0,0.0,0.0,0.0,0.0,0.0,0.0,0.0,0.0,0.0,0.0,0.0,0.0,0.0,0.0,0.0,0.0,0.0,0.0,0.0,0.0,0.0,0.0,0.0,0.0,0.0,0.0,0.0,0.0,0.0,0.0,0.0,0.0,0.0,0.0,0.0,0.0,0.0,0.0,0.0,0.0,0.0,0.0,0.0,0.0,0.0,0.0,0.0,0.0,0.0,0.0,0.0,0.0,0.0,0.0,0.0,0.0,0.0,0.0,0.0,0.0,0.0,0.0,0.0,0.0,0.0,0.0,0.0,0.0,0.0,0.0,0.0,0.0,0.0,0.0,0.0,0.0,0.0,0.0,0.0,0.0,0.0,0.0,0.0,0.0,0.0,0.0,0.0,0.0,-2.0534,-2.9287,-3.1335,-3.2794,-3.466,-3.3374,-2.9412,-2.2262,0.0,0.0,0.0,0.0,0.0,0.0,0.0,0.0,0.0,0.0,0.0,0.0,0.0,0.0,0.0,0.0,0.0,0.0,0.0,0.0,0.0,0.0,0.0,0.0,0.0,0.0,0.0,0.0,0.0,0.0,0.0,0.0,0.0,0.0,0.0,0.0,0.0,0.0,0.0,0.0,0.0,0.0,0.0,0.0,0.0,0.0,0.0,0.0,0.0,0.0,0.0,0.0,0.0,0.0,0.0,0.0,0.0,0.0,0.0,0.0,0.0,0.0,0.0,0.0,0.0,0.0,0.0,0.0,0.0,0.0,0.0,0.0,0.0,0.0,0.0,0.0,0.0,0.0,0.0,0.0,0.0,0.0,0.0,0.0,0.0,0.0,0.0,0.0,0.0,0.0,0.0,0.0,0.0,0.0,0.0,0.0,0.0,0.0,0.0,0.0,0.0,0.0,0.0,-1.8839,-2.2979,-2.9737,-3.1803,-3.3248,-3.4575,-3.3396,-2.9714,-2.2887,-2.006,0.0,0.0,0.0,0.0,0.0,0.0,0.0,0.0,0.0,0.0,0.0,0.0,0.0,0.0,0.0,0.0,0.0,0.0,0.0,0.0,0.0,0.0,0.0,0.0,0.0,0.0,0.0,0.0,0.0,0.0,0.0,0.0,0.0,0.0,0.0,0.0,0.0,0.0,0.0,0.0,0.0,0.0,0.0,0.0,0.0,0.0,0.0,0.0,0.0,0.0,0.0,0.0,0.0,0.0,0.0,0.0,0.0,0.0,0.0,0.0,0.0,0.0,0.0,0.0,0.0,0.0,0.0,0.0,0.0,0.0,0.0,0.0,0.0,0.0,0.0,0.0,0.0,0.0,0.0,0.0,0.0,0.0,0.0,0.0,0.0,0.0,0.0,0.0,0.0,0.0,0.0,0.0,0.0,0.0,0.0,0.0,0.0,0.0,0.0,0.0,0.0,0.0,-2.2712,-2.5757,-2.9499,-3.1685,-3.3257,-3.4159,-3.3136,-2.9606,-2.2976,-1.9756,0.0,0.0,0.0,0.0,0.0,0.0,0.0,0.0,0.0,0.0,0.0,0.0,0.0,0.0,0.0,0.0,0.0,0.0,0.0,0.0,0.0,0.0,0.0,0.0,0.0,0.0,0.0,0.0,0.0,0.0,0.0,0.0,0.0,0.0,0.0,0.0,0.0,0.0,0.0,0.0,0.0,0.0,0.0,0.0,0.0,0.0,0.0,0.0,0.0,0.0,0.0,0.0,0.0,0.0,0.0,0.0,0.0,0.0,0.0,0.0,0.0,0.0,0.0,0.0,0.0,0.0,0.0,0.0,0.0,0.0,0.0,0.0,0.0,0.0,0.0,0.0,0.0,0.0,0.0,0.0,0.0,0.0,0.0,0.0,0.0,0.0,0.0,0.0,0.0,0.0,0.0,0.0,0.0,0.0,0.0,0.0,0.0,0.0,0.0,0.0,0.0,0.0,-2.3179,-2.7816,-3.0439,-3.1498,-3.2477,-3.3665,-3.2714,-2.8953,-2.1673,-1.9263,0.0,0.0,0.0,0.0,0.0,0.0,0.0,0.0,0.0,0.0,0.0,0.0,0.0,0.0,0.0,0.0,0.0,0.0,0.0,0.0,0.0,0.0,0.0,0.0,0.0,0.0,0.0,0.0,0.0,0.0,0.0,0.0,0.0,0.0,0.0,0.0,0.0,0.0,0.0,0.0,0.0,0.0,0.0,0.0,0.0,0.0,0.0,0.0,0.0,0.0,0.0,0.0,0.0,0.0,0.0,0.0,0.0,0.0,0.0,0.0,0.0,0.0,0.0,0.0,0.0,0.0,0.0,0.0,0.0,0.0,0.0,0.0,0.0,0.0,0.0,0.0,0.0,0.0,0.0,0.0,0.0,0.0,0.0,0.0,0.0,0.0,0.0,0.0,0.0,0.0,0.0,0.0,0.0,0.0,0.0,0.0,0.0,0.0,0.0,0.0,0.0,0.0,-2.2345,-2.645,-2.9977,-3.1733,-3.2821,-3.3281,-3.2284,-2.8844,-2.2257,0.0,0.0,0.0,0.0,0.0,0.0,0.0,0.0,0.0,0.0,0.0,0.0,0.0,0.0,0.0,0.0,0.0,0.0,0.0,0.0,0.0,0.0,0.0,0.0,0.0,0.0,0.0,0.0,0.0,0.0,0.0,0.0,0.0,0.0,0.0,0.0,0.0,0.0,0.0,0.0,0.0,0.0,0.0,0.0,0.0,0.0,0.0,0.0,0.0,0.0,0.0,0.0,0.0,0.0,0.0,0.0,0.0,0.0,0.0,0.0,0.0,0.0,0.0,0.0,0.0,0.0,0.0,0.0,0.0,0.0,0.0,0.0,0.0,0.0,0.0,0.0,0.0,0.0,0.0,0.0,0.0,0.0,0.0,0.0,0.0,0.0,0.0,0.0,0.0,0.0,0.0,0.0,0.0,0.0,0.0,0.0,0.0,0.0,0.0,0.0,0.0,0.0,-1.8119,-2.2375,-2.6204,-2.9214,-3.1162,-3.2188,-3.2188,-3.1324,-2.8206,-2.2091,0.0,0.0,0.0,0.0,0.0,0.0,0.0,0.0,0.0,0.0,0.0,0.0,0.0,0.0,0.0,0.0,0.0,0.0,0.0,0.0,0.0,0.0,0.0,0.0,0.0,0.0,0.0,0.0,0.0,0.0,0.0,0.0,0.0,0.0,0.0,0.0,0.0,0.0,0.0,0.0,0.0,0.0,0.0,0.0,0.0,0.0,0.0,0.0,0.0,0.0,0.0,0.0,0.0,0.0,0.0,0.0,0.0,0.0,0.0,0.0,0.0,0.0,0.0,0.0,0.0,0.0,0.0,0.0,0.0,0.0,0.0,0.0,0.0,0.0,0.0,0.0,0.0,0.0,0.0,0.0,0.0,0.0,0.0,0.0,0.0,0.0,0.0,0.0,0.0,0.0,0.0,0.0,0.0,0.0,0.0,0.0,0.0,0.0,0.0,0.0,0.0,0.0,-1.7738,-2.3557,-2.7731,-2.8263,-2.9512,-3.0293,-3.0293,-2.9813,-2.6895,0.0,0.0,0.0,0.0,0.0,0.0,0.0,0.0,0.0,0.0,0.0,0.0,0.0,0.0,0.0,0.0,0.0,0.0,0.0,0.0,0.0,0.0,0.0,0.0,0.0,0.0,0.0,0.0,0.0,0.0,0.0,0.0,0.0,0.0,0.0,0.0,0.0,0.0,0.0,0.0,0.0,0.0,0.0,0.0,0.0,0.0,0.0,0.0,0.0,0.0,0.0,0.0,0.0,0.0,0.0,0.0,0.0,0.0,0.0,0.0,0.0,0.0,0.0,0.0,0.0,0.0,0.0,0.0,0.0,0.0,0.0,0.0,0.0,0.0,0.0,0.0,0.0,0.0,0.0,0.0,0.0,0.0,0.0,0.0,0.0,0.0,0.0,0.0,0.0,0.0,0.0,0.0,0.0,0.0,0.0,0.0,0.0,0.0,0.0,0.0,0.0,0.0,0.0,-1.8458,-2.3871,-2.7903,-2.8949,-2.9412,-2.9848,-3.0251,-2.9198,-2.6185,-2.0739,0.0,0.0,0.0,0.0,0.0,0.0,0.0,0.0,0.0,0.0,0.0,0.0,0.0,0.0,0.0,0.0,0.0,0.0,0.0,0.0,0.0,0.0,0.0,0.0,0.0,0.0,0.0,0.0,0.0,0.0,0.0,0.0,0.0,0.0,0.0,0.0,0.0,0.0,0.0,0.0,0.0,0.0,0.0,0.0,0.0,0.0,0.0,0.0,0.0,0.0,0.0,0.0,0.0,0.0,0.0,0.0,0.0,0.0,0.0,0.0,0.0,0.0,0.0,0.0,0.0,0.0,0.0,0.0,0.0,0.0,0.0,0.0,0.0,0.0,0.0,0.0,0.0,0.0,0.0,0.0,0.0,0.0,0.0,0.0,0.0,0.0,0.0,0.0,0.0,0.0,0.0,0.0,0.0,0.0,0.0,0.0,0.0,0.0,0.0,0.0,0.0,0.0,-1.8451,-2.3894,-2.7842,-2.8576,-2.9134,-2.954,-2.9892,-2.9296,-2.6956,-2.239,0.0,0.0,0.0,0.0,0.0,0.0,0.0,0.0,0.0,0.0,0.0,0.0,0.0,0.0,0.0,0.0,0.0,0.0,0.0,0.0,0.0,0.0,0.0,0.0,0.0,0.0,0.0,0.0,0.0,0.0,0.0,0.0,0.0,0.0,0.0,0.0,0.0,0.0,0.0,0.0,0.0,0.0,0.0,0.0,0.0,0.0,0.0,0.0,0.0,0.0,0.0,0.0,0.0,0.0,0.0,0.0,0.0,0.0,0.0,0.0,0.0,0.0,0.0,0.0,0.0,0.0,0.0,0.0,0.0,0.0,0.0,0.0,0.0,0.0,0.0,0.0,0.0,0.0,0.0,0.0,0.0,0.0,0.0,0.0,0.0,0.0,0.0,0.0,0.0,0.0,0.0,0.0,0.0,0.0,0.0,0.0,0.0,0.0,0.0,0.0,0.0,0.0,-1.8007,-2.3701,-2.7625,-2.7625,-2.8622,-2.9316,-2.9406,-2.9773,-2.8501,-2.5012,0.0,0.0,0.0,0.0,0.0,0.0,0.0,0.0,0.0,0.0,0.0,0.0,0.0,0.0,0.0,0.0,0.0,0.0,0.0,0.0,0.0,0.0,0.0,0.0,0.0,0.0,0.0,0.0,0.0,0.0,0.0,0.0,0.0,0.0,0.0,0.0,0.0,0.0,0.0,0.0,0.0,0.0,0.0,0.0,0.0,0.0,0.0,0.0,0.0,0.0,0.0,0.0,0.0,0.0,0.0,0.0,0.0,0.0,0.0,0.0,-1.6408,-1.3903,0.0,0.0,0.0,0.0,0.0,0.0,0.0,0.0,0.0,0.0,0.0,0.0,0.0,0.0,0.0,0.0,0.0,0.0,0.0,0.0,0.0,0.0,0.0,0.0,0.0,0.0,0.0,0.0,0.0,0.0,0.0,0.0,0.0,0.0,0.0,0.0,0.0,0.0,0.0,0.0,-1.8007,-2.3701,-2.7625,-2.7625,-2.8271,-2.8873,-2.9361,-2.941,-2.8302,-2.5732,-2.338,0.0,0.0,0.0,0.0,0.0,0.0,0.0,0.0,0.0,0.0,0.0,0.0,0.0,0.0,0.0,0.0,0.0,0.0,0.0,0.0,0.0,0.0,0.0,0.0,0.0,0.0,0.0,0.0,0.0,0.0,0.0,0.0,0.0,0.0,0.0,0.0,0.0,0.0,0.0,0.0,0.0,0.0,0.0,0.0,0.0,0.0,0.0,0.0,0.0,0.0,0.0,0.0,0.0,0.0,0.0,0.0,0.0,0.0,0.0,-1.8751,-1.7439,0.0,0.0,0.0,0.0,0.0,0.0,0.0,0.0,0.0,0.0,0.0,0.0,0.0,0.0,0.0,0.0,0.0,0.0,0.0,0.0,0.0,0.0,0.0,0.0,0.0,0.0,0.0,0.0,0.0,0.0,0.0,0.0,0.0,0.0,0.0,0.0,0.0,0.0,0.0,0.0,-1.8053,-2.3701,-2.7694,-2.8038,-2.8629,-2.9232,-2.9826,-3.0424,-3.0094,-2.8488,-2.6332,0.0,0.0,0.0,0.0,0.0,0.0,0.0,0.0,0.0,0.0,0.0,0.0,0.0,0.0,0.0,0.0,0.0,0.0,0.0,0.0,0.0,0.0,0.0,0.0,0.0,0.0,0.0,0.0,0.0,0.0,0.0,0.0,0.0,0.0,0.0,0.0,0.0,0.0,0.0,0.0,0.0,0.0,0.0,0.0,0.0,0.0,0.0,0.0,0.0,0.0,0.0,0.0,0.0,-1.8738,-1.8936,-1.953,-1.953,-2.0782,-2.2817,-2.0837,-2.1306,-2.3106,-1.8632,0.0,0.0,0.0,0.0,0.0,0.0,0.0,0.0,0.0,0.0,0.0,0.0,0.0,0.0,0.0,0.0,0.0,0.0,0.0,0.0,0.0,0.0,-1.9918,-1.939,-2.0797,-2.1865,-2.0473,0.0,0.0,0.0,0.0,0.0,0.0,0.0,0.0,0.0,0.0,0.0,-1.9006,-2.4202,-2.8053,-2.8846,-2.9449,-3.0008,-3.0529,-3.1783,-3.2194,-3.1307,-2.9063,-2.6962,0.0,0.0,0.0,0.0,0.0,0.0,0.0,0.0,0.0,0.0,0.0,0.0,0.0,0.0,0.0,0.0,0.0,0.0,0.0,0.0,0.0,0.0,0.0,0.0,0.0,0.0,0.0,0.0,0.0,0.0,0.0,0.0,-1.7308,-1.726,0.0,0.0,0.0,0.0,0.0,0.0,0.0,0.0,0.0,0.0,0.0,0.0,0.0,-1.8809,-1.9833,-2.1189,-2.1931,-2.2015,-2.3001,-2.3545,-2.3623,-2.3623,-2.3802,-2.4155,-2.4329,0.0,-2.3473,-2.2161,0.0,0.0,0.0,0.0,0.0,0.0,0.0,0.0,0.0,0.0,0.0,0.0,0.0,0.0,0.0,0.0,0.0,0.0,0.0,0.0,0.0,0.0,-2.7147,-2.7802,-2.8181,-2.8375,-2.815,-2.1886,-1.6137,-1.5645,-1.5026,-1.3783,0.0,0.0,0.0,0.0,0.0,0.0,-2.2631,-2.6266,-2.8921,-3.0118,-3.0792,-3.1186,-3.129,-3.2498,-3.2718,-3.1468,-3.154,-3.0162,-2.6833,-2.4997,0.0,0.0,0.0,0.0,0.0,0.0,0.0,0.0,0.0,0.0,0.0,0.0,0.0,0.0,0.0,0.0,0.0,0.0,0.0,0.0,0.0,0.0,0.0,0.0,0.0,0.0,0.0,0.0,0.0,-1.5099,-1.6109,-1.6616,-1.5454,-1.4094,0.0,0.0,0.0,0.0,0.0,0.0,0.0,0.0,0.0,-2.1329,-2.1431,-2.2062,-2.3364,-2.3831,-2.3899,-2.3607,-2.3835,-2.4161,-2.4498,-2.4498,-2.4869,-2.5567,-2.5764,-2.6026,-2.6088,-2.369,-2.1917,-2.0607,0.0,0.0,0.0,0.0,-1.9639,-1.9846,-2.2019,-2.2471,-2.1987,-2.1471,0.0,0.0,0.0,0.0,0.0,0.0,0.0,-2.1554,-2.4696,-2.5942,-2.6808,-2.855,-2.8594,-2.8297,-2.8297,-2.517,-2.2095,-2.1167,-2.0028,-1.7945,-1.3897,-1.4335,0.0,0.0,0.0,-2.163,-2.3667,-2.6954,-2.9639,-3.0941,-3.1287,-3.1744,-3.2468,-3.3081,-3.3216,-3.2634,-3.2884,-3.219,-3.0154,-2.7524,-2.4116,0.0,0.0,0.0,0.0,0.0,0.0,0.0,0.0,0.0,0.0,0.0,0.0,0.0,0.0,0.0,0.0,0.0,0.0,0.0,0.0,0.0,0.0,0.0,0.0,0.0,0.0,0.0,0.0,-1.5796,-1.6704,-1.6798,-1.7356,-1.6658,0.0,0.0,0.0,0.0,0.0,0.0,-2.1092,-2.0636,-2.1545,-2.419,-2.4464,-2.5096,-2.6318,-2.5921,-2.5473,-2.4916,-2.4351,-2.4388,-2.4881,-2.4881,-2.5364,-2.6213,-2.6397,-2.7087,-2.7977,-2.5347,-2.439,-2.4483,-2.2838,-2.2066,-2.2019,-2.3319,-2.3577,-2.3654,-2.6274,-2.6748,-2.6138,-2.5484,-2.4902,-2.4028,-2.2217,0.0,0.0,0.0,0.0,-2.3431,-2.6591,-2.6956,-2.703,-2.8983,-2.9015,-2.8649,-2.8649,-2.8182,-2.7363,-2.6065,-2.4702,-2.2388,-1.8004,-1.8987,0.0,-1.7114,-2.0977,-2.4578,-2.5681,-2.8186,-3.0387,-3.1884,-3.2033,-3.2449,-3.3612,-3.386,-3.3774,-3.3262,-3.3451,-3.324,-3.2558,-2.9784,-2.7042,-2.4563,0.0,0.0,0.0,0.0,0.0,0.0,0.0,0.0,0.0,0.0,0.0,0.0,0.0,0.0,0.0,0.0,0.0,0.0,0.0,0.0,0.0,0.0,0.0,0.0,0.0,0.0,0.0,0.0,0.0,-2.0025,-2.2641,0.0,0.0,0.0,0.0,-2.0882,-2.1034,-2.2033,-2.4167,-2.4252,-2.4994,-2.666,-2.7289,-2.7454,-2.7115,-2.7198,-2.6889,-2.6269,-2.5773,-2.5525,-2.5555,-2.5555,-2.557,-2.5691,-2.6306,-2.698,-2.766,-2.8008,-2.7642,-2.6902,-2.6795,-2.6282,-2.5628,-2.6549,-2.7286,-2.8005,-2.9071,-2.9409,-2.9312,-2.9088,-2.7534,-2.5712,-2.5737,-2.4625,0.0,0.0,-2.6598,-2.7247,-3.0395,-3.1028,-3.1119,-3.2065,-3.2244,-3.2229,-3.2229,-3.0579,-2.8943,-2.8356,-2.7613,-2.6505,-2.4717,0.0,-2.3981,-2.5093,-2.5046,-2.6344,-3.0567,-3.0731,-3.121,-3.3185,-3.3395,-3.3664,-3.4385,-3.5003,-3.4559,-3.2646,-3.3135,-3.3206,-3.2625,-3.1738,-2.9848,-2.6808,-2.4606,0.0,0.0,0.0,0.0,0.0,0.0,0.0,0.0,0.0,0.0,0.0,0.0,0.0,0.0,0.0,0.0,0.0,0.0,0.0,0.0,0.0,0.0,0.0,0.0,0.0,0.0,0.0,0.0,-2.1972,-2.4173,0.0,-2.1771,-2.321,-2.4458,-2.4712,-2.6522,-2.7977,-2.8755,-2.8805,-2.8868,-2.8946,-2.8777,-2.8254,-2.7253,-2.6887,-2.6683,-2.6514,-2.6324,-2.6692,-2.753,-2.7081,-2.735,-2.8158,-2.7964,-2.8487,-2.946,-2.9659,-2.9335,-2.871,-2.871,-2.851,-2.8282,-2.858,-2.8897,-2.9169,-2.9454,-2.9579,-2.9648,-2.9946,-2.9819,-2.9492,-2.9539,-2.9117,-2.8843,-2.9666,-3.0152,-3.0755,-3.1855,-3.2391,-3.2729,-3.308,-3.314,-3.314,-3.314,-3.2511,-3.1895,-3.1708,-3.0345,-2.8524,-2.6542,-2.8404,-2.9526,-2.7549,-2.9564,-3.1836,-3.341,-3.3392,-3.3637,-3.4712,-3.4408,-3.4397,-3.5085,-3.4964,-3.4378,-3.32,-3.2945,-3.2329,-3.1175,-3.0866,-2.9711,-2.7631,-2.6871,-2.3359,0.0,0.0,0.0,0.0,0.0,0.0,0.0,0.0,0.0,0.0,0.0,0.0,0.0,0.0,0.0,0.0,0.0,0.0,0.0,0.0,0.0,0.0,0.0,0.0,0.0,-2.2141,-2.4549,-2.3012,-2.5811,-2.6745,-2.3898,-2.6639,-2.8586,-2.8586,-3.0666,-3.1833,-3.1562,-3.1562,-3.1246,-3.0543,-3.0332,-2.9559,-2.8104,-2.8117,-2.7859,-2.7275,-2.75,-2.8068,-2.8921,-2.8457,-2.8742,-2.9564,-2.934,-2.9714,-3.0522,-3.0746,-3.0612,-3.0238,-3.0238,-3.0238,-3.0238,-3.0238,-3.0238,-3.0238,-3.0238,-3.0088,-2.9943,-3.033,-3.0921,-3.1467,-3.1161,-3.1441,-3.1869,-3.1869,-3.2332,-3.2841,-3.2841,-3.3335,-3.3829,-3.3829,-3.3829,-3.3829,-3.3829,-3.3649,-3.3499,-3.3499,-3.2513,-3.1236,-2.976,-3.2244,-3.3282,-2.9943,-3.2684,-3.4824,-3.4066,-3.4596,-3.5211,-3.5574,-3.5141,-3.5042,-3.5444,-3.4177,-3.3366,-3.3484,-3.1886,-3.0748,-3.0315,-2.9276,-2.8254,-2.7255,-2.6757,-2.3792,-1.8352,0.0,0.0,0.0,0.0,0.0,0.0,0.0,0.0,0.0,0.0,0.0,0.0,0.0,0.0,0.0,0.0,0.0,0.0,0.0,0.0,0.0,0.0,0.0,-2.2761,-2.4768,-2.561,-2.3457,-2.7912,-2.9786,-2.6167,-2.9736,-3.229,-3.2307,-3.3017,-3.3119,-3.2432,-3.2415,-3.2135,-3.1517,-3.2018,-3.1457,-2.9681,-3.0846,-3.0485,-2.8667,-2.931,-2.9624,-2.9639,-2.9624,-2.9624,-2.9669,-3.0253,-3.0507,-3.0582,-3.124,-3.1452,-3.1482,-3.1452,-3.1437,-3.1452,-3.1437,-3.1452,-3.1409,-3.1467,-3.1049,-3.0488,-3.0335,-3.0881,-3.1337,-3.0582,-3.1335,-3.2482,-3.2542,-3.3021,-3.3529,-3.3529,-3.4008,-3.4502,-3.4502,-3.4502,-3.4502,-3.4502,-3.4008,-3.3559,-3.3559,-3.4239,-3.4752,-3.4736,-3.5371,-3.5107,-3.2854,-3.4482,0.0,-3.2857,-3.453,-3.58,-3.5599,-3.5543,-3.5492,-3.5374,-3.276,-3.1804,-3.3395,-3.0009,-2.8677,-3.0225,-2.7382,-2.5742,-2.5727,-2.4272,-2.2784,-2.121,0.0,0.0,0.0,0.0,0.0,0.0,0.0,0.0,0.0,0.0,0.0,0.0,0.0,0.0,0.0,0.0,0.0,0.0,0.0,0.0,0.0,-2.3585,-2.6441,-2.4998,-2.7232,-2.9113,-2.9327,-3.0441,-3.0987,-3.0497,-3.1562,-3.251,-3.3051,-3.3778,-3.41,-3.3897,-3.4404,-3.4351,-3.3648,-3.2928,-3.2045,-3.1006,-3.0397,-3.0046,-2.9983,-3.0163,-3.0507,-3.0986,-3.0477,-3.0522,-3.0986,-3.0657,-3.0791,-3.1225,-3.0911,-3.1091,-3.1422,-3.0986,-3.0791,-3.072,-3.0133,-2.9806,-2.9766,-3.0389,-3.0819,-3.0991,-3.0888,-3.1387,-3.1888,-3.17,-3.1878,-3.2353,-3.3017,-3.3709,-3.4203,-3.4203,-3.4711,-3.522,-3.522,-3.522,-3.522,-3.522,-3.5085,-3.4951,-3.4951,-3.6043,-3.6627,-3.554,-3.6846,-3.7834,-3.7175,-3.811,-3.8671,-3.807,-3.8005,-3.7204,-3.5004,-3.4287,-3.3732,-3.313,-3.2364,-3.2585,-3.4145,-3.261,-3.116,-3.0129,-2.8557,-2.7287,-2.6282,-2.3787,-2.2009,0.0,0.0,0.0,0.0,0.0,0.0,0.0,0.0,0.0,0.0,0.0,0.0,0.0,0.0,0.0,0.0,0.0,0.0,0.0,0.0,0.0,0.0,-2.6968,-2.9436,-2.8703,-3.0209,-3.1572,-3.2022,-3.199,-3.2037,-3.228,-3.2848,-3.3389,-3.3829,-3.4539,-3.4962,-3.4962,-3.5385,-3.5419,-3.4979,-3.4215,-3.3386,-3.2366,-3.1604,-3.1142,-3.0941,-3.0941,-3.115,-3.1467,-3.112,-3.115,-3.1467,-3.1405,-3.1569,-3.1913,-3.1509,-3.1584,-3.1839,0.0,0.0,0.0,0.0,-2.9223,-2.8761,-2.9715,-3.0128,-3.027,-3.0821,-3.118,-3.1542,-3.2012,-3.2342,-3.2688,-3.3639,-3.4382,-3.4906,-3.4906,-3.5205,-3.5504,-3.5504,-3.5504,-3.5504,-3.5504,-3.5504,-3.5504,-3.5504,-3.6723,0.0,-3.6684,-3.8121,-3.8952,-3.7736,-3.8992,-3.9631,-3.8379,-3.8891,-3.8615,-3.6534,-3.5663,-3.4865,-3.4102,-3.2655,0.0,0.0,0.0,-3.0315,-2.8177,-2.7149,0.0,0.0,0.0,-2.2812,-2.3314,-2.1998,0.0,0.0,-1.9503,-1.8864,0.0,0.0,0.0,0.0,0.0,0.0,0.0,0.0,0.0,0.0,0.0,0.0,0.0,0.0,0.0,0.0,-3.0082,-3.2742,-3.2742,-3.2966,-3.2967,-3.2598,-3.2844,-3.2865,-3.2553,-3.3702,-3.4523,-3.4607,-3.5233,-3.5622,-3.5622,-3.5622,0.0,0.0,0.0,-3.4866,-3.3607,-3.3536,-3.2898,-3.1764,-3.1764,-3.1764,-3.1764,-3.1764,-3.1764,-3.1735,-3.2362,-3.2587,-3.2512,-3.2512,-3.2512,-3.2377,-3.0991,-3.0743,-3.1102,-3.0341,-2.9184,-2.8184,-2.9378,0.0,0.0,-3.0482,-3.0882,-3.1005,-3.2082,-3.2774,-3.3368,-3.4322,-3.504,-3.5504,-3.5504,-3.5504,-3.5504,-3.5504,-3.5504,-3.5504,-3.5504,-3.5504,-3.5504,-3.5504,-3.6662,-3.769,-3.7748,-3.9065,-3.9174,-3.6518,-3.8379,-3.9123,-3.6468,-3.843,-3.9648,-3.8517,-3.7832,0.0,-3.615,-3.3084,-3.2209,-3.449,-3.125,-2.8338,-2.6189,-2.5262,-2.4484,-2.3927,-2.3848,-2.4758,-2.6622,-2.6622,-2.6622,-2.6483,-2.0992,-1.9885,0.0,0.0,0.0,0.0,0.0,0.0,0.0,0.0,0.0,0.0,0.0,0.0,0.0,0.0,0.0,-2.8069,-3.1247,-3.3568,-3.3568,-3.3093,-3.2794,-3.3033,-3.302,-3.3225,-3.3692,-3.4218,-3.4742,-3.5351,-3.5537,-3.5622,-3.5622,-3.5622,-3.5362,-3.4783,-3.4785,-3.4399,-3.3512,-3.3495,-3.3336,-3.311,-3.311,0.0,-3.311,-3.311,-3.311,-3.3125,-3.3245,-3.3006,-3.2512,-3.2512,-3.2512,-3.2378,-3.082,-2.9822,-2.9282,-2.889,-2.8454,-2.819,-2.9144,-2.9741,-3.0228,-3.1185,-3.1792,-3.2388,-3.3382,-3.3739,0.0,-3.502,-3.54,-3.5504,-3.5504,-3.5504,-3.5504,-3.5504,-3.5504,-3.5504,-3.5504,-3.5504,-3.5504,-3.5504,-3.6228,-3.704,-3.769,-3.9065,-3.9884,-3.9309,-3.9715,-3.9868,-3.9292,-3.9715,-3.8875,-3.5679,-3.5234,-3.4555,-3.3177,-3.2384,-3.2965,-3.5145,-3.348,-3.1833,-3.0599,-2.9997,-2.9236,-2.8277,-2.7881,-2.7481,-2.713,-2.713,-2.713,-2.708,-2.5466,-2.5304,0.0,0.0,0.0,0.0,0.0,0.0,0.0,0.0,0.0,0.0,0.0,-2.2705,-2.5153,0.0,-2.8828,-3.091,-3.269,-3.366,-3.3256,-3.3022,-3.3024,-3.3355,-3.3317,-3.3549,-3.4213,-3.4737,-3.5216,-3.5588,-3.5622,-3.547,-3.5098,-3.5098,-3.4965,-3.4607,-3.4568,-3.4554,-3.4527,-3.4152,-3.3978,-3.3978,-3.4061,-3.3894,-3.3484,-3.3894,-3.3894,-3.3514,-3.3844,-3.3799,-3.3499,-3.3499,-3.3305,-3.2885,-3.1961,-3.1162,-3.0495,-3.0363,-3.0011,-2.9631,-3.0331,-3.0837,-3.1289,-3.2402,-3.2709,-3.289,-3.4327,-3.4394,-3.4245,-3.5213,-3.5504,-3.5504,-3.5504,-3.5504,-3.5504,-3.5504,-3.5504,-3.5504,-3.5504,-3.5504,-3.5504,-3.5504,-3.6117,-3.6737,-3.7144,-3.8189,-3.9226,-3.9952,-4.007,-4.007,-4.007,-4.007,-3.9228,-3.6966,-3.6388,-3.5694,-3.4469,-3.4059,-3.4316,-3.5415,-3.4317,-3.3274,-3.2543,-3.1814,-3.1047,-3.0269,-2.9971,-2.9619,-2.9154,-2.8625,-2.8427,-2.8344,-2.7607,-2.7431,0.0,0.0,0.0,0.0,0.0,0.0,0.0,-1.8968,-1.9667,-2.3847,-2.4701,-2.5724,-2.9077,-2.9703,-3.0593,-3.334,-3.3807,-3.3542,-3.282,-3.2863,-3.3109,-3.3441,-3.3547,-3.3813,-3.4346,-3.5125,-3.5622,-3.5622,-3.5622,-3.5316,-3.464,-3.4724,-3.4658,-3.4393,-3.4566,-3.4873,-3.5278,-3.5063,-3.4889,-3.4889,-3.5164,-3.496,-3.4334,-3.4842,-3.4739,-3.412,-3.4355,-3.4547,-3.4666,-3.4532,-3.4247,-3.3871,-3.3659,-3.3267,-3.2788,-3.245,-3.1895,-3.1362,-3.1778,-3.1944,-3.2166,-3.3568,-3.3518,-3.3171,-3.4986,-3.492,-3.4461,-3.5279,-3.5504,-3.5504,-3.5504,-3.5504,-3.5504,-3.5504,-3.5504,-3.5504,-3.5504,-3.5504,-3.5504,-3.5504,-3.6006,-3.6446,-3.6554,-3.7144,-3.8076,-3.961,-3.985,-3.9901,-4.007,-3.9952,-3.9558,-3.8745,-3.8019,-3.7279,-3.6446,-3.5831,-3.5504,-3.5504,-3.4758,-3.4095,-3.3638,-3.2929,-3.2202,-3.1562,-3.1503,-3.1313,-3.1179,-3.0363,-2.9821,-2.9636,-2.8993,-2.8568,-1.4373,-1.483,-1.6994,-1.9883,-2.0101,-2.1586,0.0,-2.8456,-2.752,-3.1675,-3.2525,-3.2672,-3.3138,-3.323,-3.334,-3.3752,-3.3807,-3.3643,-3.3194,-3.2564,-3.2375,-3.2997,-3.3647,-3.4056,-3.415,-3.5036,-3.5622,-3.5622,-3.5622,-3.5316,-3.464,-3.5169,-3.4923,-3.3643,-3.4759,-3.5141,-3.4583,-3.5799,-3.6384,-3.6384,-3.7089,-3.7409,-3.7292,-3.6685,-3.6337,-3.6184,-3.4982,-3.4816,-3.534,-3.4726,-3.4801,-3.528,-3.5225,-3.521,-3.4925,-3.3182,-3.247,-3.2414,-3.2469,-3.2496,-3.2652,-3.3642,-3.3945,-3.4027,-3.5133,-3.5424,-3.5359,-3.5439,-3.5504,-3.5504,-3.5504,-3.5504,-3.5504,-3.5504,-3.5504,-3.5504,-3.5504,-3.5504,-3.5504,-3.5504,-3.5569,-3.5831,-3.6492,-3.6661,-3.7247,-3.8799,-3.9016,-3.9315,-4.002,-3.9489,-3.8745,-3.7978,-3.7203,-3.6446,-3.5668,-3.5569,-3.5504,-3.5504,-3.5359,-3.5329,-3.5255,-3.5109,-3.4626,-3.3675,-3.3197,-3.2563,-3.1736,-3.1599,-3.1126,-3.0342,-3.0684,-3.0141,-2.1005,-2.0835,-2.1185,-2.3045,-2.3598,-2.4731,-2.8681,-2.8492,-2.8612,-3.2635,-3.3447,-3.3522,-3.3762,-3.3807,-3.3807,-3.3807,-3.3807,-3.3488,-3.2629,-3.2742,-3.2783,-3.2364,-3.3505,-3.4336,-3.4336,-3.5111,-3.5622,-3.5622,-3.5622,-3.5161,-3.4087,-3.4279,-3.4361,-3.4208,-3.474,-3.5481,-3.6378,-3.7018,-3.7279,-3.7338,-3.8076,-3.8206,-3.7806,-3.7889,-3.7467,-3.6538,-3.5528,-3.5235,-3.5489,-3.519,-3.525,-3.5504,-3.5504,-3.5504,-3.5424,-3.4558,-3.4274,-3.4274,-3.4274,-3.4274,-3.4341,-3.4773,-3.4839,-3.4986,-3.5359,-3.5504,-3.5504,-3.5504,-3.5504,-3.5504,-3.5504,-3.5504,-3.5504,-3.5504,-3.5504,-3.5504,-3.5504,-3.5052,-3.461,-3.461,-3.4192,-3.4081,-3.4934,-3.5115,-3.5679,-3.7334,-3.7946,-3.8374,-3.8723,-3.8486,-3.7962,-3.7203,-3.6415,-3.5846,-3.5504,-3.5504,-3.5504,-3.5504,-3.5504,-3.5504,-3.5504,-3.5504,-3.5279,-3.4905,-3.464,-3.4361,-3.3935,-3.3368,-3.2861,-3.2458,-3.1635,-3.0839,-2.4024,-2.4171,-2.4123,-2.542,-2.6661,-2.7831,-2.8613,-2.8788,-2.9607,-3.2437,-3.3105,-3.3302,-3.3578,-3.3734,-3.3807,-3.3807,-3.3807,-3.3405,-3.2272,-3.2805,-3.295,-3.2056,-3.3274,-3.4269,-3.4472,-3.5182,-3.5515,-3.5362,-3.5316,-3.48,-3.3633,-3.3741,-3.4116,-3.4659,-3.5047,-3.6052,-3.7806,-3.7978,-3.8092,-3.8092,-3.887,-3.8924,-3.8446,-3.8541,-3.7774,-3.6275,-3.5718,-3.5504,-3.5504,-3.5504,-3.5504,-3.5504,-3.5504,-3.5504,-3.5504,-3.5504,-3.5504,-3.5504,-3.5504,-3.5504,-3.5504,-3.5504,-3.5504,-3.5504,-3.5504,-3.5504,-3.5504,-3.5504,-3.5504,-3.5504,-3.5504,-3.5504,-3.5504,-3.5504,-3.5504,-3.5424,-3.5133,-3.4543,-3.3945,-3.3671,-3.3031,-3.282,-3.3518,-3.3602,-3.4119,-3.5631,-3.6384,-3.6993,-3.769,-3.7632,-3.716,-3.6399,-3.5846,-3.5504,-3.5504,-3.5504,-3.5504,-3.5504,-3.5504,-3.5504,-3.5504,-3.5504,-3.5504,-3.5504,-3.5504,-3.5504,-3.5504,-3.4758,-3.4109,-3.3602,-3.2249,-3.1328,-1.9982,-2.1759,-2.4053,-2.6675,-2.9232,-3.1338,-3.2166,-3.2343,-3.2378,-3.25,-3.2872,-3.3214,-3.3214,-3.355,-3.3807,-3.3807,-3.3807,-3.3504,-3.2613,-3.2517,-3.2477,-3.2298,-3.2949,-3.3711,-3.4421,-3.5182,-3.5316,-3.4688,-3.4624,-3.4333,-3.3633,-3.4156,-3.4539,-3.469,-3.5887,-3.6933,-3.7806,-3.8525,-3.8854,-3.8854,-3.9662,-4.007,-3.9969,-3.8502,-3.7011,-3.5504,-3.5504,-3.5504,-3.5504,-3.5504,-3.5504,-3.5504,-3.5504,-3.5504,-3.5504,-3.5504,-3.5504,-3.5504,-3.5504,-3.5504,-3.5504,-3.5504,-3.5504,-3.5504,-3.5504,-3.5504,-3.5504,-3.5504,-3.5504,-3.5504,-3.5504,-3.5504,-3.5504,-3.5504,-3.5504,-3.5213,-3.4245,-3.4027,-3.3739,-3.282,-3.2593,-3.2593,-3.2664,-3.2664,-3.2961,-3.3945,-3.4081,-3.5035,-3.7499,-3.71,-3.6337,-3.5619,-3.5504,-3.5504,-3.5504,-3.5504,-3.5504,-3.5504,-3.5504,-3.5504,-3.5504,-3.5504,-3.5504,-3.5504,-3.5504,-3.5504,-3.5504,-3.5439,-3.4491,-3.2664,-3.2593,-3.1549,-2.2245,-2.4452,-2.6791,-2.8697,-3.0223,-3.131,-3.1568,-3.162,-3.1714,-3.1968,-3.1167,-3.0484,-3.0773,-3.0911,-3.1003,-3.1003,-3.2349,-3.3255,-3.2897,-3.3477,-3.3929,-3.3769,-3.4421,-3.4768,-3.4605,-3.5211,-3.5316,-3.464,-3.4576,-3.4282,-3.356,-3.3752,-3.4535,-3.6029,-3.6489,-3.7576,-3.9332,-3.9558,-3.9731,-3.9731,-3.9952,-4.007,-4.007,-3.8486,-3.7531,-3.6951,-3.5973,-3.5504,-3.5504,-3.5504,-3.5504,-3.5504,-3.5504,-3.5504,-3.5504,-3.5504,-3.5504,-3.5504,-3.5504,-3.5504,-3.5554,-3.6054,-3.6228,-3.6228,-3.6228,-3.6228,-3.6117,-3.5619,-3.5504,-3.5504,-3.5504,-3.5504,-3.5504,-3.5504,-3.5504,-3.5213,-3.4245,-3.3775,-3.3345,-3.2395,-3.1698,-3.1483,-3.211,-3.1937,-3.2177,-3.3739,-3.4543,-3.5299,-3.6133,-3.6006,-3.5782,-3.5504,-3.5504,-3.5504,-3.5504,-3.5504,-3.5504,-3.5504,-3.5504,-3.5504,-3.5504,-3.5504,-3.5504,-3.5504,-3.5504,-3.5504,-3.5504,-3.4839,-3.4177,-3.3518,-3.2249,-3.1328,-2.4662,-2.6469,-2.8087,-3.0002,-3.0852,-3.119,-3.119,-3.119,-3.1252,-3.1528,-3.0187,-2.9075,-2.9332,-2.9497,-2.9528,-2.9329,-3.1335,-3.2882,-3.2717,-3.3647,-3.4384,-3.4482,-3.5086,-3.5355,-3.4971,-3.5362,-3.5207,-3.4333,-3.4235,-3.4024,-3.3501,-3.351,-3.4488,-3.6742,-3.703,-3.8106,-4.007,-4.007,-4.007,-4.007,-4.007,-3.9952,-3.961,-3.8635,-3.8035,-3.7764,-3.6477,-3.5894,-3.5894,-3.5619,-3.5504,-3.5504,-3.5504,-3.5504,-3.5504,-3.5504,-3.5504,-3.5504,-3.5504,-3.5668,-3.5943,-3.6446,-3.6783,-3.698,-3.6661,-3.6615,-3.6446,-3.5733,-3.5669,-3.5863,-3.5863,-3.5863,-3.5863,-3.5863,-3.5669,-3.5207,-3.4025,-3.3589,-3.3057,-3.2006,-3.1325,-3.1111,-3.1681,-3.1651,-3.185,-3.2847,-3.3837,-3.4706,-3.5439,-3.5504,-3.5504,-3.5504,-3.5504,-3.5504,-3.5504,-3.5504,-3.5504,-3.5504,-3.5504,-3.5504,-3.5504,-3.5504,-3.5504,-3.5504,-3.5504,-3.5294,-3.4986,-3.4327,-3.3671,-3.2961,-3.1742,-3.1044,-2.6756,-2.7593,-2.8048,-3.0572,-3.119,-3.1134,-3.114,-3.1173,-3.114,-3.0987,-2.9776,-2.873,-2.8541,-2.8989,-2.9122,-2.8509,-3.0733,-3.2424,-3.2213,-3.3097,-3.3983,-3.4482,-3.5015,-3.5373,-3.5582,-3.5622,-3.5068,-3.3735,-3.3633,-3.3588,-3.3562,-3.3531,-3.4528,-3.675,-3.7454,-3.8557,-4.007,-4.007,-4.007,-4.007,-4.007,-3.9731,-3.8962,-3.8854,-3.8469,-3.7748,-3.6919,-3.6554,-3.6492,-3.5782,-3.5439,-3.5424,-3.5424,-3.5359,-3.5359,-3.5359,-3.5359,-3.5359,-3.5439,-3.5943,-3.6554,-3.6676,-3.716,-3.7589,-3.689,-3.6662,-3.6492,-3.5823,-3.6058,-3.6537,-3.6537,-3.6537,-3.6537,-3.6537,-3.6058,-3.5185,-3.3798,-3.35,-3.3098,-3.1703,-3.1436,-3.1411,-3.1361,-3.1667,-3.1764,-3.1259,-3.196,-3.3185,-3.5133,-3.5359,-3.5424,-3.5424,-3.5439,-3.5504,-3.5504,-3.5504,-3.5504,-3.5504,-3.5504,-3.5504,-3.5504,-3.5504,-3.5504,-3.5504,-3.5439,-3.4986,-3.4027,-3.3876,-3.2961,-3.118,-3.118,-3.062,-2.6265,-2.8052,-2.9805,-3.092,-3.0878,-3.0508,-3.042,-3.0801,-3.047,-2.7992,-2.6504,-2.4903,-2.2443,-2.4081,-2.5592,-2.4942,-2.9348,-3.2931,-3.3049,-3.4083,-3.495,-3.5304,-3.545,-3.5518,-3.5605,-3.5622,-3.5253,-3.4431,-3.3887,-3.3794,-3.4229,-3.3773,-3.4758,-3.7444,-3.771,-3.8557,-4.007,-4.007,-4.007,-4.007,-4.007,-4.0003,-3.9782,-3.8596,-3.7978,-3.769,-3.6368,-3.5782,-3.5782,-3.5554,-3.5067,-3.4394,-3.4394,-3.3973,-3.3325,-3.3325,-3.3325,-3.3463,-3.4109,-3.5023,-3.5958,-3.71,-3.7219,-3.7058,-3.7954,-3.7792,-3.7294,-3.7029,-3.7045,-3.718,-3.718,-3.718,-3.718,-3.718,-3.7045,-3.6448,-3.4584,-3.4465,-3.4235,-3.2364,-3.2001,-3.175,-3.0947,-3.0922,-3.0996,-3.1198,-3.1389,-3.196,-3.3185,-3.3973,-3.4394,-3.4394,-3.5052,-3.5504,-3.5504,-3.5504,-3.5504,-3.5504,-3.5504,-3.5504,-3.5504,-3.5504,-3.5504,-3.5504,-3.4758,-3.4245,-3.4027,-3.2593,-3.1669,-3.118,-3.0482,-2.9574,-2.7157,-2.8389,-2.9599,-3.0499,-3.0078,-2.9353,-2.8958,-2.9003,-2.8246,-2.5207,-2.3387,-2.1711,-1.9562,-2.1841,-2.3948,-2.3638,-2.8695,-3.2895,-3.3436,-3.4506,-3.5322,-3.5565,-3.5827,-3.5854,-3.5605,-3.5622,-3.5453,-3.5052,-3.4153,-3.3874,-3.4492,-3.4206,-3.5192,-3.7716,-3.8076,-3.887,-4.007,-4.007,-3.9901,-3.9558,-3.9558,-3.9385,-3.9065,-3.8206,-3.7822,-3.7764,-3.6523,-3.6006,-3.5943,-3.5169,-3.4543,-3.3959,-3.3518,-3.3199,-3.2922,-3.2922,-3.2922,-3.2994,-3.3564,-3.3982,-3.4624,-3.6925,-3.766,-3.7741,-3.8511,-3.8404,-3.7843,-3.6981,-3.7253,-3.7754,-3.7234,-3.746,-3.7838,-3.7838,-3.7253,-3.6372,-3.5063,-3.4708,-3.418,-3.2866,-3.2591,-3.224,-3.1148,-3.0947,-3.083,-3.0598,-3.0558,-3.0771,-3.1267,-3.2536,-3.338,-3.338,-3.3891,-3.4206,-3.4206,-3.4206,-3.4206,-3.4206,-3.4206,-3.4206,-3.4206,-3.4206,-3.4206,-3.4206,-3.3671,-3.3171,-3.2749,-3.1669,-3.097,-3.0558,-2.9561,-2.8688,-2.8395,-2.8469,-2.8362,-2.9525,-2.9042,-2.803,-2.7097,-2.6559,-2.5427,-2.2443,-2.0495,-1.9044,-1.8134,-2.0703,-2.3082,-2.3358,-2.8221,-3.2261,-3.3205,-3.4404,-3.5282,-3.5431,-3.5968,-3.6097,-3.5667,-3.5622,-3.556,-3.547,-3.4382,-3.3985,-3.4607,-3.4558,-3.5471,-3.76,-3.8469,-3.9209,-3.9799,-3.9782,-3.9437,-3.8745,-3.8745,-3.8414,-3.7822,-3.769,-3.7632,-3.7573,-3.6798,-3.6446,-3.6322,-3.4684,-3.3945,-3.3754,-3.2832,-3.2759,-3.3077,-3.3071,-3.3057,-3.3077,-3.3137,-3.2887,-3.2946,-3.62,-3.7701,-3.8166,-3.8348,-3.8335,-3.7901,-3.6331,-3.6968,-3.778,-3.6849,-3.7244,-3.789,-3.789,-3.6793,-3.5591,-3.5217,-3.4153,-3.3251,-3.2955,-3.2711,-3.229,-3.1415,-3.1178,-3.0885,-3.0055,-2.9842,-2.9792,-2.9792,-3.1341,-3.2393,-3.2393,-3.2522,-3.2593,-3.2593,-3.2593,-3.2593,-3.2593,-3.2593,-3.2593,-3.2593,-3.2593,-3.2593,-3.2593,-3.2533,-3.2155,-3.1286,-3.1228,-3.0725,-2.9646,-2.8706,-2.7983,-2.7908,-2.775,-2.7615,-2.8362,-2.8114,-2.7174,-2.5244,-2.519,-2.4209,-1.9369,-1.814,-1.7274,-1.5049,-1.7722,-2.0636,-2.1792,-2.6471,-3.0425,-3.1692,-3.351,-3.4712,-3.4767,-3.5328,-3.5694,-3.5622,-3.5622,-3.5362,-3.4847,-3.4588,-3.4707,-3.5403,-3.434,-3.4668,-3.6751,-3.8173,-3.869,-3.8206,-3.8206,-3.8149,-3.7978,-3.7978,-3.7921,-3.7764,-3.7084,-3.6783,-3.6798,-3.6006,-3.5668,-3.5589,-3.4447,-3.3518,-3.2791,-3.228,-3.1666,-3.1174,-3.1621,-3.1506,-3.1188,-3.1974,-3.188,-3.1874,-3.4736,-3.5285,-3.5156,-3.6806,-3.6828,-3.636,-3.6157,-3.6018,-3.5891,-3.5725,-3.5423,-3.5282,-3.5282,-3.505,-3.4685,-3.4191,-3.2789,-3.1632,-3.1565,-3.0687,-3.0131,-3.0501,-3.0205,-3.007,-3.0398,-3.008,-2.9792,-2.9792,-3.0771,-3.1462,-3.1462,-3.2177,-3.2593,-3.2593,-3.2593,-3.2593,-3.2593,-3.2593,-3.2593,-3.2593,-3.2593,-3.2593,-3.2593,-3.23,-3.2031,-3.1893,-3.1549,-3.0592,-2.9076,-2.8819,-2.7577,-2.6866,-2.6324,-2.6027,-2.6976,-2.6855,-2.5876,-2.3443,-2.2912,-2.1548,-1.6591,-1.5314,-1.4725,-1.3509,-1.6165,-1.9122,-2.0852,-2.5552,-2.946,-3.0858,-3.2789,-3.4087,-3.4087,-3.4333,-3.456,-3.456,-3.456,-3.4546,-3.4607,-3.4218,-3.4345,-3.4996,-3.5089,-3.5767,-3.7188,-3.7962,-3.8149,-3.7806,-3.7822,-3.7573,-3.716,-3.716,-3.698,-3.66,-3.618,-3.6054,-3.6006,-3.5668,-3.5213,-3.461,-3.3671,-3.2858,-3.224,-3.1512,-3.1309,-3.1474,-3.1725,-3.1486,-3.109,-3.1519,-3.1112,-3.081,-3.2883,-3.3649,-3.4016,-3.5325,-3.5495,-3.5092,-3.4671,-3.4785,-3.4886,-3.4272,-3.4361,-3.4594,-3.4594,-3.4375,-3.3806,-3.2371,-3.1601,-3.1033,-3.0406,-2.9772,-2.9432,-2.947,-2.9793,-2.9977,-2.9703,-2.996,-3.0118,-2.9829,-3.0216,-3.0482,-3.0482,-3.0846,-3.1132,-3.1132,-3.1132,-3.1132,-3.1132,-3.1132,-3.1132,-3.1132,-3.1422,-3.158,-3.158,-3.1604,-3.1401,-3.0723,-3.0544,-2.9559,-2.7957,-2.7629,-2.6485,-2.5928,-2.5221,-2.4636,-2.5631,-2.5759,-2.4837,-2.1861,-2.0837,-1.9226,-1.471,-1.3151,-1.2681,-1.2966,-1.5206,-1.7749,-2.0124,-2.4191,-2.7747,-2.9672,-3.1563,-3.2883,-3.3328,-3.3479,-3.3582,-3.3582,-3.3726,-3.3994,-3.4324,-3.3939,-3.394,-3.4478,-3.5828,-3.6798,-3.7294,-3.7456,-3.7456,-3.7294,-3.7294,-3.6995,-3.6384,-3.6384,-3.6054,-3.5504,-3.5504,-3.5504,-3.5504,-3.5504,-3.492,-3.3959,-3.31,-3.2494,-3.1924,-3.1233,-3.1474,-3.2227,-3.2353,-3.2039,-3.1562,-3.1562,-3.0934,-3.035,-3.1487,-3.2511,-3.3422,-3.419,-3.4423,-3.4222,-3.3278,-3.3434,-3.3684,-3.2856,-3.3125,-3.3574,-3.3428,-3.2949,-3.2092,-3.039,-3.0225,-3.0135,-2.9223,-2.8762,-2.8549,-2.8451,-2.9092,-2.9416,-2.8677,-2.9316,-2.9733,-2.944,-2.9209,-2.9209,-2.9443,-2.9624,-2.9792,-2.9792,-2.9792,-2.9792,-2.9792,-2.9534,-2.9506,-2.9617,-2.9788,-2.9898,-3.0008,-3.0523,-3.035,-2.9394,-2.9511,-2.8689,-2.7008,-2.653,-2.5722,-2.5707,-2.5221,-2.4446,-2.4549,-2.5116,-2.4582,-2.0738,-1.9816,-1.8642,-1.4633,-1.2777,-1.2269,-1.3496,-1.4446,-1.6111,-1.9271,-2.1205,-2.3628,-2.7372,-2.9089,-3.0631,-3.2462,-3.3251,-3.3582,-3.3582,-3.4158,-3.4238,-3.3643,-3.4106,-3.4433,-3.4493,-3.5861,-3.6337,-3.5733,-3.6337,-3.6399,-3.5748,-3.5748,-3.5683,-3.5619,-3.5619,-3.5569,-3.5504,-3.5504,-3.5504,-3.5504,-3.5504,-3.492,-3.3988,-3.3475,-3.2786,-3.199,-3.2059,-3.2127,-3.2277,-3.2805,-3.2629,-3.2139,-3.2139,-3.1738,-3.1248,-3.1367,-3.1797,-3.2326,-3.3463,-3.3807,-3.3684,-3.3178,-3.2427,-3.1699,-3.1549,-3.0896,-3.0108,-2.9484,-2.889,-2.8532,-2.8744,-2.8342,-2.7861,-2.7767,-2.6849,-2.637,-2.7537,-2.7345,-2.7233,-2.7852,-2.7651,-2.7595,-2.8167,-2.7371,-2.7209,-2.8176,-2.9197,-2.9792,-2.9792,-2.9792,-2.9792,-2.9792,-2.8858,-2.8482,-2.8879,-2.7934,-2.7572,-2.7925,-2.8519,-2.8778,-2.8689,-2.9139,-2.8572,-2.6943,-2.6894,-2.6013,-2.4798,-2.4782,-2.4544,-2.4544,-2.4747,-2.4193,-2.1021,-1.9675,-1.8194,-1.5052,-1.366,-1.3301,-1.4229,-1.4618,-1.5605,-1.8104,-1.9959,-2.1799,-2.3759,-2.6574,-2.8677,-2.9498,-3.1221,-3.2505,-3.2921,-3.351,-3.3977,-3.4091,-3.4736,-3.51,-3.51,-3.5631,-3.5782,-3.5504,-3.5782,-3.5782,-3.5504,-3.5504,-3.5504,-3.5504,-3.5504,-3.5504,-3.5504,-3.5504,-3.5504,-3.5504,-3.5504,-3.492,-3.4002,-3.3545,-3.3057,-3.2489,-3.2301,-3.2428,-3.2754,-3.2993,-3.2717,-3.2215,-3.2215,-3.1851,-3.1449,-3.1775,-3.1959,-3.2107,-3.2316,-3.2354,-3.2311,-3.2155,-3.1738,-3.121,-3.0526,-2.9213,-2.8128,-2.7816,-2.7827,-2.78,-2.7489,-2.7522,-2.741,-2.6572,-2.6014,-2.583,-2.639,-2.6876,-2.7146,-2.6836,-2.725,-2.7431,-2.7149,-2.6801,-2.6637,-2.7128,-2.7545,-2.7799,-2.7799,-2.7799,-2.7799,-2.7799,-2.7661,-2.7573,-2.7779,-2.7933,-2.8087,-2.8277,-2.8768,-2.8752,-2.8039,-2.8222,-2.7431,-2.5802,-2.5802,-2.5282,-2.4055,-2.4508,-2.4627,-2.4821,-2.4731,-2.3895,-2.1321,-1.9675,-1.7954,-1.5336,-1.4274,-1.4004,-1.4677,-1.4797,-1.5441,-1.7369,-1.8877,-2.0333,-2.1784,-2.4373,-2.6333,-2.6916,-2.8816,-3.0492,-3.1554,-3.2688,-3.352,-3.3944,-3.464,-3.5067,-3.5067,-3.5359,-3.5504,-3.5504,-3.5504,-3.5504,-3.5504,-3.5504,-3.5504,-3.5504,-3.5504,-3.5504,-3.5504,-3.5213,-3.5213,-3.5439,-3.492,-3.4259,-3.3589,-3.3289,-3.2898,-3.2367,-3.2415,-3.2717,-3.3081,-3.3081,-3.2817,-3.2466,-3.2466,-3.2215,-3.1951,-3.234,-3.2466,-3.2403,-3.2001,-3.1888,-3.1888,-3.1888,-3.1502,-3.0817,-2.9435,-2.7929,-2.6856,-2.6987,-2.7019,-2.695,-2.6527,-2.6709,-2.6754,-2.583,-2.5742,-2.5742,-2.5742,-2.6476,-2.6773,-2.59,-2.6446,-2.6671,-2.6209,-2.5812,-2.5641,-2.5975,-2.5855,-2.5888,-2.6494,-2.6606,-2.6696,-2.6696,-2.672,-2.6878,-2.702,-2.7331,-2.7661,-2.7721,-2.8136,-2.7851,-2.703,-2.6896,-2.6293,-2.5068,-2.5205,-2.5166,-2.3727,-2.4508,-2.4746,-2.5435,-2.5106,-2.3895,-2.1321,-1.9675,-1.7954,-1.5336,-1.4274,-1.4004,-1.4677,-1.4797,-1.5441,-1.7369,-1.7712,-1.8912,-2.2203,-2.2739,-2.3445,-2.539,-2.6228,-2.7425,-2.9415,-3.174,-3.2947,-3.2623,-3.3518,-3.4027,-3.4027,-3.4986,-3.5504,-3.5504,-3.5504,-3.5504,-3.5504,-3.5504,-3.5504,-3.5504,-3.5504,-3.5504,-3.5439,-3.4461,-3.4543,-3.5359,-3.3463,-3.2593,-3.2618,-3.2791,-3.229,-3.1499,-3.2629,-3.3068,-3.3081,-3.3081,-3.3081,-3.3068,-3.3068,-3.3068,-3.3056,-3.3068,-3.3068,-3.3068,-3.3056,-3.3056,-3.3056,-3.3056,-3.1835,-2.995,-2.8215,-2.6875,-2.6219,-2.6576,-2.5876,-2.5281,-2.5635,-2.5732,-2.5742,-2.5742,-2.5742,-2.5742,-2.5742,-2.5732,-2.5586,-2.5127,-2.4697,-2.4695,-2.53,-2.4082,-2.3551,-2.4702,-2.4193,-2.4547,-2.6351,-2.6825,-2.7104,-2.7104,-2.6451,-2.6302,-2.666,-2.5698,-2.5273,-2.5723,-2.5732,-2.5732,-2.5732,-2.5293,-2.5068,-2.5078,-2.5527,-2.5957,-2.1538,-2.2234,-2.2562,-2.2323,-2.2113,-2.15,-1.9735,-1.8672,-1.7535,-1.5844,-1.5319,-1.5244,-1.5454,-1.5484,-1.6114,-1.8074,-1.8388,-1.8912,-2.0423,-2.2966,-2.4911,-2.554,-2.8811,-3.1195,-3.1608,-3.2314,-3.2681,-3.2579,-3.289,-3.3031,-3.3031,-3.3959,-3.4758,-3.5504,-3.5504,-3.5504,-3.5504,-3.5504,-3.5504,-3.5504,-3.5504,-3.5133,-3.4461,-3.4177,-3.3808,-3.3463,-3.289,-3.2593,-3.2618,-3.2715,-3.2594,-3.2419,-3.287,-3.3081,-3.3081,-3.3081,-3.3081,-3.3081,-3.3081,-3.3081,-3.3081,-3.3081,-3.3081,-3.2982,-3.2052,-3.2426,-3.2884,-3.2052,-3.0201,-2.825,-2.7409,-2.6299,-2.5445,-2.5585,-2.5342,-2.5195,-2.5644,-2.5742,-2.5742,-2.5742,-2.5742,-2.5742,-2.5742,-2.5742,-2.5586,-2.5137,-2.4951,-2.4785,-2.4406,-2.4087,-2.3987,-2.4117,-2.4136,-2.4187,-2.4206,-2.4553,-2.4808,-2.4808,-2.4887,-2.5155,-2.5595,-2.5543,-2.5596,-2.5742,-2.5742,-2.5742,-2.5742,-2.5596,-2.5371,-2.5078,-2.5527,-2.5644,-2.0318,-2.1201,-2.1665,-2.15,-2.1081,-2.0363,-1.9016,-1.7981,-1.7025,-1.6023,-1.5799,-1.5799,-1.5799,-1.5589,-1.5964,-1.7652,-1.7936,-1.8553,-2.0213,-2.2505,-2.4356,-2.5257,-2.9289,-3.1683,-3.1045,-3.1924,-3.2321,-3.1623,-3.1888,-3.2105,-3.2105,-3.2961,-3.3891,-3.4905,-3.5279,-3.5504,-3.5504,-3.5504,-3.5504,-3.5504,-3.5504,-3.4986,-3.4027,-3.3602,-3.3171,-3.2522,-3.1829,-3.1756,0.0,-3.2201,-3.2303,-3.2339,-3.287,-3.3081,-3.3068,-3.2525,-3.2426,-3.2339,-3.1877,-3.1689,-3.1689,-3.1689,-3.1689,-3.1601,-3.0777,-3.1045,-3.1424,-3.0226,-2.8773,-2.7432,-2.6681,-2.5874,-2.5322,-2.5322,-2.5322,-2.54,-2.5674,-2.5742,-2.5538,-2.502,-2.5333,-2.5586,-2.522,-2.5573,-2.5937,-2.582,-2.5149,-2.4553,-2.3937,-2.3428,-2.2911,-2.2665,-2.2951,-2.3028,-2.2843,-2.3741,-2.4268,-2.4268,-2.4678,-2.5039,-2.5303,-2.5586,-2.5742,-2.5742,-2.5742,-2.5742,-2.5742,-2.5742,-2.5762,-2.5801,-2.5762,-2.5762,0.0,-2.0872,-2.1485,-2.2039,-2.1306,-2.0094,-1.8792,-1.7548,0.0,-1.5933,-1.5799,-1.5814,-1.5858,-1.5334,-1.5321,-1.6697,-1.6921,-1.8071,-2.1287,-2.1859,-2.2782,-2.5051,-2.8268,-2.9778,-2.8481,-3.0831,-3.1696,-2.9934,-3.062,-3.1106,-3.1106,-3.196,-3.289,-3.3739,-3.4773,-3.5359,-3.5504,-3.5504,-3.5504,-3.5504,-3.5439,-3.4839,-3.3876,-3.2961,-3.2464,-3.2321,-3.057,-3.0305,-3.1189,-3.1322,-3.1411,-3.1562,-3.2654,-3.3068,-3.2797,-3.1677,-3.1134,-3.0944,-2.9772,-2.9407,-2.9407,-2.9407,-2.9315,-2.9315,-2.9315,-2.9315,-2.9039,-2.7955,-2.7494,-2.722,-2.6014,-2.5742,-2.5742,-2.5742,-2.5742,-2.5742,-2.5742,-2.5635,-2.5226,-2.389,-2.4637,-2.5191,-2.4408,-2.5346,-2.6452,-2.6749,-2.5293,-2.4092,-2.3963,-2.2206,-2.0875,-2.085,-2.0941,-2.1399,-2.2238,-2.3975,-2.4964,-2.5068,-2.5459,-2.5703,-2.5742,-2.5742,-2.5742,-2.5742,-2.5762,-2.5781,-2.5781,-2.581,-2.6221,-2.6953,-2.6152,-2.6191,-1.7204,0.0,-1.7787,-1.7522,-1.7535,-1.7428,0.0,-1.6608,-1.6532,-1.5933,-1.5799,-1.5948,-1.6383,-1.5979,-1.6323,-1.8612,-1.8986,-1.9738,-2.1932,-2.525,-2.7997,-2.9458,-3.1026,-3.1419,-2.9868,-3.0128,-3.0292,-2.9869,-2.9998,-3.0139,-3.0139,-3.1044,-3.1609,-3.1815,-3.2749,-3.3973,-3.5504,-3.5504,-3.5504,-3.5504,-3.4691,-3.3822,-3.289,-3.196,-3.1119,-3.0419,-3.0011,-3.0173,-3.076,-3.1191,-3.1637,-3.2089,-3.2805,-3.2513,-3.1589,-3.1311,-3.0586,-2.9761,-2.9498,-2.9407,-2.9407,-2.9407,-2.8773,-2.8038,-2.8038,-2.8038,-2.7955,-2.7683,-2.6945,-2.611,-2.5732,-2.5742,-2.5742,-2.5742,-2.5742,-2.5742,-2.5742,-2.4913,-2.4097,-2.3791,-2.3331,-2.3245,-2.4149,-2.4838,-2.5188,-2.528,-2.4896,-2.4094,-2.2557,-2.2064,-2.1636,-2.135,-2.1418,-2.1586,-2.1811,-2.2912,-2.3982,-2.5059,-2.5166,-2.5381,-2.5723,-2.5742,-2.5742,-2.5742,-2.6064,-2.624,-2.624,-2.6562,-2.665,-2.6533,-2.6328,-2.6162,-1.5173,-1.6249,-1.707,-1.6757,-1.6906,-1.6995,-1.6368,-1.6263,-1.6189,-1.5873,-1.5799,-1.5964,-1.6592,-1.6623,-1.6972,-1.8238,-1.9497,-2.1088,-2.3193,-2.6414,-2.8834,-2.9645,-3.0823,-3.1208,-3.0106,-3.0302,-3.0279,-2.9869,-2.9792,-2.9792,-2.9792,-3.0279,-3.0771,-3.118,-3.1669,-3.289,-3.4758,-3.4839,-3.4839,-3.4839,-3.4245,-3.331,-3.196,-3.1462,-3.0696,-2.9804,-3.0068,-3.0331,-3.067,-3.1449,-3.1593,-3.1467,-3.2019,-3.15,-3.0316,-2.9772,-2.9131,-2.8495,-2.7945,-2.7662,-2.7662,-2.7662,-2.7305,-2.6764,-2.6764,-2.6764,-2.6764,-2.6764,-2.6197,-2.5742,-2.5742,-2.5742,-2.5742,-2.5742,-2.5742,-2.5538,-2.4913,-2.4196,-2.3338,-2.2291,-2.2072,-2.2215,-2.2731,-2.3496,-2.4127,-2.43,-2.3778,-2.2944,-2.1899,-2.1101,-2.0517,-2.0323,-2.0136,-2.0261,-2.0877,-2.1871,-2.2957,-2.4359,-2.5073,-2.5488,-2.5723,-2.5742,-2.5742,-2.5742,-2.6162,-2.6484,-2.668,-2.6904,-2.7002,-2.6963,-2.6572,-2.626,-1.4019,-1.5949,-1.7742,-1.7275,-1.7319,-1.7272,-1.6619,-1.607,-1.5712,-1.5799,-1.5873,-1.6174,-1.6971,-1.7346,-1.7636,-1.787,-2.0007,-2.2537,-2.4912,-2.6841,-2.8098,-2.8464,-2.9725,-3.0372,-2.991,-3.0581,-3.062,-2.9869,-2.9792,-2.9792,-2.9792,-2.9792,-3.0139,-3.097,-3.097,-3.1829,-3.3533,-3.3739,-3.3808,-3.3808,-3.3671,-3.2749,-3.118,-3.1123,-3.0687,-2.9942,-3.0495,-3.0783,-3.0922,-3.166,-3.1369,-3.0517,-3.0868,-3.0226,-2.9039,-2.7955,-2.7494,-2.7125,-2.611,-2.5742,-2.5742,-2.5742,-2.5742,-2.5742,-2.5742,-2.5742,-2.5742,-2.5742,-2.5742,-2.5742,-2.5742,-2.5742,-2.5742,-2.5742,-2.5538,-2.5118,-2.4196,-2.3484,-2.2578,-2.079,-2.1012,-2.1451,-2.1201,-2.2127,-2.3035,-2.3446,-2.2371,-2.1472,-2.1252,-1.9877,-1.8925,-1.8925,-1.8397,-1.8569,-2.0022,-2.1091,-2.2299,-2.3502,-2.4884,-2.5742,-2.5742,-2.5674,-2.5703,-2.583,-2.6133,-2.6533,-2.7012,-2.7012,-2.7168,-2.7461,-2.6797,-2.6455,-1.5034,-1.6982,-1.79,-1.53,-1.55,-1.6184,-1.5484,-1.5267,-1.5329,-1.5712,-1.6219,-1.7057,-1.8684,-1.83,-1.8778,-2.1896,-2.3539,-2.5102,-2.7074,-2.8398,-2.9449,-3.0105,-3.0748,-3.0829,-3.0215,-3.0061,-2.9934,-2.9792,-2.9792,-2.9792,-2.9792,-2.9792,-2.9869,-2.9998,-2.9998,-3.0558,-3.1609,-3.2393,-3.282,-3.282,-3.2033,-3.1462,-3.1193,-3.0842,-3.0628,-3.052,-3.1047,-3.1537,-3.1893,-3.1004,-3.0787,-3.1015,-3.0011,-2.8947,-2.7861,-2.7683,-2.6945,-2.5917,-2.5732,-2.5742,-2.5742,-2.5742,-2.5742,-2.5742,-2.5742,-2.5742,-2.5742,-2.5742,-2.5742,-2.5742,-2.5742,-2.5742,-2.5742,-2.5742,-2.4815,-2.4304,-2.5226,-2.2676,-2.0545,-2.1627,-2.036,-1.9491,-2.0914,-2.1541,-2.1866,-2.1911,-2.1692,-2.1145,-1.9924,-1.9219,-1.8925,-1.8925,-1.8397,-1.8569,-2.0022,-2.1434,-2.2477,-2.3028,-2.4723,-2.5742,-2.5742,-2.5371,-2.5527,-2.6279,-2.5986,-2.623,-2.7012,-2.7012,-2.6865,-2.6592,-2.6816,-2.6728,-1.34,-1.5067,-1.6261,-1.4921,-1.7071,-1.9333,-1.8599,-1.8369,-1.8133,-1.7472,-1.7523,-1.8096,-1.9308,-1.9598,-2.0858,-2.4492,-2.4715,-2.5162,-2.7249,-2.7954,-2.8621,-2.9575,-2.9831,-2.9969,-2.9945,-2.9846,-2.9792,-2.9792,-2.9792,-2.9792,-2.9792,-2.9792,-2.9792,-2.9792,-2.9792,-2.9998,-3.0419,-3.1146,-3.1646,-3.1829,-3.1708,-3.1365,-3.0894,-3.101,-3.1035,-3.106,-3.0901,-3.1016,-3.1174,-3.0208,-2.9647,-2.9223,-2.868,-2.7673,-2.6572,-2.6572,-2.6197,-2.5742,-2.5742,-2.5742,-2.5742,-2.5742,-2.5742,-2.5742,-2.5742,-2.5742,-2.5742,-2.5742,-2.5742,-2.5742,-2.5742,-2.5742,-2.5742,-2.5742,-2.4707,-2.3683,-2.3583,-2.1456,-1.968,-2.0093,-1.9255,-1.8847,-1.9962,-2.0273,-2.0364,-2.0364,-2.0364,-2.0148,-1.9482,-1.9112,-1.8925,-1.8925,-1.8397,-1.8631,-2.0267,-2.141,-2.2687,-2.4347,-2.4775,-2.5029,-2.5029,-2.5049,-2.5254,-2.5664,-2.5947,-2.6289,-2.668,-2.668,-2.6572,-2.6396,-2.6592,-2.6572,-1.2418,-1.3789,-1.5184,-1.5523,-1.8299,-2.0937,-2.0914,-2.0603,-2.0113,-1.9337,-1.9327,-1.9553,-2.0099,-2.1284,-2.2967,-2.534,-2.5241,-2.5431,-2.7264,-2.7595,-2.8034,-2.9013,-2.9126,-2.9302,-2.9754,-2.9792,-2.9792,-2.9792,-2.9792,-2.9842,-2.998,-2.998,-2.998,-2.998,-3.0105,-3.0043,-2.9792,-3.047,-3.0877,-3.1042,-3.1602,-3.1512,-3.0821,-3.1078,-3.115,-3.1091,-3.0489,-3.0179,-3.0115,-2.9341,-2.8402,-2.7589,-2.7315,-2.6572,-2.5742,-2.5742,-2.5742,-2.5742,-2.5742,-2.5742,-2.5742,-2.5742,-2.5742,-2.5742,-2.5742,-2.5742,-2.5742,-2.5742,-2.5742,-2.5635,-2.5323,-2.5226,-2.5128,-2.4815,-2.3692,-2.2567,-2.1853,-2.0403,-1.9197,-1.9022,-1.8759,-1.8758,-1.9279,-1.9366,-1.9366,-1.9366,-1.9366,-1.9366,-1.9366,-1.9112,-1.8951,-1.9018,-1.8823,-1.9499,-2.154,-2.2195,-2.3377,-2.5528,-2.5098,-2.4727,-2.4727,-2.4941,-2.5166,-2.5371,-2.584,-2.6182,-2.6387,-2.6289,-2.624,-2.624,-2.6445,-2.6533,-1.427,-1.5286,-1.6243,-1.7178,-1.6957,-1.71,-1.9225,-1.8844,-1.86,-2.0509,-2.143,-2.188,-2.1916,-2.3498,-2.4476,-2.3523,-2.5614,-2.753,-2.7943,-2.8486,-2.9038,-2.9654,-2.9729,-2.9741,-2.9792,-2.9792,-2.9792,-2.9792,-2.9792,-3.0018,-3.0532,-3.0557,-3.0557,-3.0557,-3.1022,-3.0796,-2.9804,-3.0821,-3.1153,-3.0637,-3.1153,-3.1417,-3.1348,-3.0761,-3.0465,-3.0414,-2.977,-2.9442,-2.9362,-2.8215,-2.7683,-2.7494,-2.6294,-2.5732,-2.5742,-2.5742,-2.5742,-2.5742,-2.5742,-2.5742,-2.5742,-2.5742,-2.5742,-2.5742,-2.5742,-2.5742,-2.5742,-2.5742,-2.5742,-2.543,-2.4196,-2.3791,-2.3484,-2.2257,-2.0947,-2.0238,-2.1448,-1.9769,-1.8523,-2.0012,-1.957,-1.8991,-1.9312,-1.9366,-1.9366,-1.9366,-1.9366,-1.9366,-1.9366,-1.9112,-1.9032,-1.9305,-2.0107,-2.164,-2.4437,-2.482,-2.5092,-2.5616,-2.5684,-2.5644,-2.5644,-2.5273,-2.5449,-2.6279,-2.5547,-2.5566,-2.6387,-2.5977,-2.5781,-2.5801,-2.6602,-2.6973,-1.2792,-1.4326,-1.5976,-1.6789,-1.7082,-1.7948,-2.1015,-2.1943,-2.2179,-2.2317,-2.2827,-2.3071,-2.2356,-2.4274,-2.5702,-2.4822,-2.6511,-2.8079,-2.8511,-2.9114,-2.9553,-2.9767,-2.9792,-2.9792,-2.9792,-2.9792,-2.9792,-2.9792,-2.9792,-3.003,-3.0583,-3.0281,-3.0269,-3.0608,-3.0809,-3.0721,-3.0306,-3.1373,-3.18,-3.1612,-3.18,-3.1725,-3.1424,-3.1076,-3.0925,-3.0837,-2.9054,-2.8319,-2.8132,-2.6935,-2.639,-2.639,-2.5927,-2.5742,-2.5742,-2.5742,-2.5742,-2.5742,-2.5742,-2.5742,-2.5742,-2.5742,-2.5742,-2.5742,-2.5742,-2.5742,-2.5538,-2.4707,-2.451,-2.4304,-2.3791,-2.3692,-2.3384,-2.2055,-2.0641,-1.9783,-2.0508,-1.9312,-1.8292,-1.9306,-1.9169,-1.9018,-1.9319,-1.9366,-1.9366,-1.9366,-1.9366,-1.9366,-1.9366,-1.9112,-1.9292,-2.0394,-2.2172,-2.3704,-2.4512,-2.5429,-2.584,-2.5742,-2.5225,-2.4912,-2.4912,-2.5019,-2.5225,-2.5566,-2.5508,-2.5644,-2.5986,-2.6094,-2.6143,-2.6162,-2.7021,-2.7422,-1.276,-1.4093,-1.5839,-1.7129,-1.769,-1.8879,-2.246,-2.3495,-2.3793,-2.4129,-2.4092,-2.3816,-2.3213,-2.4657,-2.5862,-2.5636,-2.7155,-2.8499,-2.8875,-2.9428,-2.9792,-2.9792,-2.9792,-2.9792,-2.9792,-2.9792,-2.9792,-2.9792,-2.9792,-3.003,-3.0583,-3.0419,-3.047,-3.0846,-3.1198,-3.1223,-3.0871,-3.158,-3.1674,-3.1341,-3.1333,-3.1296,-3.1316,-3.0449,-3.0033,-2.9943,-2.7851,-2.703,-2.6945,-2.611,-2.5742,-2.5742,-2.5742,-2.5742,-2.5742,-2.5742,-2.5742,-2.5742,-2.5742,-2.5742,-2.5742,-2.5742,-2.543,-2.5118,-2.5118,-2.4815,-2.4205,-2.3285,-2.3076,-2.2976,-2.2567,-2.2366,-2.2064,-2.0735,-1.962,-1.9002,-1.9326,-1.8746,-1.8337,-1.8831,-1.8998,-1.9125,-1.9332,-1.9366,-1.9366,-1.9366,-1.9366,-1.9366,-1.9366,-1.9112,-1.9689,-2.1647,-2.3806,-2.5099,-2.5127,-2.5925,-2.6201,-2.5762,-2.5166,-2.4834,-2.4834,-2.5117,-2.5283,-2.5283,-2.5586,-2.5801,-2.5947,-2.624,-2.6455,-2.6602,-2.7324,-2.7666,-1.4816,-1.5025,-1.6062,-1.8618,-1.8747,-1.9192,-2.2946,-2.2532,-2.233,-2.5794,-2.5146,-2.418,-2.472,-2.4833,-2.5008,-2.5523,-2.7469,-2.8925,-2.8938,-2.9428,-2.9792,-2.9792,-2.9792,-2.9792,-2.9792,-2.9792,-2.9792,-2.9792,-2.9792,-3.0043,-3.0595,-3.111,-3.1386,-3.1399,-3.2478,-3.2528,-3.1399,-3.1233,-3.07,-2.9604,-2.9475,-3.0033,-3.1122,-2.868,-2.7589,-2.7494,-2.6294,-2.5742,-2.5742,-2.5742,-2.5742,-2.5742,-2.5742,-2.5742,-2.5742,-2.5742,-2.5742,-2.5742,-2.5645,-2.5635,-2.5635,-2.5645,-2.4716,-2.3692,-2.3692,-2.2767,-2.1752,-2.1651,-2.1651,-2.1347,-1.993,-1.9627,-1.922,-1.7891,-1.7582,-1.7669,-1.7983,-1.8283,-1.8577,-1.8871,-1.9165,-1.9366,-1.9366,-1.9366,-1.9366,-1.9366,-1.9366,-1.9366,-1.9366,-1.9105,-2.0131,-2.3075,-2.4584,-2.5835,-2.6948,-2.6631,-2.6211,-2.5781,-2.5752,-2.5742,-2.5742,-2.5742,-2.5742,-2.5742,-2.5752,-2.5967,-2.6396,-2.6396,-2.6621,-2.7031,-2.7471,-2.7676,-1.2103,-1.4318,-1.7196,-1.7558,-1.9708,-2.2158,-2.4072,-2.4092,-2.4296,-2.611,-2.5749,-2.5059,-2.4858,-2.5774,-2.6477,-2.6239,-2.7733,-2.9063,-2.9478,-2.9679,-2.9792,-2.9792,-2.9792,-2.9792,-2.9792,-2.9792,-2.9792,-2.9792,-2.9792,-3.0193,-3.111,-3.0959,-3.1185,-3.1951,-3.229,-3.1868,-3.0737,-3.1065,-3.0613,-2.942,-2.8549,-2.8598,-2.9351,-2.8168,-2.7589,-2.7494,-2.6294,-2.5742,-2.5742,-2.5742,-2.5742,-2.5742,-2.5742,-2.5742,-2.5742,-2.5742,-2.5742,-2.5538,-2.4609,-2.4304,-2.4097,-2.3176,-2.2667,-2.2257,-2.2257,-2.2055,-2.1448,-2.0538,-2.0231,-1.993,-1.8506,-1.8199,-1.8094,-1.7687,-1.7582,-1.7722,-1.8243,-1.843,-1.8637,-1.9138,-1.9305,-1.9366,-1.9366,-1.9366,-1.9366,-1.9366,-1.9366,-1.9366,-1.9366,-2.1072,-2.2672,-2.3554,-2.5631,-2.717,-2.748,-2.708,-2.6777,-2.6641,-2.6641,-2.6367,-2.5762,-2.6035,-2.6191,-2.6191,-2.6484,-2.6699,-2.6826,-2.7139,-2.7353,-2.748,-2.791,-2.8105,-1.397,-1.6402,-1.9131,-1.9934,-2.1613,-2.3513,-2.5103,-2.5461,-2.5691,-2.6388,-2.6,-2.5636,-2.5774,-2.6615,-2.7318,-2.7419,-2.8473,-2.939,-2.9741,-2.9792,-2.9792,-2.9792,-2.9792,-2.9792,-2.9792,-2.9792,-2.9792,-2.9792,-2.9792,-3.0168,-3.1035,-3.0555,-3.063,-3.1478,-3.1271,-3.0747,-3.0032,-2.9896,-2.9407,-2.868,-2.74,-2.7076,-2.7437,-2.6991,-2.6849,-2.6754,-2.6014,-2.5742,-2.5742,-2.5742,-2.5742,-2.5742,-2.5742,-2.5333,-2.4922,-2.4922,-2.4609,-2.3998,-2.3176,-2.2876,-2.2767,-2.1954,-2.1347,-2.0845,-2.0845,-2.0531,-1.9952,-1.9165,-1.8998,-1.8801,-1.7975,-1.7769,-1.7736,-1.7609,-1.7582,-1.7716,-1.821,-1.831,-1.845,-1.8931,-1.9112,-1.9192,-1.9192,-1.9292,-1.9366,-1.9366,-1.9366,-1.9366,-1.9366,-2.1934,-2.3822,-2.3822,-2.6289,-2.7851,-2.7676,-2.7422,-2.7129,-2.6787,-2.6768,-2.6455,-2.5762,-2.6318,-2.6641,-2.6641,-2.6885,-2.71,-2.7275,-2.7539,-2.7754,-2.792,-2.8174,-2.795,-1.8093,-1.9686,-2.1343,-2.3891,-2.3979,-2.3966,-2.6,-2.6533,-2.6533,-2.6533,-2.6076,-2.6063,-2.7092,-2.7369,-2.7758,-2.8762,-2.9415,-2.9792,-2.9792,-2.9792,-2.9792,-2.9792,-2.9792,-2.9792,-2.9792,-2.9792,-2.9792,-2.9624,-2.9624,-2.9861,-3.0411,-2.9854,-2.977,-3.0426,-2.9825,-2.9454,-2.9223,-2.8132,-2.7494,-2.74,-2.6294,-2.5742,-2.5742,-2.5742,-2.5742,-2.5742,-2.5742,-2.5742,-2.5742,-2.5742,-2.5742,-2.5645,-2.5538,-2.4815,-2.3692,-2.3583,-2.2767,-2.1651,-2.155,-2.155,-2.1448,-2.1347,-2.0436,-1.942,-1.942,-1.861,-1.7635,-1.7896,-1.7989,-1.8003,-1.8003,-1.8003,-1.7929,-1.7649,-1.7582,-1.7669,-1.7976,-1.805,-1.8136,-1.843,-1.8704,-1.8885,-1.8885,-1.9112,-1.9299,-1.9325,-1.9461,-1.9591,-1.9591,-2.2153,-2.4028,-2.4003,-2.6553,-2.8066,-2.7637,-2.7607,-2.7275,-2.6494,-2.6445,-2.6269,-2.5869,-2.6562,-2.6963,-2.6963,-2.6992,-2.7207,-2.7607,-2.7646,-2.7861,-2.8009,-2.8232,-2.7356,-1.3812,-1.7327,-2.1455,-2.2058,-2.3991,-2.5875,-2.642,-2.6533,-2.6533,-2.6533,-2.6703,-2.6992,-2.7243,-2.7996,-2.8649,-2.8888,-2.9415,-2.9792,-2.9792,-2.9792,-2.9792,-2.9792,-2.9792,-2.9792,-2.9792,-2.9792,-2.9443,-2.8518,-2.8426,-2.8667,-2.9277,-2.9152,-2.9475,-3.0414,-3.0284,-2.9465,-2.8038,-2.7778,-2.7125,-2.611,-2.583,-2.5742,-2.5742,-2.5742,-2.5742,-2.5742,-2.5742,-2.5742,-2.5742,-2.5742,-2.5742,-2.5635,-2.451,-2.3998,-2.3583,-2.2567,-2.1954,-2.155,-2.0436,-2.0033,-1.993,-1.8805,-1.8297,-1.7996,-1.7996,-1.7786,-1.7595,-1.7655,-1.7682,-1.7682,-1.7682,-1.7682,-1.7662,-1.7595,-1.7582,-1.7669,-1.7976,-1.805,-1.8136,-1.843,-1.8544,-1.8584,-1.8584,-1.8637,-1.8758,-1.8985,-2.0209,-2.1145,-2.1145,-2.371,-2.5475,-2.5057,-2.6689,-2.7627,-2.7197,-2.7158,-2.708,-2.6894,-2.6875,-2.6836,-2.6738,-2.6602,-2.6523,-2.6523,-2.6846,-2.706,-2.7158,-2.75,-2.7151,-2.6013,-2.7237,-2.6537,-1.4941,-1.8147,-2.1543,-2.3401,-2.5237,-2.6533,-2.6533,-2.6533,-2.6533,-2.6533,-2.6904,-2.7369,-2.7632,-2.836,-2.9026,-2.9302,-2.9591,-2.9792,-2.9792,-2.9792,-2.9792,-2.9792,-2.9792,-2.9624,-2.9028,-2.9028,-2.853,-2.7452,-2.7844,-2.8174,-2.8437,-2.8387,-2.8505,-2.9083,-2.8481,-2.7689,-2.6658,-2.6658,-2.639,-2.5742,-2.5742,-2.5742,-2.5742,-2.5742,-2.5742,-2.5742,-2.5742,-2.5742,-2.5742,-2.5742,-2.5323,-2.4707,-2.3998,-2.2876,-2.1659,-2.0939,-2.0333,-1.962,-1.8909,-1.8603,-1.8506,-1.7786,-1.7582,-1.7582,-1.7582,-1.7582,-1.7615,-1.7762,-1.7802,-1.7802,-1.7802,-1.7802,-1.7769,-1.7615,-1.7582,-1.7622,-1.7789,-1.7822,-1.7869,-1.8023,-1.8176,-1.8277,-1.8277,-1.8397,-1.8544,-1.8691,-2.0039,-2.1115,-2.1115,-2.3628,-2.5396,-2.5189,-2.6475,-2.7266,-2.7031,-2.7012,-2.6934,-2.6728,-2.6709,-2.6621,-2.6416,-2.5567,-2.5643,-2.668,-2.6263,-2.6041,-2.6041,-2.5623,-2.5294,-2.5276,-2.6039,-2.5288,-1.6515,-1.9145,-2.165,-2.5552,-2.6533,-2.6533,-2.6533,-2.6533,-2.6533,-2.6533,-2.6904,-2.7444,-2.8009,-2.8561,-2.9114,-2.9691,-2.9792,-2.9792,-2.9792,-2.9792,-2.9792,-2.9792,-2.9624,-2.9118,-2.8176,-2.7936,-2.736,-2.6307,-2.6955,-2.7415,-2.7489,-2.7282,-2.7279,-2.7432,-2.6451,-2.5848,-2.5742,-2.5742,-2.5742,-2.5742,-2.5742,-2.5742,-2.5742,-2.5742,-2.5742,-2.5742,-2.5742,-2.5742,-2.5742,-2.5742,-2.4922,-2.3692,-2.3484,-2.1862,-1.9524,-1.9324,-1.8506,-1.7582,-1.7582,-1.7582,-1.7582,-1.7582,-1.7582,-1.7582,-1.7582,-1.7582,-1.7635,-1.7896,-1.7969,-1.7969,-1.7969,-1.7969,-1.7903,-1.7642,-1.7582,-1.7582,-1.7582,-1.7582,-1.7582,-1.7582,-1.7789,-1.7969,-1.7969,-1.8217,-1.841,-1.841,-1.9837,-2.0932,-2.0932,-2.3377,-2.5158,-2.5094,-2.6161,-2.6875,-2.6797,-2.6797,-2.6641,-2.6299,-2.6071,-2.5797,-2.5342,-2.4097,-2.4199,-2.6037,-2.4984,-2.445,-2.445,-2.3355,-2.3283,-2.4122,-2.4453,-2.3633,-1.201,-1.6338,-2.165,-2.5552,-2.6533,-2.6533,-2.6533,-2.6533,-2.6533,-2.6533,-2.6904,-2.7444,-2.8009,-2.8561,-2.9114,-2.9691,-2.9792,-2.9792,-2.9792,-2.9792,-2.9792,-2.9792,-2.8937,-2.8255,-2.8084,-2.729,-2.6213,-2.5126,-2.4836,-2.5018,-2.5717,-2.5369,-2.5672,-2.6743,-2.6703,-2.6253,-2.5732,-2.5742,-2.5742,-2.5742,-2.5742,-2.5742,-2.5742,-2.5742,-2.5742,-2.5742,-2.5742,-2.5742,-2.5742,-2.5742,-2.4922,-2.3583,-2.2466,-2.1049,-1.942,-1.8304,-1.7786,-1.7582,-1.7582,-1.7582,-1.7582,-1.7582,-1.7582,-1.7582,-1.7582,-1.7582,-1.7589,-1.7629,-1.7642,-1.7642,-1.7642,-1.7642,-1.7629,-1.7595,-1.7582,-1.7582,-1.7582,-1.7582,-1.7582,-1.7582,-1.7615,-1.7642,-1.7642,-1.7903,-1.8103,-1.8103,-2.0542,-2.2421,-2.2421,-2.4873,-2.656,-2.6193,-2.6365,-2.6318,-2.5937,-2.5908,-2.5879,-2.583,-2.4693,-2.4053,-2.3998,-2.2667,-2.2097,-2.2401,-2.2198,-2.2097,-2.2105,-2.2328,-2.1869,-2.0817,-2.207,-2.1404,-1.3848,-1.776,-2.1749,-2.5552,-2.6533,-2.6533,-2.6533,-2.6533,-2.6533,-2.6533,-2.6722,-2.6992,-2.7544,-2.8348,-2.9013,-2.9264,-2.9578,-2.9611,-2.8937,-2.8858,-2.8609,-2.8051,-2.7545,-2.6942,-2.6273,-2.5628,-2.4753,-2.3608,-2.367,-2.3888,-2.4149,-2.4743,-2.5357,-2.5762,-2.6044,-2.5998,-2.5732,-2.5742,-2.5742,-2.5732,-2.4922,-2.4609,-2.451,-2.3791,-2.389,-2.4609,-2.4609,-2.4196,-2.3484,-2.3484,-2.2676,-2.1355,-2.0743,-1.9731,-1.8401,-1.7786,-1.7582,-1.7582,-1.7582,-1.7582,-1.7582,-1.7582,-1.7582,-1.7582,-1.7582,-1.7582,-1.7582,-1.7582,-1.7582,-1.7582,-1.7582,-1.7582,-1.7582,-1.7582,-1.7582,-1.7582,-1.7582,-1.7582,-1.7582,-1.7582,-1.7582,-1.7582,-1.7582,-1.7695,-1.7995,-1.8823,-2.0794,-2.244,-2.3168,-2.5041,-2.623,-2.6045,-2.6025,-2.5633,-2.4627,-2.4609,-2.4304,-2.3484,-2.2876,-2.2567,-2.2567,-2.1245,-2.0538,-2.0538,-2.0538,-2.0538,-2.0538,-1.9978,-1.974,-1.9844,-2.047,-2.0651,-1.4681,-1.7498,-1.9876,-2.4142,-2.5297,-2.5586,-2.637,-2.6533,-2.6533,-2.6533,-2.6647,-2.6721,-2.6838,-2.784,-2.8737,-2.8684,-2.9337,-2.9238,-2.7758,-2.7735,-2.7528,-2.6287,-2.5939,-2.5437,-2.4524,-2.3981,-2.3276,-2.2585,-2.2899,-2.3164,-2.3359,-2.428,-2.4936,-2.5134,-2.5391,-2.5625,-2.5742,-2.5742,-2.5742,-2.5635,-2.4304,-2.3692,-2.3683,-2.2357,-2.2055,-2.2676,-2.3076,-2.2667,-2.1752,-2.1752,-2.0845,-1.9627,-1.9627,-1.8812,-1.7582,-1.7582,-1.7582,-1.7582,-1.7582,-1.7582,-1.7582,-1.7582,-1.7582,-1.7582,-1.7582,-1.7582,-1.7582,-1.7582,-1.7582,-1.7582,-1.7582,-1.7582,-1.7582,-1.7582,-1.7582,-1.7582,-1.7582,-1.7582,-1.7582,-1.7582,-1.7582,-1.7582,-1.7582,-1.7582,-1.7891,-1.8916,-2.0231,-2.155,-2.2567,-2.4106,-2.502,-2.4716,-2.502,-2.4609,-2.3285,-2.3176,-2.2767,-2.1752,-2.1347,-2.1143,-2.1143,-1.9826,-1.9117,-1.9117,-1.9117,-1.9117,-1.9117,-1.8094,-1.8297,-1.9627,-1.9627,-2.0333,-1.1246,-1.2532,-1.4274,-2.0263,-2.2133,-2.3213,-2.5862,-2.6533,-2.6533,-2.6533,-2.6879,-2.6946,-2.5912,-2.7054,-2.8176,-2.8131,-2.9081,-2.8868,-2.6314,-2.6811,-2.696,-2.5462,-2.4284,-2.3646,-2.3566,-2.2625,-2.2163,-2.248,-2.2203,-2.2516,-2.3691,-2.3379,-2.384,-2.5029,-2.5088,-2.5303,-2.5732,-2.5742,-2.5742,-2.5635,-2.4304,-2.3692,-2.3683,-2.2357,-2.1041,-1.9937,-2.1245,-2.1752,-2.1752,-2.1752,-2.0845,-1.9627,-1.9627,-1.8812,-1.7582,-1.7582,-1.7582,-1.7582,-1.7582,-1.7582,-1.7582,-1.7582,-1.7582,-1.7582,-1.7582,-1.7582,-1.7582,-1.7582,-1.7582,-1.7582,-1.7582,-1.7582,-1.7582,-1.7582,-1.7582,-1.7582,-1.7582,-1.7582,-1.7582,-1.7582,-1.7582,-1.7582,-1.7582,-1.7582,-1.7582,-1.7687,-1.8812,-1.9731,-1.9834,-2.2165,-2.3285,-2.2055,-2.3076,-2.3276,-2.1954,-2.1853,-2.1752,-2.1752,-2.0436,-1.9731,-1.9731,-1.8401,-1.7681,-1.7681,-1.7681,-1.7681,-1.7681,-1.7582,-1.8297,-1.9627,-1.9627,-2.0333,-1.1069,-1.1985,-1.3162,-1.7723,-2.0326,-2.2133,-2.3489,-2.5184,-2.6314,-2.5664,-2.5669,-2.5709,-2.5309,-2.6257,-2.6884,-2.6251,-2.6566,-2.6262,-2.456,-2.4697,-2.4483,-2.3234,-2.2747,-2.2503,-2.2503,-2.2122,-2.1953,-2.21,-2.1709,-2.1904,-2.292,-2.2822,-2.333,-2.4609,-2.4922,-2.5283,-2.5732,-2.5742,-2.5742,-2.5635,-2.4304,-2.3276,-2.2374,-2.1179,-1.9829,-1.8311,-1.9034,-1.9208,-1.9109,-1.9109,-1.8805,-1.8304,-1.8304,-1.7989,-1.7582,-1.7582,-1.7582,-1.7582,-1.7582,-1.7582,-1.7582,-1.7582,-1.7582,-1.7582,-1.7582,-1.7582,-1.7582,-1.7582,-1.7582,-1.7582,-1.7582,-1.7582,-1.7582,-1.7582,-1.7582,-1.7582,-1.7582,-1.7582,-1.7582,-1.7582,-1.7582,-1.7582,-1.7582,-1.8297,-1.922,-2.0128,-2.1347,-2.2576,-2.3384,-2.4402,-2.4501,-2.3176,-2.3384,-2.2776,-2.0538,-2.0333,-2.0033,-1.9109,-1.8603,-1.8304,-1.8304,-1.7891,-1.7582,-1.7582,-1.7582,-1.7582,-1.7582,-1.7582,-1.7891,-1.8304,-1.8304,-1.9121,-0.9694,-1.0289,-1.1334,-1.5281,-1.7363,-1.9221,-2.2196,-2.3604,-2.448,-2.4931,-2.4848,-2.4699,-2.4448,-2.5048,-2.5415,-2.4823,-2.5093,-2.4746,-2.3005,-2.3043,-2.2832,-2.1607,-2.1445,-2.1504,-2.165,-2.167,-2.1728,-2.1875,-2.1621,-2.1699,-2.2275,-2.2441,-2.3096,-2.4375,-2.499,-2.5439,-2.5732,-2.5742,-2.5742,-2.5635,-2.4304,-2.2976,-2.1659,-2.047,-1.9117,-1.7595,-1.7802,-1.7776,-1.7582,-1.7582,-1.7582,-1.7582,-1.7582,-1.7582,-1.7582,-1.7582,-1.7582,-1.7582,-1.7582,-1.7582,-1.7582,-1.7582,-1.7582,-1.7582,-1.7582,-1.7582,-1.7582,-1.7582,-1.7582,-1.7582,-1.7582,-1.7582,-1.7582,-1.7582,-1.7582,-1.7582,-1.7582,-1.7582,-1.7582,-1.7582,-1.7582,-1.7582,-1.7582,-1.8708,-1.993,-2.0837,-2.1752,-2.2676,-2.3493,-2.3692,-2.3185,-2.176,-2.2064,-2.1355,-1.9117,-1.8916,-1.8506,-1.7687,-1.7582,-1.7582,-1.7582,-1.7582,-1.7582,-1.7582,-1.7582,-1.7582,-1.7582,-1.7582,-1.7786,-1.8304,-1.8304,-1.8935,0.0,0.0,0.0,-1.2814,-1.3141,-1.4362,-2.1933,-2.1703,-2.0865,-2.4139,-2.4457,-2.3984,-2.3366,-2.3311,-2.3549,-2.4,-2.4962,-2.4647,-2.166,-2.2135,-2.2252,-2.0771,-2.0566,-2.0742,-2.1191,-2.123,-2.1416,-2.1875,-2.1894,-2.1894,-2.1924,-2.2334,-2.3135,-2.4355,-2.5264,-2.5742,-2.5742,-2.5742,-2.5742,-2.5635,-2.4304,-2.2976,-2.1643,-2.0246,-1.8923,-1.7582,-1.7595,-1.7589,-1.7582,-1.7582,-1.7582,-1.7582,-1.7582,-1.7582,-1.7582,-1.7582,-1.7582,-1.7582,-1.7582,-1.7582,-1.7582,-1.7582,-1.7582,-1.7582,-1.7582,-1.7582,-1.7582,-1.7582,-1.7582,-1.7582,-1.7582,-1.7582,-1.7582,-1.7582,-1.7582,-1.7582,-1.7582,-1.7582,-1.7582,-1.7582,-1.7582,-1.7582,-1.7582,-1.8708,-1.9627,-1.9627,-1.9627,-1.9627,-1.9627,-1.9627,-1.9117,-1.7786,-1.8812,-1.9013,-1.7687,-1.7582,-1.7582,-1.7582,-1.7582,-1.7582,-1.7582,-1.7582,-1.7582,-1.7582,-1.7582,-1.7582,-1.7582,-1.7582,-1.8304,-1.9524,-1.9539,-1.9888,-0.6774,0.0,0.0,0.0,0.0,0.0,-1.5028,-1.6683,-1.8211,-2.0002,-2.0325,-2.0588,-2.1638,-2.178,-2.191,-2.2029,-2.2281,-2.2201,-2.135,-2.1253,-2.1073,-2.0654,-2.0566,-2.0742,-2.1191,-2.123,-2.1543,-2.2285,-2.206,-2.2148,-2.2754,-2.3486,-2.3906,-2.3965,-2.5117,-2.5742,-2.5742,-2.5742,-2.5742,-2.5635,-2.4304,-2.2976,-2.1659,-2.0493,-1.9132,-1.7595,-1.7822,-1.7789,-1.7582,-1.7582,-1.7582,-1.7582,-1.7582,-1.7582,-1.7582,-1.7582,-1.7582,-1.7582,-1.7582,-1.7582,-1.7582,-1.7582,-1.7582,-1.7582,-1.7582,-1.7582,-1.7582,-1.7582,-1.7582,-1.7582,-1.7582,-1.7582,-1.7582,-1.7582,-1.7582,-1.7582,-1.7582,-1.7582,-1.7582,-1.7582,-1.7582,-1.7582,-1.7582,-1.8708,-1.9627,-1.9627,-2.0436,-2.1143,-2.1143,-2.1143,-2.0641,-1.922,-1.9428,-1.9013,-1.7687,-1.7582,-1.7582,-1.7582,-1.7582,-1.7582,-1.7582,-1.7582,-1.7582,-1.7582,-1.7582,-1.7582,-1.7582,-1.7582,-1.7786,-1.8206,-1.8335,-1.8644,-0.7015,-0.6937,-0.7187,-0.8189,0.0,0.0,-1.3797,-1.5013,-1.6345,-1.9393,-1.9787,-1.99,-2.0997,-2.123,-2.1289,-2.1475,-2.1357,-2.123,-2.123,-2.085,-2.0635,-2.082,-2.0674,-2.0742,-2.1191,-2.123,-2.1514,-2.2197,-2.1855,-2.1826,-2.2314,-2.3154,-2.3594,-2.3516,-2.46,-2.5185,-2.5185,-2.5371,-2.5459,-2.5459,-2.4221,-2.2976,-2.1659,-2.0439,-1.9089,-1.7595,-1.7776,-1.7749,-1.7582,-1.7582,-1.7582,-1.7582,-1.7582,-1.7582,-1.7582,-1.7582,-1.7582,-1.7582,-1.7582,-1.7582,-1.7582,-1.7582,-1.7582,-1.7582,-1.7582,-1.7582,-1.7582,-1.7582,-1.7582,-1.7582,-1.7582,-1.7582,-1.7582,-1.7582,-1.7582,-1.7582,-1.7582,-1.7582,-1.7582,-1.7582,-1.7582,-1.7582,-1.7582,-1.8708,-1.9627,-1.9627,-2.0341,-2.0845,-2.0845,-2.0333,-1.9723,-1.8805,-1.8812,-1.8401,-1.7687,-1.7582,-1.7582,-1.7582,-1.7582,-1.7582,-1.7582,-1.7582,-1.7582,-1.7582,-1.7582,-1.7582,-1.7582,-1.7582,-1.7582,-1.7589,-1.7903,-1.8203,-0.7628,-0.7543,-0.7926,-0.929,-0.869,0.0,-1.5013,-1.4647,-1.4558,-1.9624,-2.0011,-1.9615,-2.0262,-2.0419,-2.0556,-2.0909,-2.0918,-2.0908,-2.1201,-2.081,-2.0654,-2.1103,-2.0762,-2.0693,-2.1182,-2.123,-2.1416,-2.1846,-2.1523,-2.1289,-2.123,-2.21,-2.2734,-2.3057,-2.3945,-2.4414,-2.4414,-2.4853,-2.5068,-2.5078,-2.4003,-2.2868,-2.1651,-2.0135,-1.8708,-1.7582,-1.7582,-1.7582,-1.7582,-1.7582,-1.7582,-1.7582,-1.7582,-1.7582,-1.7582,-1.7582,-1.7582,-1.7582,-1.7582,-1.7582,-1.7582,-1.7582,-1.7582,-1.7582,-1.7582,-1.7582,-1.7582,-1.7582,-1.7582,-1.7582,-1.7582,-1.7582,-1.7582,-1.7582,-1.7582,-1.7582,-1.7582,-1.7582,-1.7582,-1.7582,-1.7582,-1.7582,-1.7582,-1.861,-1.9428,-1.9428,-1.9428,-1.9428,-1.9428,-1.8297,-1.7582,-1.7582,-1.7582,-1.7582,-1.7582,-1.7582,-1.7582,-1.7582,-1.7582,-1.7582,-1.7582,-1.7582,-1.7582,-1.7582,-1.7582,-1.7582,-1.7582,-1.7582,-1.7582,-1.7589,-1.7862,-1.8176,-0.8553,-0.8437,-0.8625,-0.8039,-0.8991,0.0,-0.8937,-0.9497,-1.0661,-1.2106,-1.2404,-1.296,-1.4724,-1.5464,-1.5608,-1.5253,-1.7071,-1.9183,-2.0937,-2.0547,-2.0205,-2.0644,-2.0303,-2.0352,-2.1152,-2.123,-2.1416,-2.1846,-2.1807,-2.1611,-2.125,-2.2383,-2.291,-2.2646,-2.3789,-2.4414,-2.4414,-2.4853,-2.5068,-2.5068,-2.3081,-2.1954,-2.1651,-1.9109,-1.7891,-1.7582,-1.7582,-1.7582,-1.7582,-1.7582,-1.7582,-1.7582,-1.7582,-1.7582,-1.7582,-1.7582,-1.7582,-1.7582,-1.7582,-1.7582,-1.7582,-1.7582,-1.7582,-1.7582,-1.7582,-1.7582,-1.7582,-1.7582,-1.7582,-1.7582,-1.7582,-1.7582,-1.7582,-1.7582,-1.7582,-1.7582,-1.7582,-1.7582,-1.7582,-1.7582,-1.7582,-1.7582,-1.7582,-1.7786,-1.7989,-1.7989,-1.7989,-1.7989,-1.7989,-1.7786,-1.7582,-1.7582,-1.7582,-1.7582,-1.7582,-1.7582,-1.7582,-1.7582,-1.7582,-1.7582,-1.7582,-1.7582,-1.7582,-1.7582,-1.7582,-1.7582,-1.7582,-1.7582,-1.7582,-1.7582,-1.7642,-1.7969,-0.879,-0.8499,-0.875,-0.8991,-0.9279,0.0,0.0,-0.9667,-1.0314,-1.2276,-1.2299,-1.2475,-1.4118,-1.4401,-1.4401,-1.4422,-1.6407,-1.8082,-1.8603,-1.9578,-2.0322,-2.0537,-2.0185,-2.001,-2.0244,-2.0449,-2.0762,-2.1201,-2.1836,-2.1924,-2.1269,-2.2256,-2.2734,-2.2519,-2.333,-2.349,-2.2828,-2.3924,-2.3849,-2.2595,-2.1714,-2.1078,-2.0397,-1.8428,-1.7582,-1.7582,-1.7582,-1.7582,-1.7582,-1.7582,-1.7582,-1.7582,-1.7582,-1.7582,-1.7582,-1.7582,-1.7582,-1.7582,-1.7582,-1.7582,-1.7582,-1.7582,-1.7582,-1.7582,-1.7582,-1.7582,-1.7582,-1.7582,-1.7582,-1.7582,-1.7582,-1.7582,-1.7582,-1.7582,-1.7582,-1.7582,-1.7582,-1.7582,-1.7582,-1.7582,-1.7582,-1.7582,-1.7582,-1.7582,-1.7582,-1.7582,-1.7582,-1.7582,-1.7582,-1.7582,-1.7582,-1.7582,-1.7582,-1.7582,-1.7582,-1.7582,-1.7582,-1.7582,-1.7582,-1.7582,-1.7582,-1.7582,-1.7582,-1.7582,-1.7582,-1.7582,-1.7582,-1.7582,-1.7582,-1.7582,-1.7582,-1.7829,-0.9449,-0.8985,-0.928,-1.0089,-0.9633,-0.9403,0.0,0.0,0.0,-1.3238,-1.3064,-1.2711,-1.371,-1.3515,-1.3354,-1.3699,-1.5425,-1.6316,-1.5263,-1.7582,-1.9476,-1.9717,-1.9791,-1.9678,-1.9236,-1.9262,-1.9762,-2.0625,-2.1281,-2.1435,-2.125,-2.1973,-2.2337,-2.2149,-2.2476,-2.2133,-2.0935,-2.2351,-2.2089,-2.0127,-2.0468,-2.0122,-1.9157,-1.806,-1.7582,-1.7582,-1.7582,-1.7582,-1.7582,-1.7582,-1.7582,-1.7582,-1.7582,-1.7582,-1.7582,-1.7582,-1.7582,-1.7582,-1.7582,-1.7582,-1.7582,-1.7582,-1.7582,-1.7582,-1.7582,-1.7582,-1.7582,-1.7582,-1.7582,-1.7582,-1.7582,-1.7582,-1.7582,-1.7582,-1.7582,-1.7582,-1.7582,-1.7582,-1.7582,-1.7582,-1.7582,-1.7582,-1.7582,-1.7582,-1.7582,-1.7582,-1.7582,-1.7582,-1.7582,-1.7582,-1.7582,-1.7582,-1.7582,-1.7582,-1.7582,-1.7582,-1.7582,-1.7582,-1.7582,-1.7582,-1.7582,-1.7582,-1.7582,-1.7582,-1.7582,-1.7582,-1.7582,-1.7582,-1.7582,-1.7582,-1.7582,-1.7782,-1.1916,-1.1472,-1.1347,-0.9333,-1.0176,-1.0679,-0.7631,0.0,-0.874,-0.8369,0.0,-0.8308,-0.8973,0.0,0.0,-0.8368,-1.0671,-1.2263,-1.159,-1.3602,-1.5465,-1.6511,-1.8542,-1.959,-1.8849,-1.7941,-1.8478,-2.0957,-1.9367,-1.91,-2.1113,-2.1699,-2.1681,-2.0966,-2.0934,-2.0589,-1.967,-2.0214,-2.0399,-2.0127,-1.9603,-1.9343,-1.9157,-1.806,-1.7582,-1.7582,-1.7582,-1.7582,-1.7582,-1.7582,-1.7582,-1.7582,-1.7582,-1.7582,-1.7582,-1.7582,-1.7582,-1.7582,-1.7582,-1.7582,-1.7582,-1.7582,-1.7582,-1.7582,-1.7582,-1.7582,-1.7582,-1.7582,-1.7582,-1.7582,-1.7582,-1.7582,-1.7582,-1.7582,-1.7582,-1.7582,-1.7582,-1.7582,-1.7582,-1.7582,-1.7582,-1.7582,-1.7582,-1.7582,-1.7582,-1.7582,-1.7582,-1.7582,-1.7582,-1.7582,-1.7582,-1.7582,-1.7582,-1.7582,-1.7582,-1.7582,-1.7582,-1.7582,-1.7582,-1.7582,-1.7582,-1.7582,-1.7582,-1.7582,-1.7582,-1.7582,-1.7582,-1.7582,-1.7582,-1.7582,-1.7582,-1.7889,-1.0863,-1.0648,-1.0864,-0.9925,-0.9935,-0.9708,-0.8027,-0.7458,-0.7368,-0.7835,0.0,0.0,0.0,0.0,0.0,0.0,-0.9817,-1.0957,-0.9996,-1.2196,-1.4265,-1.5118,-1.5612,-1.6276,-1.7272,-1.7551,-1.8547,-2.0674,-1.9203,-1.9076,-2.1123,-2.0809,-2.0597,-2.0697,-2.0105,-1.9312,-1.8495,-1.9277,-1.9063,-1.7588,-1.826,-1.8291,-1.7788,-1.7497,-1.7422,-1.7582,-1.7582,-1.7582,-1.7582,-1.7582,-1.7582,-1.7582,-1.7582,-1.7582,-1.7582,-1.7582,-1.7582,-1.7582,-1.7582,-1.7582,-1.7582,-1.7582,-1.7582,-1.7582,-1.7582,-1.7582,-1.7582,-1.7582,-1.7582,-1.7582,-1.7582,-1.7582,-1.7582,-1.7582,-1.7582,-1.7582,-1.7582,-1.7582,-1.7582,-1.7582,-1.7582,-1.7582,-1.7582,-1.7582,-1.7582,-1.7582,-1.7582,-1.7582,-1.7582,-1.7582,-1.7582,-1.7582,-1.7582,-1.7582,-1.7582,-1.7582,-1.7582,-1.7582,-1.7582,-1.7582,-1.7582,-1.7582,-1.7582,-1.7582,-1.7582,-1.7582,-1.7582,-1.7582,-1.7675,-1.7849,-1.7669,-1.7816,-1.0691,-1.0506,-1.0705,-1.0084,-0.9332,-0.8612,-0.8066,-0.7342,-0.7139,-0.8271,-0.8236,0.0,0.0,0.0,-0.8352,-0.8499,0.0,-0.9997,-0.8796,-1.0517,-1.2259,-1.3183,-1.3184,-1.3884,-1.5857,-1.6208,-1.7328,-1.9713,-1.8518,-1.8664,-2.0928,-2.0149,-1.9713,-1.9859,-1.8929,-1.801,-1.7094,-1.7987,-1.7569,-1.5832,-1.7074,-1.7246,-1.66,-1.6974,-1.7268,-1.7468,-1.7549,-1.7582,-1.7582,-1.7582,-1.7582,-1.7582,-1.7582,-1.7582,-1.7582,-1.7582,-1.7582,-1.7582,-1.7582,-1.7582,-1.7582,-1.7582,-1.7582,-1.7582,-1.7582,-1.7582,-1.7582,-1.7582,-1.7582,-1.7582,-1.7582,-1.7582,-1.7582,-1.7582,-1.7582,-1.7582,-1.7582,-1.7582,-1.7582,-1.7582,-1.7582,-1.7582,-1.7582,-1.7582,-1.7582,-1.7582,-1.7582,-1.7582,-1.7582,-1.7582,-1.7582,-1.7582,-1.7582,-1.7582,-1.7582,-1.7582,-1.7582,-1.7582,-1.7582,-1.7582,-1.7582,-1.7582,-1.7582,-1.7582,-1.7582,-1.7582,-1.7582,-1.7582,-1.7742,-1.8043,-1.7816,-1.7916,-1.3005,-1.2494,-1.1881,-0.9149,-0.844,-0.7989,-0.6356,-0.7199,-0.8476,-0.8968,-1.0347,-1.1437,-1.1475,-1.101,-1.0255,-0.9251,-0.9127,0.0,0.0,-0.7533,-0.8215,-0.9865,-1.2037,-1.3861,-1.512,-1.3334,-1.371,0.0,-1.6297,-1.6894,-2.0458,-1.999,-1.905,-1.792,-1.7133,-1.6328,-1.5497,-1.5779,-1.592,-1.5832,-1.6229,-1.6377,-1.6306,-1.6887,-1.7154,-1.7181,-1.7462,-1.7582,-1.7582,-1.7582,-1.7582,-1.7582,-1.7582,-1.7582,-1.7582,-1.7582,-1.7582,-1.7582,-1.7582,-1.7582,-1.7582,-1.7582,-1.7582,-1.7582,-1.7582,-1.7582,-1.7582,-1.7582,-1.7582,-1.7582,-1.7582,-1.7582,-1.7582,-1.7582,-1.7582,-1.7582,-1.7582,-1.7582,-1.7582,-1.7582,-1.7582,-1.7582,-1.7582,-1.7582,-1.7582,-1.7582,-1.7582,-1.7582,-1.7582,-1.7582,-1.7582,-1.7582,-1.7582,-1.7582,-1.7582,-1.7582,-1.7582,-1.7582,-1.7582,-1.7582,-1.7582,-1.7582,-1.7582,-1.7582,-1.7582,-1.7582,-1.7582,-1.7582,-1.7742,-1.805,-1.8036,-1.8343,-1.2519,-1.2631,-1.2375,-0.999,-0.9281,-0.8717,-0.6905,-0.7151,-0.7773,-0.7829,-0.8973,-0.9953,-0.9992,-0.986,-0.9579,-0.9166,-0.8811,-0.8298,0.0,-0.7406,-0.7606,-0.8189,-1.0685,-1.219,-1.1882,-1.324,-1.5063,0.0,-1.6911,-1.7701,-2.0,-1.859,-1.77,-1.7703,-1.6264,-1.554,-1.5678,-1.5778,-1.5832,-1.5832,-1.5932,-1.6079,-1.6279,-1.648,-1.678,-1.7257,-1.7255,-1.7408,-1.7582,-1.7582,-1.7582,-1.7582,-1.7582,-1.7582,-1.7582,-1.7582,-1.7582,-1.7582,-1.7582,-1.7582,-1.7582,-1.7582,-1.7582,-1.7582,-1.7582,-1.7582,-1.7582,-1.7582,-1.7582,-1.7582,-1.7582,-1.7582,-1.7582,-1.7582,-1.7582,-1.7582,-1.7582,-1.7582,-1.7582,-1.7582,-1.7582,-1.7582,-1.7582,-1.7582,-1.7582,-1.7582,-1.7582,-1.7582,-1.7582,-1.7582,-1.7582,-1.7582,-1.7582,-1.7582,-1.7582,-1.7582,-1.7582,-1.7582,-1.7582,-1.7582,-1.7582,-1.7582,-1.7582,-1.7582,-1.7582,-1.7582,-1.7582,-1.7789,-1.805,-1.8343,-1.8537,-1.8731,-1.2107,-1.2172,-1.1936,-0.9573,-0.8894,-0.8437,-0.7074,-0.7404,-0.796,-0.7787,-0.889,-0.9906,-1.0012,-0.9939,-0.9732,-0.9366,-0.8899,-0.8248,0.0,-0.7106,-0.7106,-0.7106,-0.9153,-1.0599,-1.071,-1.2007,-1.413,-1.7181,-1.6733,-1.7366,-1.957,-1.8065,-1.7106,-1.7245,-1.5827,-1.5297,-1.5671,-1.5778,-1.5832,-1.5832,-1.5832,-1.5925,-1.6119,-1.6226,-1.648,-1.6847,-1.7163,-1.7255,-1.7442,-1.7542,-1.7582,-1.7582,-1.7582,-1.7582,-1.7582,-1.7582,-1.7582,-1.7582,-1.7582,-1.7582,-1.7582,-1.7582,-1.7582,-1.7582,-1.7582,-1.7582,-1.7582,-1.7582,-1.7582,-1.7582,-1.7582,-1.7582,-1.7582,-1.7582,-1.7582,-1.7582,-1.7582,-1.7582,-1.7582,-1.7582,-1.7582,-1.7582,-1.7582,-1.7582,-1.7582,-1.7582,-1.7582,-1.7582,-1.7582,-1.7582,-1.7582,-1.7582,-1.7582,-1.7582,-1.7582,-1.7582,-1.7582,-1.7582,-1.7582,-1.7582,-1.7582,-1.7582,-1.7582,-1.7582,-1.7582,-1.7635,-1.7749,-1.7949,-1.825,-1.8651,-1.8838,-1.8978]},{"header":{"parameterUnit":"m.s-1","parameterCategory":1,"la1":30.6,"la2":29.2853,"lo1":-89.7004,"lo2":-87.6739,"dx":0.0162,"dy":0.0183,"nx":112,"ny":82,"refTime":"2022-12-31T18:00:00:Z","depth":0,"parameterNumber":3,"parameterNumberName":"V-component_of_WINDS"},"data":[0.0,0.0,0.0,0.0,0.0,0.0,0.0,0.0,0.0,0.0,0.0,0.0,0.0,0.0,0.0,0.0,0.0,0.0,0.0,0.0,0.0,0.0,0.0,0.0,0.0,0.0,0.0,0.0,0.0,0.0,0.0,0.0,0.0,0.0,0.0,0.0,0.0,0.0,0.0,0.0,0.0,0.0,0.0,0.0,0.0,0.0,0.0,0.0,0.0,0.0,0.0,0.0,0.0,0.0,0.0,0.0,0.0,0.0,0.0,0.0,0.0,0.0,0.0,0.0,0.0,0.0,0.0,0.0,0.0,0.0,0.0,0.0,0.0,0.0,0.0,0.0,0.0,0.0,0.0,0.0,0.0,0.0,0.0,0.0,0.0,0.0,0.0,0.0,0.0,0.0,-1.0786,-0.9442,-0.9932,-1.0929,-1.2244,-1.1028,-0.9572,-0.7986,0.0,0.0,0.0,0.0,0.0,0.0,0.0,0.0,0.0,0.0,0.0,0.0,0.0,0.0,0.0,0.0,0.0,0.0,0.0,0.0,0.0,0.0,0.0,0.0,0.0,0.0,0.0,0.0,0.0,0.0,0.0,0.0,0.0,0.0,0.0,0.0,0.0,0.0,0.0,0.0,0.0,0.0,0.0,0.0,0.0,0.0,0.0,0.0,0.0,0.0,0.0,0.0,0.0,0.0,0.0,0.0,0.0,0.0,0.0,0.0,0.0,0.0,0.0,0.0,0.0,0.0,0.0,0.0,0.0,0.0,0.0,0.0,0.0,0.0,0.0,0.0,0.0,0.0,0.0,0.0,0.0,0.0,0.0,0.0,0.0,0.0,0.0,0.0,0.0,0.0,0.0,0.0,0.0,0.0,0.0,0.0,0.0,0.0,0.0,0.0,0.0,0.0,0.0,0.0,-1.0804,-1.3116,-1.29,-1.267,-1.2701,-1.2065,-1.056,-0.8048,0.0,0.0,0.0,0.0,0.0,0.0,0.0,0.0,0.0,0.0,0.0,0.0,0.0,0.0,0.0,0.0,0.0,0.0,0.0,0.0,0.0,0.0,0.0,0.0,0.0,0.0,0.0,0.0,0.0,0.0,0.0,0.0,0.0,0.0,0.0,0.0,0.0,0.0,0.0,0.0,0.0,0.0,0.0,0.0,0.0,0.0,0.0,0.0,0.0,0.0,0.0,0.0,0.0,0.0,0.0,0.0,0.0,0.0,0.0,0.0,0.0,0.0,0.0,0.0,0.0,0.0,0.0,0.0,0.0,0.0,0.0,0.0,0.0,0.0,0.0,0.0,0.0,0.0,0.0,0.0,0.0,0.0,0.0,0.0,0.0,0.0,0.0,0.0,0.0,0.0,0.0,0.0,0.0,0.0,0.0,0.0,0.0,0.0,0.0,0.0,0.0,0.0,0.0,-0.9703,-1.1208,-1.4504,-1.3994,-1.3433,-1.3532,-1.257,-1.0815,-0.833,-0.7301,0.0,0.0,0.0,0.0,0.0,0.0,0.0,0.0,0.0,0.0,0.0,0.0,0.0,0.0,0.0,0.0,0.0,0.0,0.0,0.0,0.0,0.0,0.0,0.0,0.0,0.0,0.0,0.0,0.0,0.0,0.0,0.0,0.0,0.0,0.0,0.0,0.0,0.0,0.0,0.0,0.0,0.0,0.0,0.0,0.0,0.0,0.0,0.0,0.0,0.0,0.0,0.0,0.0,0.0,0.0,0.0,0.0,0.0,0.0,0.0,0.0,0.0,0.0,0.0,0.0,0.0,0.0,0.0,0.0,0.0,0.0,0.0,0.0,0.0,0.0,0.0,0.0,0.0,0.0,0.0,0.0,0.0,0.0,0.0,0.0,0.0,0.0,0.0,0.0,0.0,0.0,0.0,0.0,0.0,0.0,0.0,0.0,0.0,0.0,0.0,0.0,0.0,-1.1823,-1.2772,-1.5112,-1.4775,-1.4374,-1.45,-1.3136,-1.1217,-0.8762,-0.7337,0.0,0.0,0.0,0.0,0.0,0.0,0.0,0.0,0.0,0.0,0.0,0.0,0.0,0.0,0.0,0.0,0.0,0.0,0.0,0.0,0.0,0.0,0.0,0.0,0.0,0.0,0.0,0.0,0.0,0.0,0.0,0.0,0.0,0.0,0.0,0.0,0.0,0.0,0.0,0.0,0.0,0.0,0.0,0.0,0.0,0.0,0.0,0.0,0.0,0.0,0.0,0.0,0.0,0.0,0.0,0.0,0.0,0.0,0.0,0.0,0.0,0.0,0.0,0.0,0.0,0.0,0.0,0.0,0.0,0.0,0.0,0.0,0.0,0.0,0.0,0.0,0.0,0.0,0.0,0.0,0.0,0.0,0.0,0.0,0.0,0.0,0.0,0.0,0.0,0.0,0.0,0.0,0.0,0.0,0.0,0.0,0.0,0.0,0.0,0.0,0.0,0.0,-1.4134,-1.6466,-1.5761,-1.5963,-1.6016,-1.552,-1.4055,-1.2067,-0.9424,-0.7588,0.0,0.0,0.0,0.0,0.0,0.0,0.0,0.0,0.0,0.0,0.0,0.0,0.0,0.0,0.0,0.0,0.0,0.0,0.0,0.0,0.0,0.0,0.0,0.0,0.0,0.0,0.0,0.0,0.0,0.0,0.0,0.0,0.0,0.0,0.0,0.0,0.0,0.0,0.0,0.0,0.0,0.0,0.0,0.0,0.0,0.0,0.0,0.0,0.0,0.0,0.0,0.0,0.0,0.0,0.0,0.0,0.0,0.0,0.0,0.0,0.0,0.0,0.0,0.0,0.0,0.0,0.0,0.0,0.0,0.0,0.0,0.0,0.0,0.0,0.0,0.0,0.0,0.0,0.0,0.0,0.0,0.0,0.0,0.0,0.0,0.0,0.0,0.0,0.0,0.0,0.0,0.0,0.0,0.0,0.0,0.0,0.0,0.0,0.0,0.0,0.0,0.0,-1.3626,-1.5972,-1.6702,-1.6784,-1.6723,-1.6503,-1.4969,-1.2767,-0.9793,0.0,0.0,0.0,0.0,0.0,0.0,0.0,0.0,0.0,0.0,0.0,0.0,0.0,0.0,0.0,0.0,0.0,0.0,0.0,0.0,0.0,0.0,0.0,0.0,0.0,0.0,0.0,0.0,0.0,0.0,0.0,0.0,0.0,0.0,0.0,0.0,0.0,0.0,0.0,0.0,0.0,0.0,0.0,0.0,0.0,0.0,0.0,0.0,0.0,0.0,0.0,0.0,0.0,0.0,0.0,0.0,0.0,0.0,0.0,0.0,0.0,0.0,0.0,0.0,0.0,0.0,0.0,0.0,0.0,0.0,0.0,0.0,0.0,0.0,0.0,0.0,0.0,0.0,0.0,0.0,0.0,0.0,0.0,0.0,0.0,0.0,0.0,0.0,0.0,0.0,0.0,0.0,0.0,0.0,0.0,0.0,0.0,0.0,0.0,0.0,0.0,0.0,-1.1103,-1.4531,-1.7098,-1.8078,-1.7901,-1.775,-1.775,-1.5961,-1.3453,-1.0301,0.0,0.0,0.0,0.0,0.0,0.0,0.0,0.0,0.0,0.0,0.0,0.0,0.0,0.0,0.0,0.0,0.0,0.0,0.0,0.0,0.0,0.0,0.0,0.0,0.0,0.0,0.0,0.0,0.0,0.0,0.0,0.0,0.0,0.0,0.0,0.0,0.0,0.0,0.0,0.0,0.0,0.0,0.0,0.0,0.0,0.0,0.0,0.0,0.0,0.0,0.0,0.0,0.0,0.0,0.0,0.0,0.0,0.0,0.0,0.0,0.0,0.0,0.0,0.0,0.0,0.0,0.0,0.0,0.0,0.0,0.0,0.0,0.0,0.0,0.0,0.0,0.0,0.0,0.0,0.0,0.0,0.0,0.0,0.0,0.0,0.0,0.0,0.0,0.0,0.0,0.0,0.0,0.0,0.0,0.0,0.0,0.0,0.0,0.0,0.0,0.0,0.0,-1.2191,-1.7352,-2.0708,-1.9975,-1.9533,-1.9299,-1.9299,-1.6954,-1.415,0.0,0.0,0.0,0.0,0.0,0.0,0.0,0.0,0.0,0.0,0.0,0.0,0.0,0.0,0.0,0.0,0.0,0.0,0.0,0.0,0.0,0.0,0.0,0.0,0.0,0.0,0.0,0.0,0.0,0.0,0.0,0.0,0.0,0.0,0.0,0.0,0.0,0.0,0.0,0.0,0.0,0.0,0.0,0.0,0.0,0.0,0.0,0.0,0.0,0.0,0.0,0.0,0.0,0.0,0.0,0.0,0.0,0.0,0.0,0.0,0.0,0.0,0.0,0.0,0.0,0.0,0.0,0.0,0.0,0.0,0.0,0.0,0.0,0.0,0.0,0.0,0.0,0.0,0.0,0.0,0.0,0.0,0.0,0.0,0.0,0.0,0.0,0.0,0.0,0.0,0.0,0.0,0.0,0.0,0.0,0.0,0.0,0.0,0.0,0.0,0.0,0.0,0.0,-1.2626,-1.7583,-2.0836,-2.0459,-2.0309,-1.9944,-1.9365,-1.8068,-1.5424,-1.1085,0.0,0.0,0.0,0.0,0.0,0.0,0.0,0.0,0.0,0.0,0.0,0.0,0.0,0.0,0.0,0.0,0.0,0.0,0.0,0.0,0.0,0.0,0.0,0.0,0.0,0.0,0.0,0.0,0.0,0.0,0.0,0.0,0.0,0.0,0.0,0.0,0.0,0.0,0.0,0.0,0.0,0.0,0.0,0.0,0.0,0.0,0.0,0.0,0.0,0.0,0.0,0.0,0.0,0.0,0.0,0.0,0.0,0.0,0.0,0.0,0.0,0.0,0.0,0.0,0.0,0.0,0.0,0.0,0.0,0.0,0.0,0.0,0.0,0.0,0.0,0.0,0.0,0.0,0.0,0.0,0.0,0.0,0.0,0.0,0.0,0.0,0.0,0.0,0.0,0.0,0.0,0.0,0.0,0.0,0.0,0.0,0.0,0.0,0.0,0.0,0.0,0.0,-1.3283,-1.8334,-2.1753,-2.1631,-2.0974,-2.0398,-1.9879,-1.8574,-1.6117,-1.222,0.0,0.0,0.0,0.0,0.0,0.0,0.0,0.0,0.0,0.0,0.0,0.0,0.0,0.0,0.0,0.0,0.0,0.0,0.0,0.0,0.0,0.0,0.0,0.0,0.0,0.0,0.0,0.0,0.0,0.0,0.0,0.0,0.0,0.0,0.0,0.0,0.0,0.0,0.0,0.0,0.0,0.0,0.0,0.0,0.0,0.0,0.0,0.0,0.0,0.0,0.0,0.0,0.0,0.0,0.0,0.0,0.0,0.0,0.0,0.0,0.0,0.0,0.0,0.0,0.0,0.0,0.0,0.0,0.0,0.0,0.0,0.0,0.0,0.0,0.0,0.0,0.0,0.0,0.0,0.0,0.0,0.0,0.0,0.0,0.0,0.0,0.0,0.0,0.0,0.0,0.0,0.0,0.0,0.0,0.0,0.0,0.0,0.0,0.0,0.0,0.0,0.0,-1.4005,-1.9364,-2.3078,-2.3078,-2.1667,-2.0719,-2.059,-1.8695,-1.6455,-1.3936,0.0,0.0,0.0,0.0,0.0,0.0,0.0,0.0,0.0,0.0,0.0,0.0,0.0,0.0,0.0,0.0,0.0,0.0,0.0,0.0,0.0,0.0,0.0,0.0,0.0,0.0,0.0,0.0,0.0,0.0,0.0,0.0,0.0,0.0,0.0,0.0,0.0,0.0,0.0,0.0,0.0,0.0,0.0,0.0,0.0,0.0,0.0,0.0,0.0,0.0,0.0,0.0,0.0,0.0,0.0,0.0,0.0,0.0,0.0,0.0,-1.0303,-0.8067,0.0,0.0,0.0,0.0,0.0,0.0,0.0,0.0,0.0,0.0,0.0,0.0,0.0,0.0,0.0,0.0,0.0,0.0,0.0,0.0,0.0,0.0,0.0,0.0,0.0,0.0,0.0,0.0,0.0,0.0,0.0,0.0,0.0,0.0,0.0,0.0,0.0,0.0,0.0,0.0,-1.4005,-1.9364,-2.3078,-2.3078,-2.2187,-2.1365,-2.0655,-1.919,-1.7174,-1.441,-1.3093,0.0,0.0,0.0,0.0,0.0,0.0,0.0,0.0,0.0,0.0,0.0,0.0,0.0,0.0,0.0,0.0,0.0,0.0,0.0,0.0,0.0,0.0,0.0,0.0,0.0,0.0,0.0,0.0,0.0,0.0,0.0,0.0,0.0,0.0,0.0,0.0,0.0,0.0,0.0,0.0,0.0,0.0,0.0,0.0,0.0,0.0,0.0,0.0,0.0,0.0,0.0,0.0,0.0,0.0,0.0,0.0,0.0,0.0,0.0,-1.1491,-1.0068,0.0,0.0,0.0,0.0,0.0,0.0,0.0,0.0,0.0,0.0,0.0,0.0,0.0,0.0,0.0,0.0,0.0,0.0,0.0,0.0,0.0,0.0,0.0,0.0,0.0,0.0,0.0,0.0,0.0,0.0,0.0,0.0,0.0,0.0,0.0,0.0,0.0,0.0,0.0,0.0,-1.4041,-1.9364,-2.3238,-2.3527,-2.2773,-2.1928,-2.1079,-2.0137,-1.8623,-1.6282,-1.4898,0.0,0.0,0.0,0.0,0.0,0.0,0.0,0.0,0.0,0.0,0.0,0.0,0.0,0.0,0.0,0.0,0.0,0.0,0.0,0.0,0.0,0.0,0.0,0.0,0.0,0.0,0.0,0.0,0.0,0.0,0.0,0.0,0.0,0.0,0.0,0.0,0.0,0.0,0.0,0.0,0.0,0.0,0.0,0.0,0.0,0.0,0.0,0.0,0.0,0.0,0.0,0.0,0.0,-1.3552,-1.427,-1.465,-1.465,-1.4892,-1.5174,-1.302,-1.2739,-1.361,-1.1085,0.0,0.0,0.0,0.0,0.0,0.0,0.0,0.0,0.0,0.0,0.0,0.0,0.0,0.0,0.0,0.0,0.0,0.0,0.0,0.0,0.0,0.0,-1.7544,-1.708,-1.9309,-2.0569,-1.6801,0.0,0.0,0.0,0.0,0.0,0.0,0.0,0.0,0.0,0.0,0.0,-1.4916,-1.9862,-2.354,-2.4205,-2.353,-2.2716,-2.1978,-2.1337,-2.0313,-1.8811,-1.7119,-1.5645,0.0,0.0,0.0,0.0,0.0,0.0,0.0,0.0,0.0,0.0,0.0,0.0,0.0,0.0,0.0,0.0,0.0,0.0,0.0,0.0,0.0,0.0,0.0,0.0,0.0,0.0,0.0,0.0,0.0,0.0,0.0,0.0,-0.6687,-0.6756,0.0,0.0,0.0,0.0,0.0,0.0,0.0,0.0,0.0,0.0,0.0,0.0,0.0,-1.0859,-1.1508,-1.3305,-1.4174,-1.4297,-1.6788,-1.7986,-1.8045,-1.8045,-1.81,-1.8119,-1.7115,0.0,-1.5099,-1.4323,0.0,0.0,0.0,0.0,0.0,0.0,0.0,0.0,0.0,0.0,0.0,0.0,0.0,0.0,0.0,0.0,0.0,0.0,0.0,0.0,0.0,0.0,-2.455,-2.3745,-2.3963,-2.4128,-2.3516,-1.9534,-1.5651,-1.4149,-1.4384,-1.331,0.0,0.0,0.0,0.0,0.0,0.0,-1.8326,-2.1749,-2.4268,-2.5272,-2.4603,-2.4038,-2.3902,-2.244,-2.1553,-2.1627,-2.0679,-1.9031,-1.6767,-1.718,0.0,0.0,0.0,0.0,0.0,0.0,0.0,0.0,0.0,0.0,0.0,0.0,0.0,0.0,0.0,0.0,0.0,0.0,0.0,0.0,0.0,0.0,0.0,0.0,0.0,0.0,0.0,0.0,0.0,-0.557,-0.6103,-0.6254,-0.648,-0.6423,0.0,0.0,0.0,0.0,0.0,0.0,0.0,0.0,0.0,-1.2314,-1.2373,-1.2996,-1.4318,-1.5624,-1.6502,-1.6917,-1.8538,-1.9478,-1.9838,-1.9838,-1.9782,-1.9618,-1.9326,-1.917,-1.8954,-1.6665,-1.5418,-1.4767,0.0,0.0,0.0,0.0,-1.4138,-1.4485,-1.6895,-1.7556,-1.7255,-1.655,0.0,0.0,0.0,0.0,0.0,0.0,0.0,-1.7454,-1.9998,-2.2255,-2.4138,-2.5148,-2.5746,-2.6043,-2.6043,-2.4095,-2.1431,-1.84,-1.703,-1.4924,-1.0377,-1.125,0.0,0.0,0.0,-1.7515,-1.9251,-2.2418,-2.487,-2.5963,-2.5791,-2.5477,-2.5253,-2.4478,-2.3693,-2.3063,-2.2601,-2.1712,-2.0435,-1.9362,-1.7044,0.0,0.0,0.0,0.0,0.0,0.0,0.0,0.0,0.0,0.0,0.0,0.0,0.0,0.0,0.0,0.0,0.0,0.0,0.0,0.0,0.0,0.0,0.0,0.0,0.0,0.0,0.0,0.0,-0.6262,-0.6622,-0.649,-0.7547,-0.7812,0.0,0.0,0.0,0.0,0.0,0.0,-1.2178,-1.1914,-1.2565,-1.4463,-1.4267,-1.5154,-1.7173,-1.7732,-1.8338,-1.9119,-1.9896,-2.0464,-2.0878,-2.0878,-2.0816,-2.0665,-2.081,-2.1449,-2.2055,-1.9101,-1.813,-1.8365,-1.7367,-1.6704,-1.6442,-1.7572,-1.7847,-1.8069,-2.0713,-2.1467,-2.1072,-2.0545,-1.9897,-1.9113,-1.7593,0.0,0.0,0.0,0.0,-1.889,-2.1629,-2.3022,-2.4125,-2.5868,-2.6704,-2.7068,-2.7068,-2.6511,-2.5183,-2.2261,-2.0544,-1.813,-1.3753,-1.5035,0.0,-1.2955,-1.6611,-2.0081,-2.1169,-2.3442,-2.5498,-2.6753,-2.6879,-2.6868,-2.6736,-2.6454,-2.5799,-2.4725,-2.4303,-2.3929,-2.3438,-2.1939,-2.0193,-1.8093,0.0,0.0,0.0,0.0,0.0,0.0,0.0,0.0,0.0,0.0,0.0,0.0,0.0,0.0,0.0,0.0,0.0,0.0,0.0,0.0,0.0,0.0,0.0,0.0,0.0,0.0,0.0,0.0,0.0,-0.8707,-1.0921,0.0,0.0,0.0,0.0,-1.1995,-1.2083,-1.2657,-1.3883,-1.3931,-1.4944,-1.7148,-1.6397,-1.6989,-1.9163,-1.9044,-1.9446,-2.0339,-2.1057,-2.1418,-2.1443,-2.1443,-2.1455,-2.1462,-2.1976,-2.2539,-2.3005,-2.2079,-2.1596,-2.1399,-2.1314,-2.0258,-1.9051,-2.0742,-2.1607,-2.2177,-2.3965,-2.4568,-2.4379,-2.3138,-2.1033,-1.92,-2.029,-1.9239,0.0,0.0,-2.2417,-2.379,-2.5731,-2.7211,-2.802,-2.7386,-2.7296,-2.7284,-2.7284,-2.5207,-2.3753,-2.5309,-2.6089,-2.5043,-2.0557,0.0,-2.0939,-2.0593,-2.0372,-2.1716,-2.5649,-2.5787,-2.6189,-2.7846,-2.8021,-2.8247,-2.8725,-2.7968,-2.7366,-2.7151,-2.6239,-2.548,-2.4921,-2.5701,-2.4063,-1.9656,-1.9485,0.0,0.0,0.0,0.0,0.0,0.0,0.0,0.0,0.0,0.0,0.0,0.0,0.0,0.0,0.0,0.0,0.0,0.0,0.0,0.0,0.0,0.0,0.0,0.0,0.0,0.0,0.0,0.0,-1.0598,-1.2184,0.0,-1.1515,-1.2998,-1.4121,-1.4268,-1.5312,-1.6152,-1.6602,-1.6631,-1.6835,-1.7393,-1.7634,-1.8173,-1.9171,-1.9714,-2.0474,-2.1663,-2.1893,-2.2397,-2.31,-2.2723,-2.2949,-2.3627,-2.3464,-2.3904,-2.472,-2.4449,-2.4075,-2.3667,-2.3667,-2.3294,-2.28,-2.3455,-2.3715,-2.3938,-2.4605,-2.482,-2.4768,-2.4685,-2.4255,-2.3882,-2.435,-2.4002,-2.3566,-2.4564,-2.5413,-2.6152,-2.6848,-2.7665,-2.8201,-2.788,-2.7808,-2.7808,-2.7808,-2.7039,-2.6527,-2.7201,-2.6031,-2.4254,-2.1782,-2.2898,-2.3276,-2.0949,-2.1777,-2.3236,-2.4722,-2.5623,-2.6517,-2.7488,-2.8238,-2.8863,-2.944,-2.8822,-2.8213,-2.7858,-2.7157,-2.6768,-2.6744,-2.7069,-2.6635,-2.5208,-2.5167,-2.1974,0.0,0.0,0.0,0.0,0.0,0.0,0.0,0.0,0.0,0.0,0.0,0.0,0.0,0.0,0.0,0.0,0.0,0.0,0.0,0.0,0.0,0.0,0.0,0.0,0.0,-1.0561,-1.1775,-1.1536,-1.3652,-1.4597,-1.3247,-1.5148,-1.6504,-1.6504,-1.7705,-1.8379,-1.8223,-1.8223,-1.8222,-1.8261,-1.8497,-1.9104,-2.0232,-2.0711,-2.1571,-2.2887,-2.3075,-2.3552,-2.4268,-2.3879,-2.4117,-2.4808,-2.4619,-2.4933,-2.5611,-2.5799,-2.5686,-2.5372,-2.5372,-2.5372,-2.5372,-2.5372,-2.5372,-2.5372,-2.5372,-2.5247,-2.5237,-2.6019,-2.6409,-2.6521,-2.685,-2.6853,-2.6741,-2.6741,-2.713,-2.7557,-2.7557,-2.7971,-2.8386,-2.8386,-2.8386,-2.8386,-2.8386,-2.8235,-2.8109,-2.8109,-2.6328,-2.4514,-2.3673,-2.4519,-2.4403,-2.1655,-2.2992,-2.4158,-2.3743,-2.502,-2.6294,-2.7174,-2.7952,-2.8758,-2.9741,-2.8425,-2.7751,-2.8097,-2.6993,-2.6729,-2.7657,-2.6709,-2.6233,-2.6435,-2.6524,-2.3689,-1.78,0.0,0.0,0.0,0.0,0.0,0.0,0.0,0.0,0.0,0.0,0.0,0.0,0.0,0.0,0.0,0.0,0.0,0.0,0.0,0.0,0.0,0.0,0.0,-0.9661,-1.1814,-1.2979,-1.1695,-1.5392,-1.7197,-1.5107,-1.7168,-1.8643,-1.8652,-1.9062,-1.9121,-1.863,-1.8621,-1.9023,-1.9885,-1.9143,-1.9944,-2.2468,-2.2206,-2.2764,-2.4054,-2.4594,-2.4858,-2.487,-2.4858,-2.4858,-2.4895,-2.5385,-2.5598,-2.5661,-2.6214,-2.6508,-2.6533,-2.6508,-2.6496,-2.6508,-2.6496,-2.6508,-2.6589,-2.6521,-2.6168,-2.5924,-2.7314,-2.7201,-2.6764,-2.7536,-2.7601,-2.7377,-2.7306,-2.7708,-2.8134,-2.8134,-2.8536,-2.895,-2.895,-2.895,-2.895,-2.895,-2.8536,-2.816,-2.816,-2.7235,-2.6546,-2.6534,-2.5581,-2.4468,-2.3327,-2.4033,0.0,-2.3221,-2.4066,-2.5418,-2.6948,-2.715,-2.7854,-2.9551,-2.6766,-2.5869,-2.8021,-2.5972,-2.5595,-2.7696,-2.4872,-2.328,-2.3267,-2.3337,-2.2984,-2.2253,0.0,0.0,0.0,0.0,0.0,0.0,0.0,0.0,0.0,0.0,0.0,0.0,0.0,0.0,0.0,0.0,0.0,0.0,0.0,0.0,0.0,-0.935,-1.0415,-1.0934,-1.2771,-1.4357,-1.5104,-1.6874,-1.7891,-1.7607,-1.8223,-1.8769,-1.9082,-1.9502,-1.9687,-1.957,-1.9863,-2.0033,-1.9919,-2.0978,-2.1717,-2.2117,-2.343,-2.4439,-2.5159,-2.531,-2.5598,-2.6,-2.5573,-2.5611,-2.6,-2.5724,-2.5837,-2.6201,-2.5937,-2.6088,-2.6483,-2.6,-2.5837,-2.5892,-2.6543,-2.7432,-2.8247,-2.7604,-2.7507,-2.7782,-2.8303,-2.851,-2.8712,-2.8921,-2.8956,-2.875,-2.8075,-2.8285,-2.8699,-2.8699,-2.9126,-2.9553,-2.9553,-2.9553,-2.9553,-2.9553,-2.944,-2.9327,-2.9327,-2.7782,-2.6611,-2.7025,-2.58,-2.4687,-2.4373,-2.393,-2.3466,-2.3102,-2.4096,-2.4508,-2.3722,-2.4344,-2.5304,-2.6589,-2.5859,-2.6269,-2.8525,-2.8724,-2.893,-2.9222,-2.9059,-2.9007,-2.9189,-2.6073,-2.4231,0.0,0.0,0.0,0.0,0.0,0.0,0.0,0.0,0.0,0.0,0.0,0.0,0.0,0.0,0.0,0.0,0.0,0.0,0.0,0.0,0.0,0.0,-1.0352,-1.1226,-1.1597,-1.3057,-1.4555,-1.5878,-1.7009,-1.7942,-1.8543,-1.8965,-1.9277,-1.9531,-1.9941,-2.0185,-2.0185,-2.043,-2.0449,-2.0195,-2.1902,-2.2732,-2.2663,-2.436,-2.5444,-2.5963,-2.5963,-2.6138,-2.6521,-2.6113,-2.6138,-2.6521,-2.6352,-2.649,-2.6779,-2.644,-2.6502,-2.6716,0.0,0.0,0.0,0.0,-2.7853,-2.8636,-2.8695,-2.8716,-2.8851,-2.9376,-2.9848,-3.0063,-2.9591,-2.9636,-2.9692,-2.873,-2.885,-2.9289,-2.9289,-2.9541,-2.9792,-2.9792,-2.9792,-2.9792,-2.9792,-2.9792,-2.9792,-2.9792,-2.8051,0.0,-2.6898,-2.5352,-2.387,-2.3125,-2.3083,-2.2881,-2.2158,-2.3253,-2.3895,-2.3387,-2.4282,-2.5447,-2.6524,-2.5743,0.0,0.0,0.0,-2.8146,-2.781,-2.8734,0.0,0.0,0.0,-2.5898,-2.7297,-2.4974,0.0,0.0,-2.2044,-2.1228,0.0,0.0,0.0,0.0,0.0,0.0,0.0,0.0,0.0,0.0,0.0,0.0,0.0,0.0,0.0,0.0,-1.1172,-1.1917,-1.1917,-1.282,-1.3909,-1.4942,-1.6286,-1.7567,-1.8418,-1.936,-1.9932,-1.998,-2.0342,-2.0566,-2.0566,-2.0566,0.0,0.0,0.0,-2.3297,-2.3751,-2.5271,-2.6285,-2.6653,-2.6653,-2.6653,-2.6653,-2.6653,-2.6653,-2.6747,-2.7155,-2.7344,-2.7281,-2.7281,-2.7281,-2.7168,-2.6236,-2.6257,-2.6918,-2.7802,-2.8429,-2.8932,-2.9895,0.0,0.0,-3.0616,-3.1017,-3.1005,-2.9917,-3.0032,-3.0309,-2.9314,-2.9402,-2.9792,-2.9792,-2.9792,-2.9792,-2.9792,-2.9792,-2.9792,-2.9792,-2.9792,-2.9792,-2.9792,-2.8131,-2.6637,-2.6554,-2.4648,-2.2617,-2.1084,-2.2158,-2.2588,-2.1055,-2.2187,-2.3471,-2.442,-2.5398,0.0,-2.7739,-2.6082,-2.6082,-2.8813,-2.7046,-2.5853,-2.5848,-2.6621,-2.6837,-2.6341,-2.6255,-2.7983,-3.1586,-3.1586,-3.1586,-3.1422,-2.3727,-2.228,0.0,0.0,0.0,0.0,0.0,0.0,0.0,0.0,0.0,0.0,0.0,0.0,0.0,0.0,0.0,-1.0916,-1.1683,-1.2218,-1.2218,-1.2209,-1.267,-1.3852,-1.5927,-1.7388,-1.8009,-1.9163,-2.0059,-2.041,-2.0518,-2.0566,-2.0566,-2.0566,-2.0934,-2.1735,-2.3243,-2.4423,-2.5368,-2.6883,-2.7726,-2.7783,-2.7783,0.0,-2.7783,-2.7783,-2.7783,-2.7795,-2.7896,-2.7695,-2.7281,-2.7281,-2.7281,-2.7289,-2.7387,-2.7931,-2.8776,-3.0178,-3.1464,-3.2429,-3.1945,-3.2033,-3.2274,-3.1734,-3.1931,-3.2107,-3.1129,-3.0916,0.0,-2.991,-2.9704,-2.9792,-2.9792,-2.9792,-2.9792,-2.9792,-2.9792,-2.9792,-2.9792,-2.9792,-2.9792,-2.9792,-2.8688,-2.7533,-2.6637,-2.4648,-2.3027,-2.2695,-2.293,-2.3018,-2.2685,-2.293,-2.3013,-2.273,-2.2881,-2.386,-2.5805,-2.5645,-2.6576,-2.949,-2.9361,-2.9555,-3.0333,-2.9997,-3.0143,-3.0859,-3.0294,-3.0789,-3.2332,-3.2332,-3.2332,-3.2273,-3.0082,-2.9759,0.0,0.0,0.0,0.0,0.0,0.0,0.0,0.0,0.0,0.0,0.0,-0.9289,-1.0163,0.0,-1.1066,-1.1634,-1.206,-1.2251,-1.2104,-1.2511,-1.3259,-1.459,-1.5802,-1.7187,-1.877,-1.9753,-2.0332,-2.0547,-2.0566,-2.0789,-2.1298,-2.1298,-2.1849,-2.3123,-2.4657,-2.5803,-2.6614,-2.7903,-2.8511,-2.8511,-2.7705,-2.757,-2.8097,-2.757,-2.757,-2.8122,-2.8398,-2.836,-2.8109,-2.8109,-2.7946,-2.7839,-2.8778,-2.9186,-2.9321,-3.0099,-3.1078,-3.2055,-3.1962,-3.2072,-3.226,-3.1703,-3.2003,-3.2321,-3.0908,-3.0833,-3.097,-3.0075,-2.9792,-2.9792,-2.9792,-2.9792,-2.9792,-2.9792,-2.9792,-2.9792,-2.9792,-2.9792,-2.9792,-2.9792,-2.8858,-2.7936,-2.736,-2.588,-2.4392,-2.3299,-2.3135,-2.3135,-2.3135,-2.3135,-2.3222,-2.3437,-2.3971,-2.4993,-2.6689,-2.7335,-2.8288,-2.9716,-3.0361,-3.0758,-3.0882,-3.0992,-3.1183,-3.1345,-3.1036,-3.1075,-3.1539,-3.2072,-3.2273,-3.232,-3.2467,-3.2691,0.0,0.0,0.0,0.0,0.0,0.0,0.0,-0.8297,-0.8501,-0.9695,-0.998,-1.0263,-1.1234,-1.1402,-1.1591,-1.2217,-1.2305,-1.2291,-1.2271,-1.3028,-1.4225,-1.5861,-1.6272,-1.7229,-1.9333,-2.0177,-2.0566,-2.0566,-2.0566,-2.1011,-2.1962,-2.2122,-2.294,-2.4532,-2.6047,-2.7124,-2.7811,-2.8393,-2.876,-2.876,-2.7227,-2.6947,-2.7803,-2.71,-2.7264,-2.8127,-2.87,-2.8988,-2.9089,-2.8976,-2.8737,-2.8547,-2.9779,-2.9954,-2.9523,-2.9865,-3.04,-3.1089,-3.164,-3.1805,-3.1748,-3.1303,-3.1669,-3.2033,-3.0279,-3.0355,-3.0758,-2.9998,-2.9792,-2.9792,-2.9792,-2.9792,-2.9792,-2.9792,-2.9792,-2.9792,-2.9792,-2.9792,-2.9792,-2.9792,-2.9028,-2.8347,-2.8176,-2.736,-2.6047,-2.38,-2.3474,-2.3387,-2.3135,-2.3299,-2.3887,-2.5041,-2.613,-2.7209,-2.8347,-2.9275,-2.9792,-2.9792,-3.0482,-3.0699,-3.0155,-3.0842,-3.1097,-3.0746,-3.0555,-3.0638,-3.0774,-3.158,-3.2119,-3.2342,-3.3206,-3.3597,-1.0017,-0.8649,-0.8015,-0.8542,-0.8429,-0.8721,0.0,-1.0781,-1.0495,-1.1764,-1.1999,-1.2053,-1.2143,-1.2177,-1.2217,-1.2285,-1.2305,-1.2579,-1.3411,-1.3405,-1.4246,-1.6722,-1.7423,-1.7823,-1.8063,-1.9621,-2.0566,-2.0566,-2.0566,-2.1011,-2.1962,-2.2513,-2.3667,-2.5583,-2.6792,-2.7827,-2.8762,-2.8348,-2.8171,-2.8171,-2.7071,-2.656,-2.6723,-2.7519,-2.8009,-2.8143,-2.8709,-2.9214,-2.9654,-2.9139,-2.9202,-2.9603,-2.982,-2.9807,-2.9961,-3.1626,-3.2329,-3.2414,-3.2469,-3.2496,-3.2368,-3.1509,-3.1241,-3.118,-3.0139,-2.9856,-2.9934,-2.9869,-2.9792,-2.9792,-2.9792,-2.9792,-2.9792,-2.9792,-2.9792,-2.9792,-2.9792,-2.9792,-2.9792,-2.9792,-2.9714,-2.9275,-2.8255,-2.8004,-2.7186,-2.4957,-2.4617,-2.4211,-2.3222,-2.3963,-2.5041,-2.6224,-2.7279,-2.8347,-2.9534,-2.9714,-2.9792,-2.9792,-2.9934,-2.9908,-2.9845,-2.9986,-3.0366,-3.1129,-3.0553,-3.0632,-3.1461,-3.1599,-3.2092,-3.2967,-3.3633,-3.4069,-1.225,-1.1195,-1.0562,-1.1116,-1.1319,-1.1664,-1.2845,-1.2835,-1.2664,-1.302,-1.3091,-1.2952,-1.2372,-1.2305,-1.2305,-1.2305,-1.2305,-1.2604,-1.3349,-1.4237,-1.5287,-1.6758,-1.8192,-1.9033,-1.9033,-1.9966,-2.0566,-2.0566,-2.0566,-2.1231,-2.2776,-2.3121,-2.4172,-2.6131,-2.6657,-2.7103,-2.7537,-2.7267,-2.7209,-2.7128,-2.6047,-2.5891,-2.6472,-2.6284,-2.6849,-2.8164,-2.9028,-2.9566,-2.9779,-2.9528,-2.9578,-2.9792,-2.9792,-2.9792,-2.9856,-3.0709,-3.0996,-3.0996,-3.0996,-3.0996,-3.0921,-3.0495,-3.0419,-3.0279,-2.9934,-2.9792,-2.9792,-2.9792,-2.9792,-2.9792,-2.9792,-2.9792,-2.9792,-2.9792,-2.9792,-2.9792,-2.9792,-3.0203,-3.062,-3.062,-3.1057,-3.1093,-3.0101,-2.9859,-2.9151,-2.7,-2.6202,-2.5641,-2.5147,-2.5473,-2.6213,-2.7279,-2.845,-2.9287,-2.9792,-2.9792,-2.9792,-2.9792,-2.9792,-2.9792,-2.9792,-2.9792,-2.9998,-3.0343,-3.0112,-3.0134,-3.0555,-3.1116,-3.1595,-3.2036,-3.3336,-3.41,-1.318,-1.2784,-1.2624,-1.3092,-1.3584,-1.3952,-1.4266,-1.4353,-1.4281,-1.4104,-1.3882,-1.3455,-1.2806,-1.2445,-1.2305,-1.2305,-1.2305,-1.2656,-1.3698,-1.4864,-1.6071,-1.7134,-1.873,-1.9785,-1.9902,-2.0312,-2.0712,-2.0934,-2.1011,-2.1745,-2.3441,-2.4067,-2.5015,-2.6474,-2.6771,-2.6799,-2.6472,-2.6224,-2.6058,-2.6058,-2.4882,-2.4798,-2.5568,-2.5389,-2.6449,-2.8597,-2.9443,-2.9792,-2.9792,-2.9792,-2.9792,-2.9792,-2.9792,-2.9792,-2.9792,-2.9792,-2.9792,-2.9792,-2.9792,-2.9792,-2.9792,-2.9792,-2.9792,-2.9792,-2.9792,-2.9792,-2.9792,-2.9792,-2.9792,-2.9792,-2.9792,-2.9792,-2.9792,-2.9792,-2.9792,-2.9856,-3.0139,-3.0696,-3.1241,-3.1536,-3.2177,-3.2393,-3.1669,-3.1609,-3.0992,-2.9241,-2.8299,-2.7498,-2.6637,-2.6719,-2.7371,-2.8438,-2.9287,-2.9792,-2.9792,-2.9792,-2.9792,-2.9792,-2.9792,-2.9792,-2.9792,-2.9792,-2.9792,-2.9792,-2.9792,-2.9792,-2.9792,-3.0482,-3.1119,-3.1609,-3.2961,-3.3891,-1.1947,-1.2311,-1.3128,-1.3812,-1.4337,-1.478,-1.5085,-1.5168,-1.5184,-1.5155,-1.4378,-1.3673,-1.3673,-1.2879,-1.2305,-1.2305,-1.2305,-1.2945,-1.4863,-1.5163,-1.6016,-1.8273,-1.9023,-1.9463,-1.9873,-2.0312,-2.1011,-2.1886,-2.1952,-2.2403,-2.3441,-2.5389,-2.6502,-2.6498,-2.7537,-2.7579,-2.6472,-2.5378,-2.4872,-2.4872,-2.3714,-2.3135,-2.3309,-2.5484,-2.7637,-2.9792,-2.9792,-2.9792,-2.9792,-2.9792,-2.9792,-2.9792,-2.9792,-2.9792,-2.9792,-2.9792,-2.9792,-2.9792,-2.9792,-2.9792,-2.9792,-2.9792,-2.9792,-2.9792,-2.9792,-2.9792,-2.9792,-2.9792,-2.9792,-2.9792,-2.9792,-2.9792,-2.9792,-2.9792,-2.9792,-3.0075,-3.097,-3.118,-3.1462,-3.2393,-3.2593,-3.2593,-3.2522,-3.2522,-3.2249,-3.1241,-3.1093,-2.9923,-2.6871,-2.7452,-2.8518,-2.9624,-2.9792,-2.9792,-2.9792,-2.9792,-2.9792,-2.9792,-2.9792,-2.9792,-2.9792,-2.9792,-2.9792,-2.9792,-2.9792,-2.9792,-2.9792,-2.9869,-3.0784,-3.2522,-3.2593,-3.3685,-1.3565,-1.4403,-1.5235,-1.6071,-1.6581,-1.6912,-1.7051,-1.7079,-1.6862,-1.6289,-1.5709,-1.5199,-1.4513,-1.4169,-1.3966,-1.3966,-1.3565,-1.403,-1.6223,-1.6237,-1.6824,-1.9203,-1.9873,-2.048,-2.1206,-2.0844,-2.1011,-2.1962,-2.2027,-2.2906,-2.4947,-2.5666,-2.6024,-2.5937,-2.6268,-2.5705,-2.4221,-2.3887,-2.3637,-2.3637,-2.3299,-2.3135,-2.3135,-2.5473,-2.6894,-2.7718,-2.9131,-2.9792,-2.9792,-2.9792,-2.9792,-2.9792,-2.9792,-2.9792,-2.9792,-2.9792,-2.9792,-2.9792,-2.9792,-2.9792,-2.9702,-2.8937,-2.8688,-2.8688,-2.8688,-2.8688,-2.8858,-2.9624,-2.9792,-2.9792,-2.9792,-2.9792,-2.9792,-2.9792,-2.9792,-3.0075,-3.097,-3.2051,-3.3056,-3.3988,-3.4744,-3.4965,-3.4284,-3.3802,-3.3031,-3.1462,-3.0696,-2.9883,-2.887,-2.9028,-2.9365,-2.9792,-2.9792,-2.9792,-2.9792,-2.9792,-2.9792,-2.9792,-2.9792,-2.9792,-2.9792,-2.9792,-2.9792,-2.9792,-2.9792,-2.9792,-2.9792,-3.0419,-3.1044,-3.1669,-3.2961,-3.3891,-1.4965,-1.5826,-1.6545,-1.7409,-1.7812,-1.8008,-1.8008,-1.8008,-1.7862,-1.7207,-1.6647,-1.6034,-1.5433,-1.503,-1.4883,-1.5186,-1.4695,-1.5072,-1.7305,-1.6776,-1.705,-1.9609,-1.9851,-2.0207,-2.1431,-2.0934,-2.1155,-2.2403,-2.2553,-2.3494,-2.5706,-2.6299,-2.6344,-2.5608,-2.5809,-2.4984,-2.3135,-2.3135,-2.3135,-2.3135,-2.3135,-2.3299,-2.38,-2.521,-2.6141,-2.6565,-2.8371,-2.9197,-2.9197,-2.9624,-2.9792,-2.9792,-2.9792,-2.9792,-2.9792,-2.9792,-2.9792,-2.9792,-2.9792,-2.9534,-2.9106,-2.8347,-2.7844,-2.7614,-2.8004,-2.8096,-2.8347,-2.9456,-2.993,-3.0093,-3.0093,-3.0093,-3.0093,-3.0093,-2.993,-3.0203,-3.1729,-3.2864,-3.4082,-3.5546,-3.6354,-3.6588,-3.5966,-3.4998,-3.3858,-3.242,-3.1415,-3.057,-2.9869,-2.9792,-2.9792,-2.9792,-2.9792,-2.9792,-2.9792,-2.9792,-2.9792,-2.9792,-2.9792,-2.9792,-2.9792,-2.9792,-2.9792,-2.9792,-2.9792,-3.0011,-3.0279,-3.0908,-3.1536,-3.2249,-3.3449,-3.4177,-1.5918,-1.6497,-1.7104,-1.7829,-1.8008,-1.8066,-1.7978,-1.7998,-1.7978,-1.7891,-1.7019,-1.6172,-1.6148,-1.5414,-1.516,-1.5966,-1.5659,-1.6078,-1.8225,-1.6955,-1.6759,-1.9609,-1.9012,-1.9007,-2.044,-2.0566,-2.1385,-2.3294,-2.3441,-2.418,-2.5753,-2.7274,-2.7342,-2.5732,-2.6225,-2.54,-2.3135,-2.3135,-2.3135,-2.3135,-2.3135,-2.3637,-2.4702,-2.4872,-2.5462,-2.6554,-2.7695,-2.8176,-2.8255,-2.9365,-2.9869,-2.9856,-2.9856,-2.9934,-2.9934,-2.9934,-2.9934,-2.9934,-2.9869,-2.9106,-2.8176,-2.8016,-2.7371,-2.6812,-2.7799,-2.8131,-2.8383,-2.953,-3.0256,-3.0658,-3.0658,-3.0658,-3.0658,-3.0658,-3.0256,-3.0586,-3.3069,-3.3647,-3.4423,-3.6956,-3.7464,-3.7434,-3.7375,-3.6109,-3.4816,-3.4113,-3.3241,-3.2046,-3.0139,-2.9934,-2.9856,-2.9856,-2.9869,-2.9792,-2.9792,-2.9792,-2.9792,-2.9792,-2.9792,-2.9792,-2.9792,-2.9792,-2.9792,-2.9792,-2.9869,-3.0279,-3.118,-3.1315,-3.2249,-3.4027,-3.4027,-3.461,-1.5938,-1.7359,-1.8534,-1.8123,-1.8462,-1.8696,-1.774,-1.7783,-1.777,-1.6819,-1.6481,-1.6018,-1.5067,-1.549,-1.5914,-1.5737,-1.6268,-1.7234,-1.8889,-1.8313,-1.8388,-2.0178,-2.0159,-2.0198,-2.0557,-2.0566,-2.1078,-2.2253,-2.3073,-2.4328,-2.6265,-2.7471,-2.7524,-2.6341,-2.6405,-2.54,-2.3135,-2.3135,-2.3135,-2.3135,-2.3135,-2.3212,-2.3551,-2.5305,-2.6224,-2.6637,-2.8542,-2.9365,-2.9365,-2.9702,-3.0216,-3.0833,-3.0833,-3.1267,-3.1901,-3.1901,-3.1901,-3.1756,-3.1119,-3.0177,-2.9118,-2.7452,-2.729,-2.7672,-2.7575,-2.8093,-2.9006,-3.0524,-3.1085,-3.1198,-3.1198,-3.1198,-3.1198,-3.1198,-3.1085,-3.1545,-3.369,-3.4616,-3.5606,-3.7727,-3.8138,-3.7838,-3.6881,-3.6365,-3.5657,-3.4196,-3.3808,-3.3241,-3.2046,-3.1267,-3.0833,-3.0833,-3.0203,-2.9792,-2.9792,-2.9792,-2.9792,-2.9792,-2.9792,-2.9792,-2.9792,-2.9792,-2.9792,-2.9792,-3.0482,-3.097,-3.118,-3.2593,-3.3518,-3.4027,-3.4758,-3.5559,-1.6237,-1.7482,-1.8495,-1.7876,-1.8613,-1.9062,-1.7486,-1.76,-1.7564,-1.5904,-1.5553,-1.5202,-1.4212,-1.5152,-1.6153,-1.6399,-1.7242,-1.8328,-1.9892,-1.9127,-1.8979,-2.043,-2.0167,-2.0079,-2.0557,-2.0566,-2.0779,-2.1375,-2.2713,-2.4386,-2.6467,-2.7087,-2.7126,-2.6532,-2.6047,-2.4882,-2.3135,-2.3135,-2.3387,-2.3887,-2.3887,-2.4135,-2.4648,-2.5891,-2.6483,-2.6565,-2.8279,-2.9028,-2.9106,-3.0037,-3.0696,-3.1254,-3.1669,-3.2341,-3.3066,-3.3066,-3.3066,-3.2994,-3.2413,-3.1689,-3.0633,-2.8333,-2.7614,-2.78,-2.8237,-2.8808,-2.9699,-3.1584,-3.1958,-3.182,-3.2367,-3.2136,-3.175,-3.175,-3.1958,-3.2606,-3.4457,-3.5474,-3.6653,-3.8481,-3.8841,-3.8422,-3.712,-3.6881,-3.6417,-3.489,-3.4691,-3.4476,-3.3973,-3.2678,-3.1815,-3.1815,-3.1328,-3.1071,-3.1071,-3.1071,-3.1071,-3.1071,-3.1071,-3.1071,-3.1071,-3.1071,-3.1071,-3.1071,-3.1536,-3.2033,-3.2464,-3.3518,-3.4245,-3.4691,-3.5544,-3.6228,-1.656,-1.7276,-1.7895,-1.7566,-1.868,-1.9354,-1.7263,-1.7413,-1.7313,-1.5067,-1.4351,-1.4027,-1.3418,-1.4496,-1.5864,-1.7127,-1.8152,-1.9384,-2.1052,-1.9863,-1.9257,-2.0663,-1.9835,-1.9599,-2.0489,-2.0566,-2.0634,-2.0789,-2.2542,-2.4465,-2.6316,-2.6637,-2.6729,-2.6696,-2.5462,-2.4382,-2.356,-2.3551,-2.4049,-2.5041,-2.5041,-2.5546,-2.6483,-2.6637,-2.6719,-2.6801,-2.7855,-2.8347,-2.8505,-3.0417,-3.1241,-3.1476,-3.2547,-3.3336,-3.3954,-3.4096,-3.4082,-3.3954,-3.3868,-3.332,-3.2376,-2.9841,-2.841,-2.8113,-2.9559,-3.0085,-3.0692,-3.2856,-3.2995,-3.2841,-3.3766,-3.3242,-3.2504,-3.2504,-3.2839,-3.3628,-3.5217,-3.6625,-3.7915,-3.9275,-3.9681,-3.9345,-3.794,-3.7654,-3.7136,-3.5818,-3.5564,-3.5504,-3.5504,-3.3905,-3.282,-3.282,-3.2664,-3.2593,-3.2593,-3.2593,-3.2593,-3.2593,-3.2593,-3.2593,-3.2593,-3.2593,-3.2593,-3.2593,-3.2818,-3.3297,-3.4142,-3.438,-3.4882,-3.5804,-3.6413,-3.6799,-1.6194,-1.7509,-1.8715,-1.7895,-1.9232,-2.0016,-1.7269,-1.7071,-1.6638,-1.3879,-1.3179,-1.284,-1.2078,-1.3415,-1.4993,-1.6125,-1.8449,-2.0522,-2.168,-2.1554,-2.148,-2.1725,-2.0914,-2.0401,-2.0566,-2.0566,-2.0934,-2.1669,-2.3221,-2.4529,-2.537,-2.695,-2.7824,-2.782,-2.587,-2.5126,-2.5891,-2.5891,-2.5975,-2.6224,-2.6224,-2.6307,-2.6565,-2.7441,-2.7844,-2.7855,-2.9028,-2.9534,-2.9599,-3.0745,-3.1669,-3.2506,-3.4016,-3.5169,-3.602,-3.6537,-3.6404,-3.5878,-3.5047,-3.4337,-3.3296,-3.0329,-2.9871,-3.056,-3.0884,-3.1733,-3.2882,-3.507,-3.5241,-3.4811,-3.4954,-3.4508,-3.3923,-3.3923,-3.3995,-3.4534,-3.6187,-3.8391,-4.0125,-4.0401,-4.1095,-4.1094,-3.957,-3.8835,-3.7973,-3.655,-3.5848,-3.5504,-3.5504,-3.4476,-3.3739,-3.3739,-3.3031,-3.2593,-3.2593,-3.2593,-3.2593,-3.2593,-3.2593,-3.2593,-3.2593,-3.2593,-3.2593,-3.2593,-3.3889,-3.4651,-3.4805,-3.6134,-3.6947,-3.7215,-3.7389,-3.7783,-1.6303,-1.7589,-1.8737,-1.8196,-1.9691,-2.0399,-1.7111,-1.6877,-1.6385,-1.2963,-1.1964,-1.1608,-1.1186,-1.246,-1.402,-1.5359,-1.8058,-2.0342,-2.1308,-2.2221,-2.2776,-2.2776,-2.2403,-2.2124,-2.2124,-2.2124,-2.2434,-2.3123,-2.4408,-2.5298,-2.5896,-2.7292,-2.7819,-2.7267,-2.6213,-2.5975,-2.6472,-2.6483,-2.6801,-2.7371,-2.7371,-2.7614,-2.8211,-2.8779,-2.8937,-2.9028,-2.9534,-3.0075,-3.062,-3.1536,-3.2715,-3.3974,-3.5307,-3.6497,-3.7509,-3.7808,-3.7524,-3.6888,-3.6419,-3.5633,-3.452,-3.2883,-3.2353,-3.2422,-3.2797,-3.3245,-3.4036,-3.5591,-3.5398,-3.4886,-3.5489,-3.4966,-3.4293,-3.4293,-3.498,-3.6094,-3.7901,-3.9551,-4.0811,-4.128,-4.1739,-4.1645,-4.0561,-3.9716,-3.8716,-3.7342,-3.6507,-3.5893,-3.5549,-3.5067,-3.4758,-3.4758,-3.4409,-3.4124,-3.4124,-3.4124,-3.4124,-3.4124,-3.4124,-3.4124,-3.4124,-3.4441,-3.4614,-3.4614,-3.5722,-3.6443,-3.694,-3.7719,-3.8175,-3.8304,-3.9093,-3.9266,-1.6518,-1.7578,-1.8649,-1.8452,-1.9945,-2.0565,-1.7003,-1.6724,-1.6132,-1.2398,-1.1035,-1.0593,-1.0831,-1.188,-1.3314,-1.5096,-1.7576,-1.9791,-2.1263,-2.2514,-2.3455,-2.3772,-2.3661,-2.3514,-2.3514,-2.3615,-2.3913,-2.4596,-2.5808,-2.6636,-2.7059,-2.7741,-2.7855,-2.7221,-2.6964,-2.6964,-2.7221,-2.7221,-2.7626,-2.8426,-2.8426,-2.8937,-2.9792,-2.9792,-2.9792,-2.9792,-2.9792,-3.0355,-3.1254,-3.2386,-3.3649,-3.5146,-3.6408,-3.7509,-3.8407,-3.8556,-3.8182,-3.7614,-3.7614,-3.6866,-3.5851,-3.559,-3.4711,-3.3862,-3.4641,-3.4877,-3.5129,-3.6317,-3.5853,-3.5187,-3.6014,-3.5367,-3.4615,-3.4919,-3.6273,-3.7908,-3.9606,-4.0661,-4.1478,-4.2125,-4.2442,-4.2326,-4.159,-4.0785,-3.9753,-3.8404,-3.7523,-3.6717,-3.5872,-3.591,-3.591,-3.5718,-3.5619,-3.5504,-3.5504,-3.5504,-3.5504,-3.5504,-3.5668,-3.5793,-3.5929,-3.6622,-3.7086,-3.7223,-3.7861,-3.8499,-3.9185,-3.9341,-3.9487,-3.9667,-4.0852,-4.0767,-1.6536,-1.7578,-1.8673,-1.8667,-2.0068,-2.0627,-1.7247,-1.6554,-1.5643,-1.2278,-1.0721,-1.0295,-1.1324,-1.2014,-1.3281,-1.5956,-1.748,-1.9391,-2.2464,-2.2727,-2.3187,-2.4685,-2.4047,-2.3514,-2.3514,-2.3918,-2.4648,-2.5583,-2.7495,-2.8637,-2.8687,-2.827,-2.8518,-2.9456,-2.8518,-2.8438,-2.9468,-2.9468,-2.9546,-2.9624,-2.9624,-2.9714,-2.9792,-2.9792,-2.9792,-2.9792,-2.9792,-3.0355,-3.1281,-3.2896,-3.41,-3.5218,-3.7371,-3.8287,-3.8467,-3.9095,-3.8886,-3.8302,-3.8302,-3.7823,-3.724,-3.7216,-3.6098,-3.5123,-3.6359,-3.6733,-3.7083,-3.8676,-3.8136,-3.7114,-3.7267,-3.6335,-3.5723,-3.7067,-3.8513,-3.9817,-4.0672,-4.2019,-4.3108,-4.3169,-4.3814,-4.4105,-4.3224,-4.2512,-4.1537,-3.9962,-3.9125,-3.8157,-3.6708,-3.716,-3.7279,-3.6554,-3.5894,-3.5504,-3.5504,-3.5504,-3.5504,-3.5504,-3.6117,-3.6786,-3.7466,-3.8273,-3.9014,-3.9697,-4.0353,-4.072,-4.0783,-4.1422,-4.1768,-4.1888,-4.2012,-4.2036,-1.777,-1.8844,-1.9875,-1.9875,-2.049,-2.03,-1.7639,-1.6509,-1.5266,-1.263,-1.1462,-1.1161,-1.1939,-1.2266,-1.3094,-1.5191,-1.6748,-1.8292,-1.9936,-2.1712,-2.3119,-2.3781,-2.4723,-2.5396,-2.5721,-2.6299,-2.6906,-2.7606,-2.8761,-2.9453,-2.9453,-2.9241,-2.9365,-2.9792,-2.9365,-2.9365,-2.9792,-2.9792,-2.9792,-2.9792,-2.9792,-2.9792,-2.9792,-2.9792,-2.9792,-2.9792,-2.9792,-3.0355,-3.1294,-3.2965,-3.4381,-3.5767,-3.7653,-3.8646,-3.9035,-3.932,-3.899,-3.8392,-3.8392,-3.7958,-3.7479,-3.7868,-3.7585,-3.7098,-3.7175,-3.7219,-3.7334,-3.7983,-3.7823,-3.7526,-3.8035,-3.7899,-3.7668,-3.8286,-3.9192,-4.026,-4.1531,-4.2583,-4.3443,-4.4006,-4.4384,-4.4514,-4.4138,-4.3431,-4.2407,-4.0932,-4.0022,-3.8994,-3.7539,-3.7573,-3.769,-3.7338,-3.7055,-3.689,-3.689,-3.689,-3.689,-3.689,-3.7553,-3.8125,-3.841,-3.9524,-4.0299,-4.0571,-4.1276,-4.1834,-4.2362,-4.2639,-4.2851,-4.2942,-4.2942,-4.2707,-1.8541,-1.967,-2.0756,-2.092,-2.0844,-2.0139,-1.789,-1.6509,-1.5065,-1.2868,-1.1977,-1.1751,-1.2316,-1.2416,-1.2956,-1.4639,-1.591,-1.7061,-1.8279,-2.0451,-2.2096,-2.2585,-2.418,-2.5586,-2.6477,-2.7919,-2.9138,-2.9899,-3.0112,-3.0216,-3.0216,-2.9934,-2.9792,-2.9792,-2.9792,-2.9792,-2.9792,-2.9792,-2.9792,-2.9792,-2.9792,-2.9792,-2.9792,-3.0075,-3.0075,-2.9869,-3.0355,-3.0983,-3.1736,-3.3581,-3.5125,-3.6585,-3.8121,-3.899,-3.9424,-3.9424,-3.911,-3.8691,-3.8691,-3.8392,-3.8078,-3.8542,-3.8691,-3.8616,-3.8138,-3.8003,-3.8003,-3.8003,-3.8045,-3.8226,-3.8885,-3.9336,-3.9628,-3.9822,-4.0437,-4.1301,-4.2659,-4.3373,-4.3873,-4.4514,-4.4587,-4.4587,-4.4587,-4.4064,-4.3265,-4.2059,-4.1116,-4.0105,-3.8674,-3.8448,-3.8374,-3.8149,-3.8513,-3.8561,-3.7838,-3.7998,-3.8126,-3.8126,-3.9059,-3.9661,-3.9871,-4.1097,-4.1792,-4.2081,-4.2509,-4.3092,-4.368,-4.3464,-4.333,-4.342,-4.3656,-4.3589,-1.8454,-1.967,-2.0857,-2.1343,-2.1066,-2.0139,-1.789,-1.6509,-1.5065,-1.2868,-1.1977,-1.1751,-1.2316,-1.2416,-1.2956,-1.4639,-1.4928,-1.5869,-1.8631,-1.8995,-1.9673,-2.1305,-2.2008,-2.3012,-2.4682,-2.8205,-3.0994,-3.2481,-3.1669,-3.118,-3.118,-3.0279,-2.9792,-2.9792,-2.9792,-2.9792,-2.9792,-2.9792,-2.9792,-2.9792,-2.9792,-2.9792,-2.9869,-3.0758,-3.0696,-2.9934,-3.1756,-3.2593,-3.2761,-3.5011,-3.6497,-3.7539,-3.8886,-3.9409,-3.9424,-3.9424,-3.9424,-3.9409,-3.9409,-3.9409,-3.9394,-3.9409,-3.9409,-3.9409,-3.9394,-3.9394,-3.9394,-3.9394,-3.9488,-3.9745,-3.9923,-4.0603,-4.1354,-4.2121,-4.2852,-4.3567,-4.4401,-4.457,-4.4587,-4.4587,-4.4587,-4.4587,-4.4587,-4.457,-4.4316,-4.3521,-4.2777,-4.1715,-4.0293,-4.0079,-3.9782,-3.8962,-4.0263,-4.0254,-3.7985,-3.8488,-3.8889,-3.8889,-4.0344,-4.1486,-4.2253,-4.2981,-4.3775,-4.4553,-4.457,-4.457,-4.457,-4.3809,-4.342,-4.3436,-4.4215,-4.4959,-1.7597,-1.841,-1.8932,-1.8731,-1.8555,-1.8041,-1.6559,-1.5668,-1.4714,-1.3235,-1.2797,-1.2735,-1.291,-1.2935,-1.3521,-1.5166,-1.5429,-1.5869,-1.7137,-1.9271,-2.0903,-2.143,-2.5266,-2.846,-2.9994,-3.1205,-3.2116,-3.2579,-3.2321,-3.2177,-3.2177,-3.1254,-3.0482,-2.9792,-2.9792,-2.9792,-2.9792,-2.9792,-2.9792,-2.9792,-2.9792,-3.0139,-3.0758,-3.1044,-3.1389,-3.1756,-3.2321,-3.2593,-3.2761,-3.5082,-3.6199,-3.6643,-3.8656,-3.9424,-3.9424,-3.9424,-3.9424,-3.9424,-3.9424,-3.9424,-3.9424,-3.9424,-3.9424,-3.9481,-4.0115,-3.9864,-3.9538,-4.0115,-4.1188,-4.208,-4.1608,-4.2088,-4.2769,-4.3004,-4.3238,-4.3639,-4.4418,-4.4587,-4.4587,-4.4587,-4.4587,-4.4587,-4.4587,-4.4587,-4.4316,-4.3538,-4.3217,-4.25,-4.1023,-4.1302,-4.1338,-4.0536,-4.1386,-4.1266,-3.9501,-4.0067,-4.0484,-4.0484,-4.1418,-4.2282,-4.3021,-4.3799,-4.4333,-4.4587,-4.4587,-4.4587,-4.4587,-4.4333,-4.3944,-4.3436,-4.4215,-4.4418,-1.7049,-1.779,-1.8179,-1.8041,-1.7689,-1.7087,-1.5957,-1.5155,-1.4349,-1.3386,-1.3198,-1.3198,-1.3198,-1.3023,-1.3396,-1.4878,-1.5117,-1.5567,-1.6961,-1.9392,-2.1548,-2.2942,-2.6839,-3.0198,-3.2008,-3.2486,-3.289,-3.3616,-3.331,-3.3101,-3.3101,-3.2249,-3.1328,-3.0343,-2.9998,-2.9792,-2.9792,-2.9792,-2.9792,-2.9792,-2.9792,-3.0279,-3.118,-3.1609,-3.2033,-3.2664,-3.3394,-3.3463,0.0,-3.5607,-3.6512,-3.6714,-3.8656,-3.9424,-3.9409,-3.9809,-3.9864,-3.9935,-4.0255,-4.0378,-4.0378,-4.0378,-4.0378,-4.0447,-4.1028,-4.0826,-4.0585,-4.1412,-4.2458,-4.3267,-4.3115,-4.3491,-4.3859,-4.3859,-4.3859,-4.3995,-4.4468,-4.4587,-4.4682,-4.4906,-4.4776,-4.4766,-4.5265,-4.5201,-4.4925,-4.4722,-4.4678,-4.4295,-4.3407,-4.3374,-4.3318,-4.2852,-4.3164,-4.2857,-4.1423,-4.1749,-4.2033,-4.2033,-4.2743,-4.3369,-4.3826,-4.4316,-4.4587,-4.4587,-4.4587,-4.4587,-4.4587,-4.4587,-4.4621,-4.4688,-4.4621,-4.4621,0.0,-1.7513,-1.8028,-1.8493,-1.7877,-1.6861,-1.5768,-1.479,0.0,-1.3311,-1.3198,-1.321,-1.3248,-1.281,-1.2856,-1.4072,-1.4261,-1.523,-1.8021,-1.9769,-2.2097,-2.5604,-2.7298,-2.9135,-3.1492,-3.2348,-3.3547,-3.5359,-3.461,-3.4095,-3.4095,-3.3241,-3.2321,-3.1462,-3.0495,-2.9934,-2.9792,-2.9792,-2.9792,-2.9792,-2.9869,-3.0419,-3.1315,-3.2249,-3.2749,-3.289,-3.4706,-3.5016,-3.4336,-3.6511,-3.7434,-3.7614,-3.8916,-3.9409,-3.961,-4.0363,-4.0758,-4.0878,-4.1739,-4.1997,-4.1997,-4.1997,-4.2062,-4.2062,-4.2062,-4.2062,-4.2252,-4.3047,-4.3366,-4.3562,-4.4384,-4.4587,-4.4587,-4.4587,-4.4587,-4.4587,-4.4587,-4.4626,-4.4814,-4.5407,-4.514,-4.5213,-4.6393,-4.6199,-4.6048,-4.6801,-4.6828,-4.6777,-4.6778,-4.6038,-4.5541,-4.5488,-4.5425,-4.4865,-4.3645,-4.3476,-4.3457,-4.342,-4.4096,-4.4519,-4.4587,-4.4587,-4.4587,-4.4587,-4.4621,-4.4654,-4.4654,-4.4705,-4.5415,-4.6684,-4.5297,-4.5365,-1.45,0.0,-1.4991,-1.4638,-1.4714,-1.4689,0.0,-1.3935,-1.3934,-1.3311,-1.3198,-1.3323,-1.3808,-1.3408,-1.3636,-1.5618,-1.5932,-1.7007,-2.0009,-2.3239,-2.5993,-2.7833,-3.0093,-3.1833,-3.2739,-3.4054,-3.5001,-3.5439,-3.5279,-3.5133,-3.5133,-3.4177,-3.3602,-3.338,-3.2464,-3.1267,-2.9792,-2.9792,-2.9792,-2.9792,-3.0558,-3.1402,-3.2321,-3.3241,-3.4109,-3.4839,-3.5294,-3.5642,-3.6015,-3.7007,-3.7704,-3.8242,-3.9095,-3.9793,-4.0432,-4.0622,-4.1147,-4.1723,-4.1933,-4.1997,-4.1997,-4.1997,-4.2458,-4.297,-4.297,-4.297,-4.3047,-4.3246,-4.3756,-4.4327,-4.457,-4.4587,-4.4587,-4.4587,-4.4587,-4.4587,-4.4587,-4.4944,-4.532,-4.5459,-4.6288,-4.6877,-4.6638,-4.6961,-4.7372,-4.7545,-4.7571,-4.7544,-4.7558,-4.7316,-4.6932,-4.6312,-4.6194,-4.6029,-4.5729,-4.4727,-4.394,-4.3403,-4.3589,-4.3961,-4.4553,-4.4587,-4.4587,-4.4587,-4.5145,-4.5449,-4.5449,-4.6007,-4.616,-4.5957,-4.5602,-4.5314,-1.2788,-1.3695,-1.4387,-1.4061,-1.4249,-1.4324,-1.3735,-1.3647,-1.3584,-1.3261,-1.3198,-1.3396,-1.3984,-1.4578,-1.5214,-1.5994,-1.7866,-2.0365,-2.3705,-2.6646,-2.9087,-3.0698,-3.2058,-3.3175,-3.4178,-3.4552,-3.4986,-3.5439,-3.5504,-3.5504,-3.5504,-3.4986,-3.4476,-3.4027,-3.3518,-3.2321,-3.0482,-3.0419,-3.0419,-3.0419,-3.097,-3.1888,-3.3241,-3.3739,-3.4543,-3.5519,-3.5833,-3.6148,-3.6552,-3.7479,-3.8325,-3.9032,-3.9716,-4.05,-4.1346,-4.1739,-4.2189,-4.2645,-4.3031,-4.3213,-4.3213,-4.3213,-4.3486,-4.3889,-4.3889,-4.3889,-4.3889,-4.3889,-4.4253,-4.4587,-4.4587,-4.4587,-4.4587,-4.4587,-4.4587,-4.4682,-4.4944,-4.5267,-4.5803,-4.6733,-4.7333,-4.7913,-4.847,-4.8711,-4.8925,-4.9275,-4.9573,-4.977,-4.977,-4.9711,-4.9532,-4.9063,-4.8315,-4.7733,-4.7446,-4.6111,-4.5055,-4.4401,-4.4092,-4.4147,-4.4553,-4.4587,-4.4587,-4.4587,-4.5314,-4.5872,-4.621,-4.6599,-4.6769,-4.6701,-4.6024,-4.5483,-1.1763,-1.3383,-1.4953,-1.4689,-1.4727,-1.4752,-1.4194,-1.3664,-1.3301,-1.3198,-1.3261,-1.3632,-1.4623,-1.5964,-1.6883,-1.6664,-2.0182,-2.4063,-2.7426,-2.942,-3.1206,-3.2889,-3.3158,-3.3732,-3.502,-3.4566,-3.461,-3.5439,-3.5504,-3.5504,-3.5504,-3.5504,-3.5133,-3.4245,-3.4245,-3.3394,-3.1683,-3.1462,-3.1389,-3.1389,-3.1536,-3.2464,-3.4027,-3.4264,-3.4838,-3.5684,-3.6342,-3.6686,-3.6851,-3.8067,-3.9086,-3.9951,-4.0593,-4.1412,-4.2252,-4.3047,-4.3366,-4.3621,-4.4327,-4.4587,-4.4587,-4.4587,-4.4587,-4.4587,-4.4587,-4.4587,-4.4587,-4.4587,-4.4587,-4.4587,-4.4587,-4.4587,-4.4587,-4.4587,-4.4682,-4.4852,-4.5267,-4.5597,-4.6291,-4.8101,-4.8325,-4.8751,-5.0559,-5.0587,-5.0545,-5.1152,-5.1759,-5.2159,-5.2271,-5.212,-5.1995,-5.1995,-5.0545,-4.9336,-4.8638,-4.7372,-4.6231,-4.5389,-4.4892,-4.4587,-4.4587,-4.4468,-4.4519,-4.4739,-4.5263,-4.5957,-4.6786,-4.6786,-4.7056,-4.7564,-4.6413,-4.5821,-1.2559,-1.4249,-1.522,-1.3656,-1.4018,-1.4572,-1.4065,-1.3868,-1.3682,-1.3301,-1.3609,-1.4763,-1.7423,-1.729,-1.7665,-2.0508,-2.3334,-2.5881,-2.7914,-3.0321,-3.1718,-3.1448,-3.283,-3.3792,-3.3558,-3.4581,-3.5359,-3.5504,-3.5504,-3.5504,-3.5504,-3.5504,-3.5439,-3.5279,-3.5279,-3.4691,-3.3602,-3.282,-3.2393,-3.2393,-3.3171,-3.3739,-3.4041,-3.548,-3.6179,-3.6372,-3.7,-3.7584,-3.8177,-3.9152,-3.9941,-4.0603,-4.1496,-4.2316,-4.3108,-4.3246,-4.3756,-4.444,-4.457,-4.4587,-4.4587,-4.4587,-4.4587,-4.4587,-4.4587,-4.4587,-4.4587,-4.4587,-4.4587,-4.4587,-4.4587,-4.4587,-4.4587,-4.4587,-4.4998,-4.5232,-4.4814,-4.5982,-4.725,-4.7731,-4.9153,-5.0447,-5.0805,-5.1369,-5.1826,-5.1934,-5.2047,-5.2335,-5.2937,-5.2449,-5.1995,-5.1995,-5.0545,-4.9336,-4.8638,-4.7861,-4.66,-4.4711,-4.4602,-4.4587,-4.4587,-4.3944,-4.4215,-4.5517,-4.501,-4.5432,-4.6786,-4.6786,-4.6532,-4.6058,-4.6447,-4.6295,-1.1194,-1.2642,-1.4011,-1.4409,-1.6342,-1.8187,-1.8357,-1.845,-1.8133,-1.6799,-1.6775,-1.7475,-1.914,-2.0118,-2.2076,-2.6379,-2.7209,-2.8068,-3.0263,-3.1596,-3.2493,-3.2846,-3.3718,-3.4324,-3.4448,-3.51,-3.5504,-3.5504,-3.5504,-3.5504,-3.5504,-3.5504,-3.5504,-3.5504,-3.5504,-3.5279,-3.4839,-3.4743,-3.4235,-3.3394,-3.4151,-3.4835,-3.5383,-3.6469,-3.6985,-3.7015,-3.8159,-3.8818,-3.9191,-4.0454,-4.1373,-4.2125,-4.252,-4.3229,-4.4006,-4.4006,-4.4253,-4.4587,-4.4587,-4.4587,-4.4587,-4.4587,-4.4587,-4.4587,-4.4587,-4.4587,-4.4587,-4.4587,-4.4587,-4.4587,-4.4587,-4.4587,-4.4587,-4.4587,-4.5035,-4.5494,-4.5545,-4.6542,-4.7807,-4.9115,-5.0162,-5.1087,-5.2003,-5.247,-5.2707,-5.2707,-5.2707,-5.2831,-5.3164,-5.2509,-5.1995,-5.1995,-5.0545,-4.9501,-4.9234,-4.7807,-4.6259,-4.4609,-4.379,-4.3352,-4.3352,-4.3386,-4.3741,-4.4451,-4.4942,-4.5534,-4.621,-4.621,-4.6024,-4.572,-4.6058,-4.6024,-1.042,-1.1673,-1.3434,-1.5523,-1.7826,-2.0043,-2.1752,-2.1806,-2.1194,-2.0288,-2.0189,-2.0514,-2.118,-2.3227,-2.6073,-2.9933,-2.9684,-2.9907,-3.2348,-3.2886,-3.341,-3.4577,-3.4711,-3.4921,-3.5459,-3.5504,-3.5504,-3.5504,-3.5504,-3.5564,-3.5729,-3.5729,-3.5729,-3.5729,-3.5878,-3.5804,-3.5504,-3.6312,-3.5993,-3.4627,-3.5252,-3.5933,-3.6731,-3.7534,-3.7956,-3.8054,-3.9555,-4.0232,-4.0329,-4.171,-4.2707,-4.3306,-4.3502,-4.4006,-4.4587,-4.4587,-4.4587,-4.4587,-4.4587,-4.4587,-4.4587,-4.4587,-4.4587,-4.4587,-4.4587,-4.4587,-4.4587,-4.4587,-4.4587,-4.4626,-4.4759,-4.4814,-4.4869,-4.4998,-4.5511,-4.6014,-4.6336,-4.7205,-4.8423,-5.0209,-5.0849,-5.1536,-5.2968,-5.3206,-5.3206,-5.3206,-5.3206,-5.3206,-5.3206,-5.2509,-5.2068,-5.2252,-5.068,-4.9501,-4.9245,-4.706,-4.5388,-4.4665,-4.347,-4.2828,-4.2828,-4.32,-4.3589,-4.3944,-4.4756,-4.5348,-4.5703,-4.5534,-4.5449,-4.5449,-4.5805,-4.5957,-1.1921,-1.3347,-1.4884,-1.6372,-1.5952,-1.6369,-2.0981,-2.0296,-1.9345,-2.1707,-2.2583,-2.3259,-2.4447,-2.6097,-2.7423,-2.7786,-2.9207,-3.0981,-3.3154,-3.3948,-3.4607,-3.534,-3.5429,-3.5444,-3.5504,-3.5504,-3.5504,-3.5504,-3.5504,-3.5774,-3.6387,-3.6417,-3.6417,-3.6417,-3.6971,-3.6701,-3.5519,-3.6731,-3.6963,-3.635,-3.6963,-3.7276,-3.736,-3.8846,-3.9524,-3.9637,-4.1164,-4.1853,-4.1933,-4.2831,-4.3246,-4.3366,-4.4196,-4.457,-4.4587,-4.4587,-4.4587,-4.4587,-4.4587,-4.4587,-4.4587,-4.4587,-4.4587,-4.4587,-4.4587,-4.4587,-4.4587,-4.4587,-4.4587,-4.472,-4.5267,-4.5459,-4.5597,-4.6143,-4.6774,-4.7106,-4.6524,-4.8024,-4.9541,-4.9844,-5.0982,-5.2179,-5.3059,-5.3206,-5.3206,-5.3206,-5.3206,-5.3206,-5.3206,-5.2509,-5.2289,-5.3041,-5.1046,-4.918,-4.7961,-4.524,-4.3902,-4.4592,-4.4485,-4.4418,-4.4418,-4.3775,-4.4079,-4.5517,-4.4248,-4.4282,-4.5703,-4.4993,-4.4654,-4.4688,-4.6075,-4.6718,-1.0734,-1.2899,-1.5227,-1.6072,-1.6641,-1.8344,-2.3339,-2.437,-2.4525,-2.5448,-2.6144,-2.6423,-2.606,-2.8172,-2.9829,-2.9451,-3.104,-3.2731,-3.3978,-3.4696,-3.522,-3.5474,-3.5504,-3.5504,-3.5504,-3.5504,-3.5504,-3.5504,-3.5504,-3.5789,-3.6447,-3.6088,-3.6073,-3.6477,-3.6716,-3.6611,-3.6118,-3.7389,-3.7898,-3.7674,-3.7898,-3.7808,-3.7449,-3.9419,-4.0303,-4.037,-4.2077,-4.2785,-4.2909,-4.3739,-4.4138,-4.4138,-4.4457,-4.4587,-4.4587,-4.4587,-4.4587,-4.4587,-4.4587,-4.4587,-4.4587,-4.4587,-4.4587,-4.4587,-4.4587,-4.4587,-4.4682,-4.5035,-4.5142,-4.5232,-4.5459,-4.5511,-4.5648,-4.624,-4.691,-4.7468,-4.7734,-4.8714,-4.9918,-5.0957,-5.1614,-5.2252,-5.3078,-5.3206,-5.3206,-5.3206,-5.3206,-5.3206,-5.3206,-5.2509,-5.1943,-5.1773,-4.9799,-4.8067,-4.7088,-4.564,-4.4756,-4.4587,-4.369,-4.3149,-4.3149,-4.3335,-4.369,-4.4282,-4.4181,-4.4418,-4.501,-4.5196,-4.528,-4.5314,-4.6802,-4.7496,-1.1339,-1.355,-1.6118,-1.7204,-1.8159,-2.0157,-2.5165,-2.644,-2.7011,-2.8502,-2.8712,-2.8382,-2.7664,-2.9385,-3.0821,-3.0552,-3.2362,-3.3963,-3.4412,-3.507,-3.5504,-3.5504,-3.5504,-3.5504,-3.5504,-3.5504,-3.5504,-3.5504,-3.5504,-3.5789,-3.6447,-3.6252,-3.6312,-3.6761,-3.718,-3.721,-3.6791,-3.831,-3.894,-3.8531,-3.9215,-3.9169,-3.8501,-4.0591,-4.1528,-4.1593,-4.3092,-4.368,-4.3756,-4.4327,-4.4587,-4.4587,-4.4587,-4.4587,-4.4587,-4.4587,-4.4587,-4.4587,-4.4587,-4.4587,-4.4587,-4.4587,-4.472,-4.4852,-4.4852,-4.4998,-4.5284,-4.5699,-4.5783,-4.5833,-4.6014,-4.6112,-4.6257,-4.6847,-4.7367,-4.7933,-4.875,-4.9478,-5.038,-5.1738,-5.2197,-5.2546,-5.3115,-5.3206,-5.3206,-5.3206,-5.3206,-5.3206,-5.3206,-5.2509,-5.1627,-5.0688,-4.9082,-4.7706,-4.6763,-4.6056,-4.5382,-4.4621,-4.3589,-4.3014,-4.3014,-4.3504,-4.3792,-4.3792,-4.4316,-4.4688,-4.4942,-4.5449,-4.5821,-4.6075,-4.7327,-4.7919,-1.4433,-1.5764,-1.7838,-2.0053,-2.028,-2.1222,-2.5935,-2.5467,-2.5463,-3.047,-2.9968,-2.8816,-2.946,-2.9594,-2.9804,-3.0417,-3.2736,-3.4472,-3.4487,-3.507,-3.5504,-3.5504,-3.5504,-3.5504,-3.5504,-3.5504,-3.5504,-3.5504,-3.5504,-3.5804,-3.6462,-3.7075,-3.7404,-3.7419,-3.8706,-3.8766,-3.7419,-3.9619,-4.0008,-3.8756,-4.0943,-4.1528,-4.0743,-4.252,-4.3306,-4.3366,-4.4196,-4.4587,-4.4587,-4.4587,-4.4587,-4.4587,-4.4587,-4.4587,-4.4587,-4.4587,-4.4587,-4.4587,-4.4643,-4.4626,-4.4626,-4.4643,-4.5052,-4.5511,-4.5511,-4.5915,-4.6383,-4.643,-4.643,-4.6571,-4.7237,-4.7385,-4.7572,-4.8172,-4.8306,-4.8545,-4.9407,-5.0233,-5.1041,-5.1848,-5.2656,-5.3206,-5.3206,-5.3206,-5.3206,-5.3206,-5.3206,-5.3206,-5.3206,-5.2491,-5.1435,-5.0054,-4.9309,-4.8333,-4.6912,-4.6126,-4.5399,-4.4654,-4.4604,-4.4587,-4.4587,-4.4587,-4.4587,-4.4587,-4.4604,-4.4976,-4.572,-4.572,-4.6109,-4.6819,-4.7581,-4.7936,-1.1335,-1.5088,-1.9182,-1.8584,-2.1888,-2.5716,-2.7208,-2.7112,-2.7583,-3.0842,-3.0687,-2.9864,-2.9624,-3.0717,-3.1554,-3.127,-3.3051,-3.4637,-3.513,-3.537,-3.5504,-3.5504,-3.5504,-3.5504,-3.5504,-3.5504,-3.5504,-3.5504,-3.5504,-3.5983,-3.7075,-3.6896,-3.7165,-3.8078,-3.8482,-3.8832,-3.899,-4.0121,-4.081,-4.1055,-4.2326,-4.2199,-4.096,-4.2557,-4.3306,-4.3366,-4.4196,-4.4587,-4.4587,-4.4587,-4.4587,-4.4587,-4.4587,-4.4587,-4.4587,-4.4587,-4.4587,-4.4682,-4.5089,-4.5232,-4.532,-4.5732,-4.5965,-4.6143,-4.6143,-4.624,-4.6524,-4.6955,-4.7088,-4.7237,-4.7897,-4.8035,-4.8075,-4.8267,-4.8306,-4.8691,-5.0123,-5.0637,-5.1206,-5.2582,-5.3041,-5.3206,-5.3206,-5.3206,-5.3206,-5.3206,-5.3206,-5.3206,-5.3206,-5.2154,-5.1222,-5.0801,-4.9236,-4.8022,-4.7597,-4.6904,-4.638,-4.6143,-4.6143,-4.5669,-4.4621,-4.5094,-4.5365,-4.5365,-4.5872,-4.6244,-4.6464,-4.7005,-4.7378,-4.7597,-4.8342,-4.868,-1.453,-1.8216,-2.2007,-2.2236,-2.4973,-2.7897,-2.9005,-2.9289,-2.9684,-3.117,-3.0986,-3.0552,-3.0717,-3.1719,-3.2557,-3.2677,-3.3933,-3.5026,-3.5444,-3.5504,-3.5504,-3.5504,-3.5504,-3.5504,-3.5504,-3.5504,-3.5504,-3.5504,-3.5504,-3.5953,-3.6985,-3.7231,-3.7825,-3.8872,-3.9489,-4.007,-4.0585,-4.1338,-4.1997,-4.252,-4.3426,-4.333,-4.2452,-4.3405,-4.3814,-4.3873,-4.4384,-4.4587,-4.4587,-4.4587,-4.4587,-4.4587,-4.4587,-4.4776,-4.4961,-4.4961,-4.5089,-4.5372,-4.5732,-4.5883,-4.5915,-4.6288,-4.6571,-4.6819,-4.6819,-4.6937,-4.7291,-4.8037,-4.8229,-4.8348,-4.8724,-4.882,-4.8728,-4.8379,-4.8306,-4.8673,-5.0031,-5.0306,-5.0692,-5.2013,-5.2509,-5.2729,-5.2729,-5.3004,-5.3206,-5.3206,-5.3206,-5.3206,-5.3206,-5.1988,-5.1086,-5.1086,-4.9441,-4.824,-4.7936,-4.7496,-4.6989,-4.6397,-4.6363,-4.5821,-4.4621,-4.5585,-4.6143,-4.6143,-4.6566,-4.6938,-4.7242,-4.7699,-4.8071,-4.8359,-4.8798,-4.9152,-2.0631,-2.305,-2.5435,-2.8472,-2.8577,-2.8562,-3.0986,-3.1482,-3.1482,-3.1482,-3.1076,-3.1061,-3.2287,-3.2617,-3.308,-3.4277,-3.5055,-3.5504,-3.5504,-3.5504,-3.5504,-3.5504,-3.5504,-3.5504,-3.5504,-3.5504,-3.5504,-3.5619,-3.5619,-3.5904,-3.6565,-3.787,-3.8973,-3.9652,-4.1051,-4.1869,-4.2125,-4.2909,-4.3366,-4.3426,-4.4196,-4.4587,-4.4587,-4.4587,-4.4587,-4.4587,-4.4587,-4.4587,-4.4587,-4.4587,-4.4587,-4.4643,-4.4682,-4.4998,-4.5511,-4.5545,-4.5915,-4.643,-4.6478,-4.6478,-4.6524,-4.6571,-4.6999,-4.747,-4.747,-4.7856,-4.8453,-4.9169,-4.9426,-4.9462,-4.9462,-4.9462,-4.926,-4.8489,-4.8306,-4.8545,-4.9389,-4.9591,-4.9829,-5.0637,-5.1389,-5.1885,-5.1885,-5.2509,-5.3023,-5.3096,-5.3109,-5.3103,-5.3103,-5.1874,-5.0946,-5.0893,-4.9677,-4.8612,-4.7868,-4.7817,-4.7242,-4.5889,-4.5805,-4.55,-4.4807,-4.6007,-4.6701,-4.6701,-4.6752,-4.7124,-4.7817,-4.7885,-4.8257,-4.9006,-4.89,-4.9351,-1.5475,-2.0287,-2.557,-2.6288,-2.8592,-3.0836,-3.1347,-3.1482,-3.1482,-3.1482,-3.1824,-3.2168,-3.2467,-3.3365,-3.4143,-3.4427,-3.5055,-3.5504,-3.5504,-3.5504,-3.5504,-3.5504,-3.5504,-3.5504,-3.5504,-3.5504,-3.5718,-3.6337,-3.6384,-3.6692,-3.7305,-3.765,-3.8412,-3.9637,-4.0006,-4.1119,-4.297,-4.3185,-4.3621,-4.4327,-4.4514,-4.4587,-4.4587,-4.4587,-4.4587,-4.4587,-4.4587,-4.4587,-4.4587,-4.4587,-4.4587,-4.4626,-4.5142,-4.5372,-4.5545,-4.6014,-4.6288,-4.6478,-4.6999,-4.7194,-4.7237,-4.7738,-4.7977,-4.8132,-4.8132,-4.821,-4.8343,-4.8508,-4.8581,-4.8581,-4.8581,-4.8581,-4.8526,-4.8343,-4.8306,-4.8545,-4.9389,-4.9591,-4.9829,-5.0637,-5.0949,-5.1059,-5.1059,-5.1206,-5.1536,-5.216,-5.2306,-5.2335,-5.2335,-5.1138,-4.9997,-4.9443,-4.8648,-4.7851,-4.7107,-4.7039,-4.6904,-4.6583,-4.6549,-4.6481,-4.6312,-4.6075,-4.594,-4.594,-4.6498,-4.687,-4.7039,-4.7631,-4.8235,-4.8924,-4.8388,-4.9131,-1.7187,-2.1436,-2.5674,-2.7889,-2.9943,-3.1482,-3.1482,-3.1482,-3.1482,-3.1482,-3.2063,-3.2617,-3.2931,-3.3799,-3.4592,-3.4921,-3.5265,-3.5504,-3.5504,-3.5504,-3.5504,-3.5504,-3.5504,-3.5619,-3.6006,-3.6006,-3.6352,-3.71,-3.6783,-3.7219,-3.8606,-3.8716,-3.9596,-4.1342,-4.183,-4.2638,-4.3931,-4.3931,-4.4138,-4.4587,-4.4587,-4.4587,-4.4587,-4.4587,-4.4587,-4.4587,-4.4587,-4.4587,-4.4587,-4.4587,-4.4759,-4.5035,-4.5372,-4.5883,-4.6448,-4.6756,-4.7044,-4.7367,-4.7697,-4.7838,-4.7897,-4.821,-4.8306,-4.8306,-4.8306,-4.8306,-4.8398,-4.8802,-4.8912,-4.8912,-4.8912,-4.8912,-4.882,-4.8398,-4.8306,-4.8416,-4.8875,-4.8967,-4.9095,-4.9517,-4.9939,-5.0215,-5.0215,-5.0545,-5.0949,-5.1353,-5.1199,-5.0976,-5.0976,-4.9817,-4.8785,-4.8387,-4.7762,-4.7225,-4.6819,-4.6786,-4.665,-4.6295,-4.6261,-4.6109,-4.5754,-4.5653,-4.5789,-4.621,-4.6897,-4.7221,-4.7221,-4.7937,-4.8332,-4.8297,-4.7957,-4.8578,-1.9337,-2.2715,-2.5687,-3.0317,-3.1482,-3.1482,-3.1482,-3.1482,-3.1482,-3.1482,-3.2063,-3.2706,-3.338,-3.4038,-3.4696,-3.5385,-3.5504,-3.5504,-3.5504,-3.5504,-3.5504,-3.5504,-3.5619,-3.5958,-3.6554,-3.6737,-3.7144,-3.7921,-3.727,-3.7733,-3.981,-3.9882,-4.0826,-4.3059,-4.3805,-4.4322,-4.4587,-4.4587,-4.4587,-4.4587,-4.4587,-4.4587,-4.4587,-4.4587,-4.4587,-4.4587,-4.4587,-4.4587,-4.4587,-4.4587,-4.4961,-4.5511,-4.5597,-4.6353,-4.7428,-4.753,-4.7897,-4.8306,-4.8306,-4.8306,-4.8306,-4.8306,-4.8306,-4.8306,-4.8306,-4.8306,-4.8453,-4.9169,-4.937,-4.937,-4.937,-4.937,-4.9187,-4.8471,-4.8306,-4.8306,-4.8306,-4.8306,-4.8306,-4.8306,-4.8875,-4.937,-4.937,-5.005,-5.0582,-5.0582,-5.0039,-4.9613,-4.9613,-4.8465,-4.7565,-4.7444,-4.6954,-4.6549,-4.6413,-4.6413,-4.6143,-4.5551,-4.5614,-4.5365,-4.4793,-4.532,-4.5995,-4.6732,-4.7237,-4.7472,-4.7472,-4.815,-4.8272,-4.7858,-4.7734,-4.8188,-1.3575,-1.9129,-2.5687,-3.0317,-3.1482,-3.1482,-3.1482,-3.1482,-3.1482,-3.1482,-3.2063,-3.2706,-3.338,-3.4038,-3.4696,-3.5385,-3.5504,-3.5504,-3.5504,-3.5504,-3.5504,-3.5504,-3.6054,-3.6492,-3.66,-3.7219,-3.7962,-3.869,-3.8063,-3.8341,-3.9982,-3.944,-4.0104,-4.2385,-4.2526,-4.3263,-4.457,-4.4587,-4.4587,-4.4587,-4.4587,-4.4587,-4.4587,-4.4587,-4.4587,-4.4587,-4.4587,-4.4587,-4.4587,-4.4587,-4.4961,-4.5545,-4.6063,-4.6728,-4.747,-4.7995,-4.821,-4.8306,-4.8306,-4.8306,-4.8306,-4.8306,-4.8306,-4.8306,-4.8306,-4.8306,-4.8324,-4.8434,-4.8471,-4.8471,-4.8471,-4.8471,-4.8434,-4.8343,-4.8306,-4.8306,-4.8306,-4.8306,-4.8306,-4.8306,-4.8398,-4.8471,-4.8471,-4.9187,-4.9738,-4.9738,-4.9289,-4.8915,-4.8915,-4.7781,-4.6707,-4.6062,-4.5896,-4.5585,-4.4925,-4.4874,-4.4823,-4.4739,-4.5243,-4.5476,-4.5372,-4.5965,-4.6328,-4.6442,-4.6539,-4.6588,-4.6605,-4.7342,-4.7986,-4.8452,-4.7873,-4.8644,-1.5652,-2.0611,-2.5577,-3.0317,-3.1482,-3.1482,-3.1482,-3.1482,-3.1482,-3.1482,-3.1706,-3.2168,-3.2826,-3.3784,-3.4577,-3.4876,-3.525,-3.5604,-3.6054,-3.6117,-3.629,-3.6723,-3.7055,-3.7424,-3.7873,-3.7818,-3.8117,-3.8905,-3.788,-3.8044,-3.9993,-3.979,-4.058,-4.2875,-4.3344,-4.3917,-4.457,-4.4587,-4.4587,-4.457,-4.4961,-4.5089,-4.5142,-4.5459,-4.5407,-4.5089,-4.5089,-4.5267,-4.5597,-4.5597,-4.5982,-4.6589,-4.6864,-4.7342,-4.7937,-4.821,-4.8306,-4.8306,-4.8306,-4.8306,-4.8306,-4.8306,-4.8306,-4.8306,-4.8306,-4.8306,-4.8306,-4.8306,-4.8306,-4.8306,-4.8306,-4.8306,-4.8306,-4.8306,-4.8306,-4.8306,-4.8306,-4.8306,-4.8306,-4.8306,-4.8306,-4.8306,-4.8306,-4.8618,-4.8779,-4.8402,-4.7823,-4.7311,-4.6981,-4.6121,-4.5432,-4.5111,-4.5077,-4.5077,-4.5123,-4.5089,-4.5232,-4.5597,-4.5883,-4.6014,-4.6014,-4.6618,-4.6955,-4.6955,-4.6955,-4.6955,-4.6955,-4.7641,-4.7951,-4.7908,-4.7644,-4.7779,-1.674,-2.0218,-2.317,-2.8644,-3.0148,-3.0492,-3.1287,-3.1482,-3.1482,-3.1482,-3.1616,-3.1987,-3.2702,-3.3622,-3.44,-3.4951,-3.5274,-3.5785,-3.6504,-3.6473,-3.6531,-3.7195,-3.7391,-3.7711,-3.8311,-3.8008,-3.817,-3.8922,-3.7736,-3.7986,-4.0256,-4.021,-4.1092,-4.3314,-4.3978,-4.4384,-4.4587,-4.4587,-4.4587,-4.4626,-4.5232,-4.5511,-4.5494,-4.6094,-4.624,-4.5982,-4.5783,-4.5965,-4.6383,-4.6383,-4.6819,-4.7385,-4.7385,-4.7756,-4.8306,-4.8306,-4.8306,-4.8306,-4.8306,-4.8306,-4.8306,-4.8306,-4.8306,-4.8306,-4.8306,-4.8306,-4.8306,-4.8306,-4.8306,-4.8306,-4.8306,-4.8306,-4.8306,-4.8306,-4.8306,-4.8306,-4.8306,-4.8306,-4.8306,-4.8306,-4.8306,-4.8306,-4.8306,-4.8306,-4.8172,-4.7715,-4.7088,-4.6478,-4.6014,-4.5337,-4.4906,-4.5052,-4.4906,-4.5089,-4.5699,-4.5732,-4.5915,-4.6383,-4.6571,-4.6664,-4.6664,-4.7281,-4.7614,-4.7614,-4.7614,-4.7614,-4.7614,-4.8075,-4.7977,-4.7385,-4.7385,-4.7044,-1.2712,-1.4545,-1.7012,-2.4148,-2.6378,-2.7664,-3.0821,-3.1482,-3.1482,-3.1482,-3.2033,-3.2688,-3.3465,-3.3558,-3.418,-3.6168,-3.5913,-3.5809,-3.6552,-3.6068,-3.5615,-3.5697,-3.6344,-3.6763,-3.6814,-3.7468,-3.8195,-3.8937,-3.8263,-3.8804,-4.1035,-4.0493,-4.1084,-4.3352,-4.3453,-4.3826,-4.457,-4.4587,-4.4587,-4.4626,-4.5232,-4.5511,-4.5494,-4.6094,-4.671,-4.7255,-4.6618,-4.6383,-4.6383,-4.6383,-4.6819,-4.7385,-4.7385,-4.7756,-4.8306,-4.8306,-4.8306,-4.8306,-4.8306,-4.8306,-4.8306,-4.8306,-4.8306,-4.8306,-4.8306,-4.8306,-4.8306,-4.8306,-4.8306,-4.8306,-4.8306,-4.8306,-4.8306,-4.8306,-4.8306,-4.8306,-4.8306,-4.8306,-4.8306,-4.8306,-4.8306,-4.8306,-4.8306,-4.8306,-4.8306,-4.8267,-4.7756,-4.7342,-4.7299,-4.6209,-4.5699,-4.624,-4.5783,-4.5681,-4.6288,-4.6336,-4.6383,-4.6383,-4.6999,-4.7342,-4.7342,-4.7937,-4.8249,-4.8249,-4.8249,-4.8249,-4.8249,-4.8306,-4.7977,-4.7385,-4.7385,-4.7044,-1.2347,-1.3727,-1.5343,-2.1028,-2.4223,-2.6378,-2.7993,-3.0013,-3.164,-3.212,-3.2415,-3.3054,-3.4676,-3.453,-3.4565,-3.5802,-3.5739,-3.5817,-3.6583,-3.6443,-3.647,-3.7002,-3.7303,-3.7451,-3.7451,-3.7745,-3.8024,-3.8278,-3.7601,-3.7939,-3.9698,-3.9529,-4.0409,-4.2625,-4.3166,-4.3792,-4.457,-4.4587,-4.4587,-4.4626,-4.5232,-4.5681,-4.613,-4.729,-4.7872,-4.8014,-4.832,-4.8146,-4.7596,-4.7596,-4.7738,-4.7995,-4.7995,-4.8114,-4.8306,-4.8306,-4.8306,-4.8306,-4.8306,-4.8306,-4.8306,-4.8306,-4.8306,-4.8306,-4.8306,-4.8306,-4.8306,-4.8306,-4.8306,-4.8306,-4.8306,-4.8306,-4.8306,-4.8306,-4.8306,-4.8306,-4.8306,-4.8306,-4.8306,-4.8306,-4.8306,-4.8306,-4.8306,-4.7977,-4.7572,-4.7132,-4.6571,-4.6032,-4.5648,-4.5178,-4.5125,-4.5732,-4.5648,-4.5933,-4.6955,-4.7044,-4.7194,-4.7596,-4.7838,-4.7995,-4.7995,-4.8172,-4.8306,-4.8306,-4.8306,-4.8306,-4.8306,-4.8306,-4.8172,-4.7995,-4.7995,-4.7928,-1.072,-1.1733,-1.3154,-1.813,-2.0692,-2.2906,-2.6452,-2.8634,-3.0365,-3.2199,-3.2975,-3.384,-3.5739,-3.5607,-3.5467,-3.6287,-3.6172,-3.6174,-3.6638,-3.6521,-3.6539,-3.705,-3.7144,-3.7246,-3.7499,-3.7533,-3.7635,-3.7889,-3.7449,-3.7584,-3.8582,-3.887,-4.0003,-4.2219,-4.3284,-4.4062,-4.457,-4.4587,-4.4587,-4.4626,-4.5232,-4.5833,-4.6448,-4.7644,-4.8224,-4.8343,-4.8912,-4.8838,-4.8306,-4.8306,-4.8306,-4.8306,-4.8306,-4.8306,-4.8306,-4.8306,-4.8306,-4.8306,-4.8306,-4.8306,-4.8306,-4.8306,-4.8306,-4.8306,-4.8306,-4.8306,-4.8306,-4.8306,-4.8306,-4.8306,-4.8306,-4.8306,-4.8306,-4.8306,-4.8306,-4.8306,-4.8306,-4.8306,-4.8306,-4.8306,-4.8306,-4.8306,-4.8306,-4.7797,-4.7237,-4.6801,-4.6383,-4.5982,-4.5614,-4.5511,-4.5749,-4.6401,-4.6257,-4.6589,-4.7614,-4.7715,-4.7897,-4.8267,-4.8306,-4.8306,-4.8306,-4.8306,-4.8306,-4.8306,-4.8306,-4.8306,-4.8306,-4.8306,-4.821,-4.7995,-4.7995,-4.8379,0.0,0.0,0.0,-1.5203,-1.5591,-1.7116,-2.6138,-2.7284,-2.7564,-3.1601,-3.3508,-3.4897,-3.6501,-3.6768,-3.6964,-3.7672,-3.7183,-3.6713,-3.6771,-3.6121,-3.5611,-3.5616,-3.5622,-3.5926,-3.6705,-3.6772,-3.7094,-3.7889,-3.7922,-3.7922,-3.7973,-3.8684,-4.007,-4.2185,-4.3758,-4.4587,-4.4587,-4.4587,-4.4587,-4.4626,-4.5232,-4.5833,-4.6413,-4.7124,-4.7733,-4.8306,-4.8343,-4.8324,-4.8306,-4.8306,-4.8306,-4.8306,-4.8306,-4.8306,-4.8306,-4.8306,-4.8306,-4.8306,-4.8306,-4.8306,-4.8306,-4.8306,-4.8306,-4.8306,-4.8306,-4.8306,-4.8306,-4.8306,-4.8306,-4.8306,-4.8306,-4.8306,-4.8306,-4.8306,-4.8306,-4.8306,-4.8306,-4.8306,-4.8306,-4.8306,-4.8306,-4.8306,-4.8306,-4.7797,-4.7385,-4.7385,-4.7385,-4.7385,-4.7385,-4.7385,-4.7614,-4.821,-4.7756,-4.7656,-4.8267,-4.8306,-4.8306,-4.8306,-4.8306,-4.8306,-4.8306,-4.8306,-4.8306,-4.8306,-4.8306,-4.8306,-4.8306,-4.8306,-4.7995,-4.7428,-4.7464,-4.8312,-0.7724,0.0,0.0,0.0,0.0,0.0,-1.7909,-2.0695,-2.384,-2.8172,-2.9851,-3.1855,-3.6011,-3.6791,-3.6827,-3.7028,-3.69,-3.6766,-3.6793,-3.6081,-3.5597,-3.5594,-3.5622,-3.5926,-3.6705,-3.6772,-3.7313,-3.8599,-3.821,-3.8362,-3.9411,-4.0679,-4.1407,-4.1508,-4.3504,-4.4587,-4.4587,-4.4587,-4.4587,-4.4626,-4.5232,-4.5833,-4.6448,-4.7698,-4.826,-4.8343,-4.8967,-4.8875,-4.8306,-4.8306,-4.8306,-4.8306,-4.8306,-4.8306,-4.8306,-4.8306,-4.8306,-4.8306,-4.8306,-4.8306,-4.8306,-4.8306,-4.8306,-4.8306,-4.8306,-4.8306,-4.8306,-4.8306,-4.8306,-4.8306,-4.8306,-4.8306,-4.8306,-4.8306,-4.8306,-4.8306,-4.8306,-4.8306,-4.8306,-4.8306,-4.8306,-4.8306,-4.8306,-4.7797,-4.7385,-4.7385,-4.6999,-4.6664,-4.6664,-4.6664,-4.691,-4.7572,-4.7488,-4.7656,-4.8267,-4.8306,-4.8306,-4.8306,-4.8306,-4.8306,-4.8306,-4.8306,-4.8306,-4.8306,-4.8306,-4.8306,-4.8306,-4.8306,-4.821,-4.8053,-4.8715,-4.9537,-0.8213,-0.8304,-0.8604,-0.9803,0.0,0.0,-1.7501,-2.0014,-2.3127,-2.93,-3.1209,-3.2794,-3.6185,-3.6772,-3.6874,-3.7195,-3.6992,-3.6772,-3.6772,-3.6113,-3.574,-3.6062,-3.5808,-3.5926,-3.6705,-3.6772,-3.7263,-3.8447,-3.7855,-3.7804,-3.865,-4.0104,-4.0865,-4.073,-4.2608,-4.3623,-4.3623,-4.3944,-4.4096,-4.4096,-4.5077,-4.5833,-4.6448,-4.7572,-4.8151,-4.8343,-4.8838,-4.8765,-4.8306,-4.8306,-4.8306,-4.8306,-4.8306,-4.8306,-4.8306,-4.8306,-4.8306,-4.8306,-4.8306,-4.8306,-4.8306,-4.8306,-4.8306,-4.8306,-4.8306,-4.8306,-4.8306,-4.8306,-4.8306,-4.8306,-4.8306,-4.8306,-4.8306,-4.8306,-4.8306,-4.8306,-4.8306,-4.8306,-4.8306,-4.8306,-4.8306,-4.8306,-4.8306,-4.7797,-4.7385,-4.7385,-4.7062,-4.6819,-4.6819,-4.7044,-4.7324,-4.7738,-4.7756,-4.7937,-4.8267,-4.8306,-4.8306,-4.8306,-4.8306,-4.8306,-4.8306,-4.8306,-4.8306,-4.8306,-4.8306,-4.8306,-4.8306,-4.8306,-4.8306,-4.8324,-4.9187,-5.0013,-0.905,-0.907,-0.9488,-1.1072,-1.0402,0.0,-2.0014,-2.1311,-2.2961,-3.0803,-3.2977,-3.3803,-3.4918,-3.5188,-3.5425,-3.6033,-3.605,-3.6214,-3.6721,-3.6045,-3.5774,-3.6552,-3.596,-3.5842,-3.6688,-3.6772,-3.7094,-3.7838,-3.728,-3.6874,-3.6772,-3.8278,-3.9377,-3.9935,-4.1474,-4.2286,-4.2286,-4.3047,-4.342,-4.3436,-4.4906,-4.5865,-4.643,-4.715,-4.7797,-4.8306,-4.8306,-4.8306,-4.8306,-4.8306,-4.8306,-4.8306,-4.8306,-4.8306,-4.8306,-4.8306,-4.8306,-4.8306,-4.8306,-4.8306,-4.8306,-4.8306,-4.8306,-4.8306,-4.8306,-4.8306,-4.8306,-4.8306,-4.8306,-4.8306,-4.8306,-4.8306,-4.8306,-4.8306,-4.8306,-4.8306,-4.8306,-4.8306,-4.8306,-4.8306,-4.8306,-4.8306,-4.8306,-4.7856,-4.7488,-4.7488,-4.7488,-4.7488,-4.7488,-4.7977,-4.8306,-4.8306,-4.8306,-4.8306,-4.8306,-4.8306,-4.8306,-4.8306,-4.8306,-4.8306,-4.8306,-4.8306,-4.8306,-4.8306,-4.8306,-4.8306,-4.8306,-4.8306,-4.8306,-4.8324,-4.9077,-4.9939,-1.0515,-1.0054,-1.0279,-0.9623,-1.0762,0.0,-1.1135,-1.2603,-1.4947,-1.8032,-1.9378,-2.0943,-2.4146,-2.5112,-2.5345,-2.5013,-2.841,-3.2404,-3.6265,-3.5588,-3.4996,-3.5757,-3.5165,-3.525,-3.6637,-3.6772,-3.7094,-3.7838,-3.777,-3.7432,-3.6806,-3.8768,-3.9681,-3.9225,-4.1204,-4.2286,-4.2286,-4.3047,-4.342,-4.342,-4.5299,-4.6288,-4.643,-4.7596,-4.8172,-4.8306,-4.8306,-4.8306,-4.8306,-4.8306,-4.8306,-4.8306,-4.8306,-4.8306,-4.8306,-4.8306,-4.8306,-4.8306,-4.8306,-4.8306,-4.8306,-4.8306,-4.8306,-4.8306,-4.8306,-4.8306,-4.8306,-4.8306,-4.8306,-4.8306,-4.8306,-4.8306,-4.8306,-4.8306,-4.8306,-4.8306,-4.8306,-4.8306,-4.8306,-4.8306,-4.8306,-4.8306,-4.8306,-4.821,-4.8114,-4.8114,-4.8114,-4.8114,-4.8114,-4.821,-4.8306,-4.8306,-4.8306,-4.8306,-4.8306,-4.8306,-4.8306,-4.8306,-4.8306,-4.8306,-4.8306,-4.8306,-4.8306,-4.8306,-4.8306,-4.8306,-4.8306,-4.8306,-4.8306,-4.8306,-4.8471,-4.937,-1.0952,-1.0129,-1.0428,-1.0762,-1.1107,0.0,0.0,-1.3183,-1.4594,-1.8459,-1.912,-1.9772,-2.2269,-2.2714,-2.2714,-2.2747,-2.6643,-2.9945,-3.0657,-3.3237,-3.5199,-3.5571,-3.4962,-3.4658,-3.5064,-3.5419,-3.596,-3.6721,-3.7821,-3.7973,-3.684,-3.8548,-3.9377,-3.9005,-4.0409,-4.1308,-4.161,-4.2072,-4.2585,-4.3175,-4.5017,-4.5985,-4.6355,-4.7696,-4.8306,-4.8306,-4.8306,-4.8306,-4.8306,-4.8306,-4.8306,-4.8306,-4.8306,-4.8306,-4.8306,-4.8306,-4.8306,-4.8306,-4.8306,-4.8306,-4.8306,-4.8306,-4.8306,-4.8306,-4.8306,-4.8306,-4.8306,-4.8306,-4.8306,-4.8306,-4.8306,-4.8306,-4.8306,-4.8306,-4.8306,-4.8306,-4.8306,-4.8306,-4.8306,-4.8306,-4.8306,-4.8306,-4.8306,-4.8306,-4.8306,-4.8306,-4.8306,-4.8306,-4.8306,-4.8306,-4.8306,-4.8306,-4.8306,-4.8306,-4.8306,-4.8306,-4.8306,-4.8306,-4.8306,-4.8306,-4.8306,-4.8306,-4.8306,-4.8306,-4.8306,-4.8306,-4.8306,-4.8306,-4.8306,-4.8306,-4.8306,-4.8985,-1.2149,-1.1046,-1.1409,-1.2514,-1.2003,-1.2036,0.0,0.0,0.0,-1.9906,-2.0021,-1.9668,-2.0812,-2.0613,-2.0368,-2.0796,-2.4447,-2.6239,-2.3391,-2.8832,-3.3229,-3.3472,-3.4107,-3.4083,-3.2984,-3.3195,-3.4057,-3.5723,-3.6675,-3.7127,-3.6806,-3.8058,-3.8885,-3.9149,-3.9727,-4.0343,-4.1087,-4.1381,-4.1985,-4.2917,-4.4654,-4.573,-4.6248,-4.767,-4.8306,-4.8306,-4.8306,-4.8306,-4.8306,-4.8306,-4.8306,-4.8306,-4.8306,-4.8306,-4.8306,-4.8306,-4.8306,-4.8306,-4.8306,-4.8306,-4.8306,-4.8306,-4.8306,-4.8306,-4.8306,-4.8306,-4.8306,-4.8306,-4.8306,-4.8306,-4.8306,-4.8306,-4.8306,-4.8306,-4.8306,-4.8306,-4.8306,-4.8306,-4.8306,-4.8306,-4.8306,-4.8306,-4.8306,-4.8306,-4.8306,-4.8306,-4.8306,-4.8306,-4.8306,-4.8306,-4.8306,-4.8306,-4.8306,-4.8306,-4.8306,-4.8306,-4.8306,-4.8306,-4.8306,-4.8306,-4.8306,-4.8306,-4.8306,-4.8306,-4.8306,-4.8306,-4.8306,-4.8306,-4.8306,-4.8306,-4.8306,-4.8857,-1.6402,-1.5224,-1.5196,-1.3207,-1.4333,-1.4766,-1.0219,0.0,-1.1339,-1.0712,0.0,-1.0586,-1.1331,0.0,0.0,-1.0663,-1.4892,-1.7926,-1.6942,-2.1046,-2.4629,-2.5793,-3.1012,-3.3592,-3.1215,-3.0007,-3.1369,-3.6299,-3.3043,-3.2588,-3.6569,-3.7584,-3.8516,-3.964,-3.979,-4.0408,-4.1707,-4.2379,-4.2767,-4.2917,-4.5083,-4.6128,-4.6248,-4.767,-4.8306,-4.8306,-4.8306,-4.8306,-4.8306,-4.8306,-4.8306,-4.8306,-4.8306,-4.8306,-4.8306,-4.8306,-4.8306,-4.8306,-4.8306,-4.8306,-4.8306,-4.8306,-4.8306,-4.8306,-4.8306,-4.8306,-4.8306,-4.8306,-4.8306,-4.8306,-4.8306,-4.8306,-4.8306,-4.8306,-4.8306,-4.8306,-4.8306,-4.8306,-4.8306,-4.8306,-4.8306,-4.8306,-4.8306,-4.8306,-4.8306,-4.8306,-4.8306,-4.8306,-4.8306,-4.8306,-4.8306,-4.8306,-4.8306,-4.8306,-4.8306,-4.8306,-4.8306,-4.8306,-4.8306,-4.8306,-4.8306,-4.8306,-4.8306,-4.8306,-4.8306,-4.8306,-4.8306,-4.8306,-4.8306,-4.8306,-4.8306,-4.915,-1.5806,-1.6163,-1.7302,-1.4508,-1.5299,-1.5536,-1.0898,-0.9589,-0.9388,-0.9462,0.0,0.0,0.0,0.0,0.0,0.0,-1.3267,-1.5432,-1.3206,-1.8253,-2.25,-2.3391,-2.5228,-2.7088,-2.8745,-2.9648,-3.1803,-3.5808,-3.3094,-3.2874,-3.6586,-3.7348,-3.8332,-3.9759,-4.0106,-4.0948,-4.2284,-4.2299,-4.2567,-4.326,-4.4357,-4.5273,-4.6038,-4.711,-4.7865,-4.8306,-4.8306,-4.8306,-4.8306,-4.8306,-4.8306,-4.8306,-4.8306,-4.8306,-4.8306,-4.8306,-4.8306,-4.8306,-4.8306,-4.8306,-4.8306,-4.8306,-4.8306,-4.8306,-4.8306,-4.8306,-4.8306,-4.8306,-4.8306,-4.8306,-4.8306,-4.8306,-4.8306,-4.8306,-4.8306,-4.8306,-4.8306,-4.8306,-4.8306,-4.8306,-4.8306,-4.8306,-4.8306,-4.8306,-4.8306,-4.8306,-4.8306,-4.8306,-4.8306,-4.8306,-4.8306,-4.8306,-4.8306,-4.8306,-4.8306,-4.8306,-4.8306,-4.8306,-4.8306,-4.8306,-4.8306,-4.8306,-4.8306,-4.8306,-4.8306,-4.8306,-4.8306,-4.8306,-4.8563,-4.904,-4.8545,-4.8948,-1.7706,-1.8381,-1.9412,-1.5528,-1.5378,-1.5144,-1.1256,-0.9655,-0.922,-0.9989,-0.9815,0.0,0.0,0.0,-0.9998,-1.0129,0.0,-1.3449,-1.067,-1.4881,-1.861,-1.9544,-1.9919,-2.1793,-2.6132,-2.7242,-2.9416,-3.3633,-3.1753,-3.2165,-3.6248,-3.7109,-3.807,-3.9399,-4.0135,-4.1175,-4.2575,-4.2375,-4.2678,-4.3497,-4.3906,-4.4636,-4.5608,-4.6636,-4.7443,-4.7994,-4.8214,-4.8306,-4.8306,-4.8306,-4.8306,-4.8306,-4.8306,-4.8306,-4.8306,-4.8306,-4.8306,-4.8306,-4.8306,-4.8306,-4.8306,-4.8306,-4.8306,-4.8306,-4.8306,-4.8306,-4.8306,-4.8306,-4.8306,-4.8306,-4.8306,-4.8306,-4.8306,-4.8306,-4.8306,-4.8306,-4.8306,-4.8306,-4.8306,-4.8306,-4.8306,-4.8306,-4.8306,-4.8306,-4.8306,-4.8306,-4.8306,-4.8306,-4.8306,-4.8306,-4.8306,-4.8306,-4.8306,-4.8306,-4.8306,-4.8306,-4.8306,-4.8306,-4.8306,-4.8306,-4.8306,-4.8306,-4.8306,-4.8306,-4.8306,-4.8306,-4.8306,-4.8306,-4.8746,-4.9572,-4.8948,-4.9224,-2.485,-2.3374,-2.1996,-1.6007,-1.4545,-1.3496,-0.9424,-0.9955,-1.1197,-1.0831,-1.2276,-1.363,-1.3675,-1.3121,-1.2276,-1.0977,-1.0877,0.0,0.0,-0.9179,-1.001,-1.1915,-1.6119,-2.0169,-2.3506,-2.073,-2.1834,0.0,-2.7257,-2.8538,-3.5256,-3.6818,-3.7795,-3.8429,-3.9639,-4.0926,-4.2289,-4.3059,-4.3444,-4.3497,-4.4288,-4.4691,-4.48,-4.6397,-4.7131,-4.7205,-4.7976,-4.8306,-4.8306,-4.8306,-4.8306,-4.8306,-4.8306,-4.8306,-4.8306,-4.8306,-4.8306,-4.8306,-4.8306,-4.8306,-4.8306,-4.8306,-4.8306,-4.8306,-4.8306,-4.8306,-4.8306,-4.8306,-4.8306,-4.8306,-4.8306,-4.8306,-4.8306,-4.8306,-4.8306,-4.8306,-4.8306,-4.8306,-4.8306,-4.8306,-4.8306,-4.8306,-4.8306,-4.8306,-4.8306,-4.8306,-4.8306,-4.8306,-4.8306,-4.8306,-4.8306,-4.8306,-4.8306,-4.8306,-4.8306,-4.8306,-4.8306,-4.8306,-4.8306,-4.8306,-4.8306,-4.8306,-4.8306,-4.8306,-4.8306,-4.8306,-4.8306,-4.8306,-4.8746,-4.9591,-4.9554,-5.0398,-2.7156,-2.837,-2.8291,-2.0596,-1.9679,-1.88,-1.1664,-1.0959,-1.1578,-1.0825,-1.2408,-1.37,-1.2963,-1.262,-1.2096,-1.0972,-1.0454,-0.989,0.0,-0.8905,-0.9145,-0.9803,-1.4374,-1.7572,-1.7782,-2.0883,-2.458,0.0,-2.871,-3.0352,-3.4641,-3.5902,-3.7108,-3.8401,-4.0004,-4.1565,-4.3075,-4.3351,-4.3497,-4.3497,-4.3773,-4.4176,-4.4727,-4.5278,-4.6104,-4.7094,-4.7407,-4.7829,-4.8306,-4.8306,-4.8306,-4.8306,-4.8306,-4.8306,-4.8306,-4.8306,-4.8306,-4.8306,-4.8306,-4.8306,-4.8306,-4.8306,-4.8306,-4.8306,-4.8306,-4.8306,-4.8306,-4.8306,-4.8306,-4.8306,-4.8306,-4.8306,-4.8306,-4.8306,-4.8306,-4.8306,-4.8306,-4.8306,-4.8306,-4.8306,-4.8306,-4.8306,-4.8306,-4.8306,-4.8306,-4.8306,-4.8306,-4.8306,-4.8306,-4.8306,-4.8306,-4.8306,-4.8306,-4.8306,-4.8306,-4.8306,-4.8306,-4.8306,-4.8306,-4.8306,-4.8306,-4.8306,-4.8306,-4.8306,-4.8306,-4.8306,-4.8306,-4.8875,-4.9591,-5.0398,-5.093,-5.1463,-3.0539,-3.1918,-3.1924,-2.4777,-2.3948,-2.2868,-1.5084,-1.4223,-1.4813,-1.3905,-1.4159,-1.5109,-1.6997,-1.4946,-1.2915,-1.2774,-1.1339,-0.983,0.0,-0.8544,-0.8544,-0.8544,-1.1982,-1.4655,-1.5438,-1.8402,-2.2723,-2.8594,-2.8407,-2.9779,-3.3897,-3.5841,-3.7106,-3.7623,-4.0179,-4.2029,-4.3057,-4.3351,-4.3497,-4.3497,-4.3497,-4.3754,-4.4287,-4.458,-4.5278,-4.6287,-4.6837,-4.7407,-4.7921,-4.8196,-4.8306,-4.8306,-4.8306,-4.8306,-4.8306,-4.8306,-4.8306,-4.8306,-4.8306,-4.8306,-4.8306,-4.8306,-4.8306,-4.8306,-4.8306,-4.8306,-4.8306,-4.8306,-4.8306,-4.8306,-4.8306,-4.8306,-4.8306,-4.8306,-4.8306,-4.8306,-4.8306,-4.8306,-4.8306,-4.8306,-4.8306,-4.8306,-4.8306,-4.8306,-4.8306,-4.8306,-4.8306,-4.8306,-4.8306,-4.8306,-4.8306,-4.8306,-4.8306,-4.8306,-4.8306,-4.8306,-4.8306,-4.8306,-4.8306,-4.8306,-4.8306,-4.8306,-4.8306,-4.8306,-4.8306,-4.8453,-4.8765,-4.9315,-5.0141,-5.1242,-5.1756,-5.2142]}]]